     2              OBSERVATION DATA    GPS                 RINEX VERSION / TYPE
teqc 1997Jun30 19970702                                     PGM / RUN BY / DATE
                                                            COMMENT
Original Marker Name: SNT0                                  COMMENT
Campaign Name: HMC San Gabriel Valley 1993-1996             COMMENT
4-Character Station Name: SNT0                              COMMENT
6-Character Antenna Code: DMRCHT                            COMMENT
Vertical Measurement Point: BPA                             COMMENT
Vertical Offset to Rinex Ref. Point: 0.0000                 COMMENT
Radial Measurement Point: RRP                               COMMENT
Radial Offset to Rinex Ref. Point: 0.0000                   COMMENT
Antenna Height from Field Measurement: 0.0610 m             COMMENT
Additional Antenna Identification Info.:                    COMMENT
Turborogue and Ashtech Choke Ring                           COMMENT
Original XYZ: 0.0000 0.0000 0.0000                          COMMENT
New XYZ position is based on association with SCEC monument COMMENT
E1D0Q3C7+0011. Position of that monument is believed to be  COMMENT
valid to within 1 m horizontally; vertical accuracy         COMMENT
should be no worse than 3-times this value.                 COMMENT
                                                            COMMENT
Revised Rinex header created by UCSD GPS archive for        COMMENT
GSAC on 29-May-1999 (1999:149) 00:38:31 GMT                 COMMENT
For assistance contact dagnew@ucsd.edu or hjohnson@ucsd.edu COMMENT
                                                            COMMENT
SAN TUZE                                                    MARKER NAME
GAL HARVEY MUDD COLLEGE                                     OBSERVER / AGENCY
S/N UNKNOWN TURBOROGUE SNR-8000 3.2                         REC # / TYPE / VERS
329 DORNE-MARGOL. TYPE T                                    ANT # / TYPE
 -2474432.0000 -4676644.0000  3550554.0000                  APPROX POSITION XYZ
        0.0610        0.0000        0.0000                  ANTENNA: DELTA H/E/N
     1     1     0                                          WAVELENGTH FACT L1/2
     5    L1    L2    C1    P2    P1                        # / TYPES OF OBSERV
     0                                                      INTERVAL
  1996     5    18     0     0    0.000000                  TIME OF FIRST OBS
  1996     5    18    23    59   30.000000                  TIME OF LAST OBS
     0                                                      # OF SATELLITES
                                                            END OF HEADER
 96  5 18  0  0  0.0000000  0  8G26G 5G23G20G17G16G24G 6
  -4392242.74344  -3422519.28644  24127766.4244   24127770.6274
 -11968431.72644  -9326049.46744  23072478.6314   23072482.8424
  -5294286.95544  -4125405.80944  23995899.9094   23995905.1924
   -514992.37044   -401293.39444  21339085.9484   21339089.3674
  -4273055.59544  -3329651.00444  22279874.9764   22279878.4934
 -20074883.02244 -15642740.91944  21440750.9764   21440753.7084
  -3337528.27844  -2600660.82644  24631175.8054   24631177.8904
 -25695258.52644 -20022262.89744  20535148.1354   20535150.1994
 96  5 18  0  0 30.0000000  0  8G26G 5G23G20G17G16G24G 6
  -4471810.91944  -3484520.35944  24112625.0224   24112630.3094
 -11864071.15644  -9244729.61844  23092337.9494   23092342.5034
  -5397828.08044  -4206087.03744  23976196.5954   23976202.2714
   -445494.89044   -347139.54344  21352310.9294   21352314.1784
  -4332710.77744  -3376135.52744  22268523.0164   22268526.3604
 -20022316.26244 -15601779.81144  21450754.1074   21450756.9544
  -3260506.07544  -2540643.53744  24645832.6404   24645835.2024
 -25728715.56944 -20048333.31444  20528781.4334   20528783.4524
 96  5 18  0  1  0.0000000  0  8G26G 5G23G20G17G16G24G 6
  -4551305.28344  -3546463.92644  24097497.5494   24097500.7174
 -11759517.90644  -9163259.62744  23112233.7534   23112237.1894
  -5501188.28644  -4286627.25044  23956527.6884   23956533.5904
   -375515.00844   -292609.79544  21365627.7774   21365631.1214
  -4392130.55044  -3422436.61944  22257215.8284   22257219.2754
 -19969240.60044 -15560422.15444  21460854.1354   21460856.7094
  -3183493.95744  -2480634.15144  24660487.7764   24660492.7684
 -25761865.95044 -20074164.77344  20522473.2664   20522475.2834
 96  5 18  0  1 30.0000000  0  8G26G 5G23G20G17G16G24G 6
  -4630758.86044  -3608375.73544  24082377.9914   24082382.3954
 -11654818.44444  -9081675.68544  23132157.4584   23132161.4744
  -5604408.78044  -4367058.63644  23936885.3064   23936889.3274
   -305090.46944   -237733.55644  21379029.1444   21379032.6284
  -4451343.72144  -3468576.72144  22245947.9504   22245951.3024
 -19915689.41244 -15518693.95944  21471044.6114   21471047.4694
  -3106524.33044  -2420657.84444  24675134.5134   24675138.4794
 -25794737.07144 -20099778.62944  20516218.0744   20516220.1314
 96  5 18  0  2  0.0000000  0  8G26G 5G23G20G17G16G24G 6
  -4710152.07744  -3670240.49944  24067269.8964   24067273.4364
 -11549948.41344  -8999958.84644  23152113.6084   23152116.9404
  -5707465.81844  -4447362.65444  23917274.2054   23917278.9824
   -234196.28744   -182491.36644  21392519.8124   21392523.0764
  -4510318.32544  -3514530.93244  22234725.5484   22234728.7534
 -19861639.34844 -15476577.02744  21481329.9504   21481332.7414
  -3029570.43544  -2360693.79744  24689778.5504   24689783.8674
 -25827292.41544 -20125146.42344  20510022.9944   20510024.9874
 96  5 18  0  2 30.0000000  0  8G26G 5G23G20G17G16G24G 6
  -4789581.75344  -3732133.67944  24052154.7844   24052159.4944
 -11445019.72144  -8918196.29444  23172080.9344   23172084.1014
  -5810475.99544  -4527630.16244  23897671.8724   23897676.6524
   -162957.83844   -126980.91244  21406076.0844   21406079.3144
  -4569154.38144  -3560377.17644  22223529.4094   22223532.6264
 -19807204.28044 -15434160.09444  21491688.5744   21491691.2844
  -2952741.31444  -2300826.97044  24704398.5414   24704402.7524
 -25859633.37644 -20150347.16944  20503868.6234   20503870.5994
 96  5 18  0  3  0.0000000  0  8G26G 5G23G20G17G16G24G 6
  -4869171.38544  -3794151.47444  24037009.4254   24037012.3544
 -11340183.29744  -8836505.65044  23192030.6194   23192035.0624
  -5913593.81244  -4607981.55144  23878049.0844   23878055.4764
    -91526.17344    -71319.90244  21419669.0514   21419672.5254
  -4627988.71444  -3606222.07844  22212333.5144   22212337.4104
 -19752521.59344 -15391550.21044  21502094.2714   21502097.3204
  -2876198.64844  -2241183.38344  24718964.1974   24718967.0724
 -25891900.18944 -20175490.13744  20497728.3654   20497730.4724
 96  5 18  0  3 30.0000000  0  8G26G 5G23G20G17G16G24G 6
  -4948600.33644  -3856044.10344  24021894.6494   24021898.8244
 -11235128.07644  -8754644.51844  23212022.0154   23212025.5634
  -6016512.82344  -4688178.02344  23858464.0974   23858469.9464
    -19593.80544    -15268.73544  21433357.4754   21433360.7834
  -4686507.06144  -3651820.76144  22201197.7844   22201201.2884
 -19697274.08244 -15348500.20444  21512607.6584   21512610.3854
  -2799646.41344  -2181532.30844  24733531.6754   24733534.7794
 -25923764.47844 -20200319.44944  20491664.8734   20491666.9494
 96  5 18  0  4  0.0000000  0  8G26G 5G23G20G17G16G24G 6
  -5027660.45244  -3917649.32044  24006849.8694   24006853.7694
 -11129645.91344  -8672450.69844  23232094.6144   23232099.0304
  -6119033.25644  -4768063.92744  23838954.9954   23838960.7314
     53031.37344     41322.28544  21447177.6324   21447181.2194
  -4744521.02644  -3697026.41644  22190158.0104   22190161.3044
 -19641260.60444 -15304853.33744  21523266.6694   21523269.3364
  -2722880.78044  -2121714.94544  24748139.7334   24748143.0974
 -25955029.81744 -20224682.05044  20485715.2664   20485717.3314
 96  5 18  0  4 30.0000000  0  8G26G 5G23G20G17G16G24G 6
  -5106791.28544  -3979309.63544  23991791.6424   23991794.8524
 -11024198.03844  -8590283.60444  23252160.6964   23252165.2364
  -6221593.13644  -4847980.56244  23819438.3314   23819443.6454
    125908.95644     98109.98144  21461045.7924   21461049.1744
  -4802487.50344  -3742195.06644  22179127.2724   22179130.7124
 -19584930.76044 -15260959.95744  21533985.8374   21533988.5204
  -2646342.00944  -2062074.41144  24762704.5284   24762708.1204
 -25986156.11544 -20248936.30844  20479792.1264   20479794.2854
 96  5 18  0  5  0.0000000  0  8G26G 5G23G20G17G16G24G 6
  -5185720.43344  -4040812.79544  23976771.9624   23976775.3434
 -10918506.61444  -8507926.72744  23272273.2574   23272277.9014
  -6323902.62544  -4927702.09144  23799969.4694   23799974.3924
    199330.62144    155321.63844  21475017.2974   21475020.7914
  -4860124.97144  -3787107.34144  22168159.2624   22168162.9104
 -19528003.76644 -15216601.26144  21544818.6204   21544821.5714
  -2569746.90744  -2002389.96944  24777280.0054   24777282.4074
 -26016850.52544 -20272854.02844  20473951.0904   20473953.2424
 96  5 18  0  5 30.0000000  0  8G26G 5G23G20G17G16G24G 6
  -5264526.58944  -4102220.10944  23961775.4274   23961778.6224
 -10812653.68344  -8425444.00144  23292416.4214   23292420.9984
  -6426023.96744  -5007277.02444  23780536.2504   23780542.7014
    273202.79144    212884.34144  21489074.8264   21489078.5284
  -4917514.23344  -3831826.21744  22157238.4164   22157241.9234
 -19470567.15944 -15171845.46844  21555748.4764   21555751.3884
  -2493152.73844  -1942706.26644  24791855.4784   24791858.7364
 -26047191.58644 -20296496.41144  20468177.5144   20468179.6704
 96  5 18  0  6  0.0000000  0  8G26G 5G23G20G17G16G24G 6
  -5343184.05244  -4163511.54344  23946807.5394   23946812.7894
 -10706641.17244  -8342836.92644  23312590.0414   23312593.9924
  -6527920.60044  -5086676.85744  23761145.6554   23761151.0414
    347546.39844    270814.39744  21503221.9664   21503225.3774
  -4974640.82744  -3876340.42044  22146367.4794   22146371.2034
 -19412612.73444 -15126686.17844  21566776.7864   21566779.5274
  -2416522.99944  -1882994.86644  24806437.6784   24806442.7904
 -26077177.73244 -20319862.23744  20462471.3024   20462473.4924
 96  5 18  0  6 30.0000000  0  8G26G 5G23G20G17G16G24G 6
  -5421728.92244  -4224715.29244  23931860.8774   23931863.3554
 -10600511.41744  -8260138.49044  23332785.8954   23332789.9344
  -6629622.59944  -5165925.02944  23741792.3414   23741796.1804
    422312.04544    329073.31544  21517449.5474   21517453.0584
  -5031537.34044  -3920675.32544  22135540.4004   22135544.0684
 -19354172.23844 -15081148.13444  21577897.7624   21577900.5834
  -2339908.95844  -1823295.63544  24821016.8354   24821020.0694
 -26106837.53844 -20342973.77144  20456827.2214   20456829.3974
 96  5 18  0  7  0.0000000  0  8G26G 5G23G20G17G16G24G 6
  -5500053.89044  -4285747.66444  23916956.0514   23916960.6714
 -10494155.77744  -8177264.04344  23353024.6354   23353028.8844
  -6731040.82744  -5244952.08544  23722493.0394   23722498.3894
    497575.22744    387719.91844  21531771.5814   21531775.1804
  -5088104.85044  -3964753.86744  22124775.9234   22124779.7994
 -19295144.31044 -15035152.35044  21589130.4024   21589133.3224
  -2263226.21344  -1763542.88044  24835609.0924
 -26136065.88344 -20365749.09844  20451265.2944   20451267.5414
 96  5 18  0  7 30.0000000  0  8G26G 5G23G20G17G16G24G 6
  -5578463.08744  -4346845.66344  23902035.2714   23902038.5194
 -10387888.32344  -8094458.30044  23373246.7264   23373250.7834
  -6832494.72044  -5324006.92744  23703186.8554   23703192.3754
    573014.52144    446503.75544  21546127.1424   21546130.7784
  -5144666.48644  -4008827.83844  22114012.6744   22114016.2844
 -19235858.97844 -14988955.98944  21600411.9674   21600415.0394
  -2186787.84644                  24850154.9694
 -26165195.30444 -20388447.34744  20445722.0624   20445724.3564
 96  5 18  0  8  0.0000000  0  8G26G 5G23G20G17G16G24G 6
  -5656680.64444  -4407794.32844  23887150.8594   23887155.5144
 -10281416.81444  -8011493.54844  23393507.6364   23393512.1404
  -6933720.21344  -5402883.80544  23683923.9974   23683929.1724
    648915.37744    505647.24844  21560570.5684   21560574.1124
  -5200942.04144  -4052678.88644  22103303.6574   22103307.2994
 -19176048.44744 -14942350.38444  21611793.4604   21611796.3644
  -2110337.38744  -1644407.68644  24864703.1254   24864707.1784
 -26193945.17144 -20410849.84244  20440251.1634   20440253.3574
 96  5 18  0  8 30.0000000  0  8G26G 5G23G20G17G16G24G 6
  -5734737.12144  -4468617.48744  23872297.2984   23872300.5414
 -10174751.98244  -7928378.17044  23413805.4234   23413809.1474
  -7034752.42944  -5481610.09044  23664698.2094   23664703.0504
    725258.06844    565135.02744  21575098.2604   21575101.8204
  -5256951.85644  -4096322.86544  22092645.3544   22092648.8834
 -19115735.90044 -14895353.59844  21623270.6184   21623273.5694
  -2033902.11044  -1584846.24744  24879248.2854   24879251.9364
 -26222323.74544 -20432963.01844  20434850.9154   20434853.0114
 96  5 18  0  9  0.0000000  0  8G26G 5G23G20G17G16G24G 6
  -5812757.40744  -4529412.43844  23857450.3914   23857453.9434
 -10068027.57244  -7845216.36944  23434114.4004   23434120.5344
  -7135720.42444  -5560286.32644  23645484.5174   23645490.4214
    801940.22944    624887.33244  21589690.4014   21589694.1354
  -5312819.59944  -4139856.14244  22082014.0794   22082017.4564
 -19055067.79244 -14848079.75044  21634815.3774   21634818.2354
  -1957598.56144                  24893768.2364
 -26250469.22444 -20454894.55844  20429494.9884   20429497.2804
 96  5 18  0  9 30.0000000  0  8G26G 5G23G20G17G16G24G 6
  -5890724.29844  -4590165.78944  23842613.8144   23842616.8814
  -9961230.50644  -7761997.96344  23454437.3074   23454442.9774
  -7236591.25844  -5638886.85344  23626289.3804   23626295.0404
    878991.39244    684927.16744  21604352.6204   21604356.2834
  -5368517.35044  -4183256.95844  22071415.0304   22071418.7574
 -18994031.34644 -14800518.89044  21646430.2874   21646432.9994
  -1881396.07244  -1466012.11844  24908269.1584   24908273.1964
 -26278354.77044 -20476623.55244  20424188.5354   20424190.7674
 96  5 18  0 10  0.0000000  0  8G26G 5G23G20G17G16G24G 6
  -5968620.72044  -4650864.22744  23827790.3934   23827793.6044
  -9854377.87644  -7678736.24444  23474770.7504   23474775.2364
  -7337353.93544  -5717403.10944  23607114.7754   23607119.9144
    956409.46944    745252.91444  21619084.9094   21619088.4944
  -5424047.20744  -4226526.95044  22060848.0554   22060851.5714
 -18932610.76444 -14752658.70244  21658118.1774   21658121.2374
  -1805296.72544  -1406713.92544  24922750.5874   24922752.6454
 -26305955.09944 -20498130.30044  20418936.3544   20418938.4754
 96  5 18  0 10 30.0000000  0  8G26G 5G23G20G17G16G24G 6
  -6046391.90544  -4711465.07444  23812991.0034   23812994.2794
  -9747453.19444  -7595418.39244  23495117.8944   23495123.7314
  -7437958.10644  -5795795.85644  23587970.4214   23587975.6754
   1034225.34144    805888.63044  21633892.8254   21633896.2354
  -5479379.87544  -4269643.28544  22050318.5624   22050322.0864
 -18870757.51944 -14704461.37444  21669888.5014   21669891.2254
  -1729243.73444  -1347451.86344  24937222.8754   24937226.8154
 -26333228.36944 -20519382.19044  20413746.3554   20413748.5164
 96  5 18  0 11  0.0000000  0  8G26G 5G23G20G17G16G24G 6
  -6124042.90644  -4771972.29744  23798214.5094   23798217.5774
  -9640471.33744  -7512055.99644  23515476.0314   23515481.9424
  -7538412.96444  -5874072.25944  23568854.4204   23568859.6924
   1112402.17744    866805.61744  21648769.3274   21648772.9154
  -5534533.99844  -4312620.50144  22039823.1354   22039826.8294
 -18808488.39844 -14655939.98744  21681737.8934   21681740.8634
  -1653255.27244  -1288240.16244  24951683.0424   24951685.6534
 -26360189.50744 -20540390.86544  20408615.8654   20408618.0274
 96  5 18  0 11 30.0000000  0  8G26G 5G23G20G17G16G24G 6
  -6201554.17144  -4832370.60044  23783464.6724   23783467.4094
  -9533420.90744  -7428640.16244  23535847.0404   23535853.5734
  -7638691.76444  -5952211.47644  23549772.0544   23549776.9984
   1190934.60444    927999.68744  21663713.6624   21663717.2074
  -5589508.06444  -4355457.41144  22029362.0214   22029365.5824
 -18745775.22444 -14607072.59244  21693671.7994   21693674.6874
  -1577313.08844  -1229064.48744  24966134.3164   24966137.1784
 -26386804.01444 -20561129.44144  20403551.2674   20403553.4364
 96  5 18  0 12  0.0000000  0  8G26G 5G23G20G17G16G24G 6
  -6278886.59244  -4892629.56144  23768748.7104   23768751.9934
  -9426262.77344  -7345140.41144  23556238.6594   23556243.3094
  -7738756.60944  -6030183.96244  23530730.2014   23530735.0894
   1269851.83344    989493.59744  21678731.1084   21678734.7094
  -5644272.00644  -4398130.58844  22018940.6824   22018944.1864
 -18682565.25544 -14557818.07344  21705700.3754   21705703.3584
  -1501381.56144  -1169897.09744  24980583.5944   24980586.7504
 -26413039.52344 -20581572.69744  20398558.9124   20398561.0154
 96  5 18  0 12 30.0000000  0  8G26G 5G23G20G17G16G24G 6
  -6356107.77744  -4952801.83144  23754053.9484   23754057.0834
  -9319017.45644  -7261572.70344  23576646.7914   23576651.5974
  -7838646.94944  -6108020.48044  23511721.6254   23511725.9464
   1349115.62344   1051257.55844  21693814.5504   21693818.0764
  -5698841.67244  -4440652.38244  22008556.4434   22008560.0194
 -18618898.19144 -14508207.38744  21717815.8264   21717818.9004
  -1425493.56144  -1110763.65444  24995024.7384   24995029.6764
 -26438949.60444 -20601762.37244  20393628.4204   20393630.4764
 96  5 18  0 13  0.0000000  0  8G26G 5G23G20G17G16G24G 6
  -6433222.23244  -5012890.95844  23739379.6064   23739382.4724
  -9211679.80544  -7177933.07144  23597072.5284   23597077.3124
  -7938353.74644  -6185713.96944  23492747.7414   23492752.3194
   1428737.10844   1113300.24144  21708965.9534   21708969.4344
  -5753201.41644  -4483010.60344  21998212.1604   21998215.5804
 -18554761.00344 -14458230.36944  21730020.6634   21730023.6754
  -1349649.15144  -1051664.17144  25009457.3474   25009460.4564
 -26464521.89344 -20621688.83144  20388762.1344   20388764.2854
 96  5 18  0 13 30.0000000  0  8G26G 5G23G20G17G16G24G 6
  -6510168.37444  -5072848.91844  23724737.1524   23724740.3074
  -9104217.54844  -7094196.33844  23617522.0644   23617527.4524
  -8037819.99444  -6263220.01544  23473819.9494   23473825.5064
   1508774.63244   1175667.11144  21724196.6204   21724200.2414
  -5807287.61244  -4525155.67444  21987919.8484   21987923.1874
 -18490098.41144 -14407843.94344  21742325.5204   21742328.5434
  -1273799.11144   -992560.29344  25023891.0874   25023895.6534
 -26489699.59844 -20641307.82244  20383970.9534   20383973.2324
 96  5 18  0 14  0.0000000  0  8G26G 5G23G20G17G16G24G 6
  -6587009.08244  -5132724.72144  23710114.8584   23710117.3984
  -8996696.49644  -7010413.79844  23637982.7374   23637987.7994
  -8137123.13344  -6340598.96344  23454923.1514   23454928.1124
   1589166.87244   1238310.38244  21739494.8094   21739498.2814
  -5861143.22744  -4567121.07044  21977671.4464   21977674.6534
 -18424985.05744 -14357106.27144  21754716.1694   21754719.0864
  -1198010.35044   -933504.12744  25038313.4684   25038318.1324
 -26514563.54244 -20660682.32544  20379239.5294   20379241.6864
 96  5 18  0 14 30.0000000  0  8G26G 5G23G20G17G16G24G 6
  -6663615.39844  -5192417.90044  23695537.1224   23695540.6154
  -8889006.47344  -6926499.57544  23658475.5524   23658480.5694
  -8236140.46644  -6417755.21144  23436080.5254   23436085.2784
   1670043.19344   1301330.85944  21754885.1084   21754888.7864
  -5914645.38444  -4608811.04044  21967490.4944   21967493.7044
 -18359317.74244 -14305936.94244  21767212.3704   21767215.2084
  -1122158.49144   -874398.82544  25052747.7664   25052750.8574
 -26538984.64444 -20679711.75444  20374592.3814   20374594.4254
 96  5 18  0 15  0.0000000  0  8G26G 5G23G20G17G16G24G 6
  -6740120.78844  -5252032.42444  23680978.4924   23680981.6764
  -8781320.51944  -6842588.54844  23678967.5464   23678971.2764
  -8335029.21444  -6494811.28044  23417262.6254   23417267.0464
   1751236.55444   1364598.37744  21770335.6954   21770339.2244
  -5967976.66944  -4650367.86844  21957341.7854   21957344.9974
 -18293284.11644 -14254482.17944  21779778.0814   21779780.8764
  -1046421.57144   -815383.04944  25067160.0244   25067164.1614
 -26563125.00844 -20698522.42544  20369998.5664   20370000.6814
 96  5 18  0 15 30.0000000  0  8G26G 5G23G20G17G16G24G 6
  -6816487.45844  -5311538.87244  23666446.4264   23666449.7504
  -8673602.15044  -6758652.25644  23699465.7574   23699469.5444
  -8433755.43244  -6571740.68844  23398475.5684   23398479.3154
   1832771.43444   1428132.01844  21785851.2474   21785854.8174
  -6021116.80644  -4691775.74644  21947229.4754   21947232.7014
 -18226883.72344 -14202741.62144  21792413.7494   21792416.4664
   -970776.92144   -756439.23144  25081554.7884   25081557.6114
 -26586968.09944 -20717101.45544  20365461.4274   20365463.4294
 96  5 18  0 16  0.0000000  0  8G26G 5G23G20G17G16G24G 6
  -6892563.92344  -5370819.17344  23651969.5564   23651973.7324
  -8565666.60144  -6674546.70244  23720005.1814   23720009.3484
  -8532158.90644  -6648418.62144  23379750.1424   23379754.2854
   1914802.47344   1492052.27344  21801461.2914   21801464.7534
  -6073920.28544  -4732921.29644  21937181.2654   21937184.4724
 -18159969.03644 -14150600.31344  21805147.1444   21805149.9944
   -895051.29744   -697432.30144  25095964.8134   25095968.5264
 -26610355.23244 -20735325.19444  20361011.0434   20361013.1224
 96  5 18  0 16 30.0000000  0  8G26G 5G23G20G17G16G24G 6
  -6968495.29744  -5429986.39944  23637520.0474   23637522.4394
  -8457665.35544  -6590389.98244  23740557.2324   23740561.4864
  -8630388.44444  -6724961.01944  23361057.5084   23361062.5444
   1997168.03944   1556233.20344  21817135.0464   21817138.8314
  -6126560.16044  -4773939.35744  21927164.2614   21927167.4304
 -18092695.08744 -14098179.06544  21817948.9504   21817951.2574
   -819404.67044   -638486.91744  25110359.8934   25110362.2004
 -26633420.50244 -20753298.12844  20356621.8514   20356623.8544
 96  5 18  0 17  0.0000000  0  8G26G 5G23G20G17G16G24G 6
  -7044523.32944  -5489228.97944  23623052.3224   23623056.9834
  -8349840.36544  -6506370.59444  23761075.6184   23761082.3874
  -8728692.59444  -6801561.55844  23342350.6804   23342354.9234
   2079601.35244   1620466.91744  21832821.4314   21832825.2184
  -6179278.16044  -4815018.29944  21917132.3264   21917135.7054
 -18025309.59844 -14045670.89944  21830771.9704   21830774.8374
   -744086.25344   -579797.29844  25124692.5044   25124695.5574
 -26656410.72744 -20771212.58844  20352246.9124   20352249.1084
 96  5 18  0 17 30.0000000  0  8G26G 5G23G20G17G16G24G 6
  -7120364.71944  -5548326.09444  23608620.2854   23608622.8004
  -8241909.99844  -6422269.10144  23781614.1464   23781620.5524
  -8826783.95444  -6877996.29644  23323684.5224   23323688.7244
   2162381.07144   1684970.56344  21848574.0294   21848577.7614
  -6231772.02044  -4855922.58644  21907143.0174   21907146.2334
 -17957505.43144 -13992836.49144  21843674.7344   21843677.7314
   -668786.70144   -521122.35844  25139021.6914   25139025.2764
 -26679030.16544 -20788838.12544  20347942.5034   20347944.5154
 96  5 18  0 18  0.0000000  0  8G26G 5G23G20G17G16G24G 6
  -7195904.00444  -5607187.80044  23594245.4854   23594248.5814
  -8133779.16644  -6338011.40344  23802190.7414   23802197.1104
  -8924552.36344  -6954179.38044  23305079.7514   23305084.8774
   2245619.79044   1749831.86744  21864413.7934   21864417.5854
  -6283914.24144  -4896552.86544  21897220.7984   21897223.9564
 -17889153.14644 -13939574.98044  21856681.8094   21856684.3784
   -593390.57144   -462372.12544  25153369.0264   25153373.7844
 -26701153.54344 -20806077.12044  20343732.6054   20343734.6514
 96  5 18  0 18 30.0000000  0  8G26G 5G23G20G17G16G24G 6
  -7271249.73044  -5665898.70244  23579907.6714   23579911.1844
  -8025589.84044  -6253708.13544  23822778.6224   23822784.7034
  -9022102.83244  -7030192.64644  23286516.3224   23286521.1314
   2329204.28644   1814962.60744  21880319.5254   21880323.2904
  -6335817.45844  -4936996.90944  21887343.8854   21887347.1984
 -17820364.17044 -13885973.19244  21869771.9124   21869774.9414
   -518031.79944   -403651.07544  25167709.3904   25167713.6644
 -26722897.17444 -20823020.21044  20339594.9354   20339597.0544
 96  5 18  0 19  0.0000000  0  8G26G 5G23G20G17G16G24G 6
  -7346445.96244  -5724493.09144  23565598.1234   23565601.3424
  -7917386.54144  -6169393.96644  23843369.2154   23843374.1134
  -9119465.74744  -7106059.77144  23267988.7114   23267992.8054
   2413096.76544   1880333.33544  21896283.6564   21896287.6714
  -6387521.11144  -4977285.44744  21877504.9784   21877508.2974
 -17751188.54944 -13832070.12044  21882935.5324   21882938.6014
   -442754.74644   -344993.66844  25182033.8834   25182038.8154
 -26744319.35844 -20839712.82044  20335518.4094   20335520.5734
 96  5 18  0 19 30.0000000  0  8G26G 5G23G20G17G16G24G 6
  -7421435.31444  -5782926.29244  23551328.1444   23551331.5904
  -7809123.19344  -6085033.02344  23863971.1234   23863975.5024
  -9216583.97744  -7181736.24144  23249507.7874   23249512.7544
   2497366.56644   1945998.07944  21912319.7004   21912323.3114
  -6438976.93644  -5017380.87044  21867713.2994   21867716.8304
 -17681566.12944 -13777818.89744  21896184.1904   21896187.2504
   -367509.95444   -286361.39044  25196352.5284   25196356.7004
 -26765362.59844 -20856110.15144  20331514.0864   20331516.2534
 96  5 18  0 20  0.0000000  0  8G26G 5G23G20G17G16G24G 6
  -7496205.65744  -5841188.83044  23537099.7334   23537102.9024
  -7700793.26344  -6000620.19044  23884585.6034   23884590.3374
  -9313448.81144  -7257215.26744  23231074.9074   23231078.6834
   2582034.76944   2011973.27344  21928431.5724   21928435.3234
  -6490184.38044  -5057282.75044  21857968.8044   21857972.2434
 -17611505.87844 -13723226.50444  21909516.2614   21909519.3214
   -292298.52344   -227755.12544  25210664.8184   25210668.0094
 -26786015.55144 -20872203.36644  20327583.9044   20327586.0714
 96  5 18  0 20 30.0000000  0  8G26G 5G23G20G17G16G24G 6
  -7570775.70544  -5899295.28544  23522909.3534   23522912.4544
  -7592413.86344  -5916168.80444  23905209.5644   23905215.8064
  -9410088.20644  -7332518.60444  23212684.9884   23212689.7534
   2667069.84944   2078234.33744  21944613.2234   21944617.0204
  -6541170.14044  -5097011.88844  21848266.3524   21848269.6544
 -17541042.67944 -13668320.12744  21922925.1034   21922927.9874
   -217146.51744   -169195.08844  25224965.7824
 -26806304.81744 -20888013.18444  20323722.9964   20323725.0664
 96  5 18  0 21  0.0000000  0  8G26G 5G23G20G17G16G24G 6
  -7645197.79644  -5957286.47744  23508747.4974   23508750.7404
  -7484037.63044  -5831719.89344  23925832.9554   23925836.1784
  -9506560.14444  -7407691.48244  23194326.9044   23194331.4004
   2752411.42544   2144734.22944  21960853.1604   21960856.9164
  -6591976.73444  -5136601.41444  21838598.1794   21838601.6934
 -17470247.05744 -13613154.71744  21936396.9684   21936400.0554
   -142098.33744   -110716.09144  25239247.1314   25239254.4754
 -26826269.89044 -20903570.38644  20319923.8534   20319925.9474
 96  5 18  0 21 30.0000000  0  8G26G 5G23G20G17G16G24G 6
  -7719512.06444  -6015193.63544  23494605.9394   23494609.0744
  -7375712.02344  -5747310.43744  23946446.7614   23946451.5704
  -9602900.71244  -7482761.97944  23175993.8484   23175998.8324
   2838013.67944   2211437.25244  21977142.7704   21977146.5794
  -6642641.54944  -5176080.46944  21828957.0164   21828960.4344
 -17399155.80944 -13557758.95144  21949925.1094   21949928.0504
    -67178.35844    -52336.90044  25253503.8144   25253508.4054
 -26845929.10644 -20918889.25644  20316182.8224   20316184.9554
 96  5 18  0 22  0.0000000  0  8G26G 5G23G20G17G16G24G 6
  -7793626.22644  -6072944.87044  23480502.3984   23480505.6034
  -7267341.78844  -5662866.21344  23967068.9964   23967074.8454
  -9699008.47744  -7557651.07344  23157705.1684   23157710.2084
   2923947.44544   2278398.59144  21993495.3604   21993499.2604
  -6693086.30044  -5215388.04344  21819357.6654   21819361.0264
 -17327687.32744 -13502069.23644  21963525.0624   21963528.1454
      7706.61444      6015.00244  25267753.9954   25267755.1354
 -26865185.58544 -20933894.30644  20312518.4304   20312520.5864
 96  5 18  0 22 30.0000000  0  8G26G 5G23G20G17G16G24G 6
  -7867527.40944  -6130530.15444  23466439.3834   23466442.3054
  -7158909.40844  -5578373.56344  23987703.0304   23987709.0404
  -9794865.28644  -7632344.62044  23139464.1044   23139469.2874
   3010206.96144   2345613.76344  22009910.1554   22009913.9394
  -6743307.91244  -5254521.74444  21809800.8654   21809804.0704
 -17255824.13044 -13446071.95144  21977200.2134   21977203.2434
     82569.39044     64349.53644  25281999.9694   25282003.3554
 -26884020.92344 -20948571.19144  20308934.1704   20308936.2664
 96  5 18  0 23  0.0000000  0  8G26G 5G23G20G17G16G24G 6
  -7941163.57844  -6187908.93344  23452426.7604   23452430.0364
  -7050360.68044  -5493790.21744  24008359.2354   24008365.4084
  -9890410.61944  -7706795.45844  23121282.4164   23121286.9094
   3096845.58244   2413124.34044  22026396.9344   22026400.8974
  -6793264.54944  -5293448.97344  21800294.3534   21800297.5794
 -17183507.94444 -13389721.68744  21990961.4894   21990964.5504
    157461.35344    122706.83644  25296251.3984
 -26902382.96544 -20962879.27444  20305439.9424   20305441.9884
 96  5 18  0 23 30.0000000  0  8G26G 5G23G20G17G16G24G 6
  -8014624.56344  -6245151.19744  23438447.3564   23438451.0484
  -6941787.92444  -5409188.17344  24029020.0894   24029028.2814
  -9985742.28344  -7781079.80444  23103141.3664   23103145.7464
   3183765.61244   2480854.19444  22042937.3484   22042941.4114
  -6843062.42144  -5332252.48644  21790818.1184   21790821.3704
 -17110816.38644 -13333078.92744  22004794.2554   22004797.1424
    232279.28144                  25310488.7574
 -26920397.96844 -20976916.94244  20302011.8314   20302013.9234
 96  5 18  0 24  0.0000000  0  8G26G 5G23G20G17G16G24G 6
  -8088045.36944  -6302362.15844  23424475.9724   23424479.1744
  -6833339.67844  -5324683.13944  24049657.2424   24049661.2474
 -10081009.22544  -7855313.70944  23085012.5204   23085016.2824
   3270828.87044   2548695.65644  22059505.0314   22059508.8114
  -6892837.35844  -5371038.13544  21781346.1734   21781349.7044
 -17037899.60844 -13276260.66844  22018669.8204   22018672.8444
    306868.08544                  25324682.9434
 -26938225.74544 -20990808.72044  20298619.2884   20298621.4244
 96  5 18  0 24 30.0000000  0  8G26G 5G23G20G17G16G24G 6
  -8161253.16344  -6359407.14644  23410544.9424   23410548.8064
  -6724856.47544  -5240150.88644  24070300.8784   24070307.0314
 -10176052.06244  -7929373.00044  23066926.4134   23066931.3764
   3358203.90844   2616780.06344  22076131.9034   22076135.9954
  -6942397.68244  -5409656.54844  21771915.1944   21771918.4204
 -16964583.33044 -13219131.11044  22032621.5054   22032624.6474
    381396.35244                  25338865.1964
 -26955708.89944 -21004431.95644  20295292.3184   20295294.4354
 96  5 18  0 25  0.0000000  0  8G26G 5G23G20G17G16G24G 6
  -8233994.76144  -6416088.86344  23396702.6594   23396705.7754
  -6616106.60244  -5155410.81944  24090995.4284   24091000.4954
 -10270624.63744  -8003065.85544  23048929.8364   23048934.4254
   3446132.55344   2685295.85244  22092864.1074   22092868.2284
  -6991500.21244  -5447918.23844  21762571.2904   21762574.5434
 -16890614.51244 -13161493.08644  22046697.3254   22046700.1404
    456114.33844    355424.79144  25353083.4954   25353084.6874
 -26972614.70344 -21017605.30844  20292075.2814   20292077.3784
 96  5 18  0 25 30.0000000  0  8G26G 5G23G20G17G16G24G 6
  -8306478.46144  -6472569.63244  23382909.3834   23382912.7304
  -6507318.18844  -5070640.74644  24111697.2784   24111700.8174
 -10364931.30244  -8076551.50044  23030983.7664   23030988.5084
   3534396.36044   2754072.80744  22109660.1974   22109664.1704
  -7040359.44944  -5485990.34344  21753273.5694   21753276.8554
 -16816218.10244 -13103521.86944  22060854.5184   22060857.3674
    530824.57544    413648.01444  25367300.1594   25367303.2494
 -26989149.41644 -21030489.49244  20288928.8394   20288930.8714
 96  5 18  0 26  0.0000000  0  8G26G 5G23G20G17G16G24G 6
  -8378694.75444  -6528842.02244  23369167.1104   23369170.2124
  -6398480.91044  -4985832.60444  24132408.4384   24132415.7034
 -10458954.44144  -8149816.21244  23013091.6644   23013096.3004
   3622995.43744   2823111.00244  22126520.0794   22126524.2774
  -7088958.64944  -5523859.82444  21744025.5064   21744028.9404
 -16741401.96444 -13045223.59344  22075091.5354   22075094.5804
    605549.96244    471870.30044  25381519.9024   25381522.8654
 -27005264.90044 -21043046.99944  20285862.1144   20285864.2534
 96  5 18  0 26 30.0000000  0  8G26G 5G23G20G17G16G24G 6
  -8450652.55744  -6584913.00044  23355474.0904   23355476.3544
  -6289607.06044  -4900995.92544  24153126.3704   24153132.1834
 -10552705.77244  -8222869.12344  22995251.3464   22995256.0174
   3711902.98944   2892389.57644  22143438.6764   22143442.6084
  -7137319.25744  -5561543.39044  21734822.8204   21734826.0084
 -16666172.27444 -12986603.07044  22089407.3654   22089410.1584
    680277.95544                  25395740.1574
 -27020962.01844 -21055278.51144  20282875.0454   20282877.2284
 96  5 18  0 27  0.0000000  0  8G26G 5G23G20G17G16G24G 6
  -8522468.91944  -6640873.76144  23341807.7774   23341810.6724
  -6180819.55344  -4816226.55344  24173828.0884   24173834.8424
 -10646303.28244  -8295802.17844  22977440.3694   22977445.5124
   3801013.99844   2961826.68844  22160396.0984   22160399.7694
  -7185572.44644  -5599143.25644  21725640.5224   21725643.8664
 -16590666.26544 -12927767.23444  22103775.7204   22103778.7604
    755005.35444    588324.51744  25409942.8584
 -27036343.55444 -21067264.12144  20279948.0774   20279950.2624
 96  5 18  0 27 30.0000000  0  8G26G 5G23G20G17G16G24G 6
  -8594145.51744  -6696725.61844  23328168.2224   23328171.3854
  -6072113.99444  -4731521.00744  24194514.0634   24194520.2744
 -10739748.30644  -8368616.41944  22959658.3594   22959663.0644
   3890335.65944   3031427.93944  22177393.4464   22177397.2494
  -7233699.40044  -5636644.75644  21716482.2484   21716485.5524
 -16514901.73544 -12868729.94744  22118193.1374   22118196.2114
    829492.35144                  25424113.3934
 -27051385.64144 -21078985.23144  20277085.7394   20277087.8814
 96  5 18  0 28  0.0000000  0  8G26G 5G23G20G17G16G24G 6
  -8665638.69344  -6752434.54244  23314563.4174   23314567.4884
  -5963455.00144  -4646851.78844  24215191.2794   24215196.6174
 -10833022.59844  -8441297.60544  22941908.8144   22941913.9794
   3979903.73344   3101221.21144  22194437.5684   22194441.7964
  -7281661.40944  -5674017.73044  21707355.2564   21707358.4734
 -16438843.58644 -12809463.87544  22132666.5684   22132669.6674
    903872.12644                  25438267.2564
 -27066062.71144 -21090421.90244  20274292.7444   20274294.8274
 96  5 18  0 28 30.0000000  0  8G26G 5G23G20G17G16G24G 6
  -8737187.67444  -6808186.95944  23300948.1954   23300951.4904
  -5855109.48044  -4562426.80344  24235808.9304   24235814.0744
 -10926380.88344  -8514044.25144  22924143.1744   22924147.5304
   4069470.75744   3171013.65544  22211481.5914   22211485.3644
  -7329719.85744  -5711465.85144  21698210.0234   21698213.5314
 -16362744.47844 -12750165.88144  22147147.7564   22147150.9104
    977885.93144                  25452351.8464
 -27080643.81744 -21101783.80244  20271518.0714   20271520.1854
 96  5 18  0 29  0.0000000  0  8G26G 5G23G20G17G16G24G 6
  -8808644.40244  -6863867.48944  23287350.3944   23287353.6024
  -5746914.77344  -4478119.35744  24256397.7044   24256402.5244
 -11019661.43744  -8586730.32244  22906392.4054   22906397.1144
   4159189.61944   3240924.41544  22228554.6494   22228558.9494
  -7377723.14544  -5748870.98944  21689075.3044   21689078.5154
 -16286470.95144 -12690731.97944  22161662.0444   22161665.1714
   1051682.36744    819501.35944  25466395.0674
 -27094980.43844 -21112955.19744  20268789.8564   20268791.9094
 96  5 18  0 29 30.0000000  0  8G26G 5G23G20G17G16G24G 6
  -8879676.62244  -6919217.22344  23273833.3054   23273835.7734
  -5638542.70944  -4393673.67544  24277020.3094   24277027.7054
 -11112520.69744  -8659088.12344  22888721.7424   22888726.0574
   4249366.21944   3311191.85544  22245714.7554   22245718.6254
  -7425330.80244  -5785967.85344  21680015.7404   21680019.1594
 -16209688.49944 -12630901.50544  22176273.2834   22176276.3964
   1125593.07644    877094.06544  25480459.5244
 -27108759.83944 -21123692.38644  20266167.7164   20266169.7344
 96  5 18  0 30  0.0000000  0  8G26G 5G23G20G17G16G24G 6
  -8950157.94944  -6974137.69544  23260421.0714   23260423.9574
  -5529874.64244  -4308997.37344  24297699.1264   24297705.1404
 -11204831.67944  -8731018.68344  22871155.5094   22871159.9984
   4340109.15944   3381900.60244  22262982.4504   22262986.2054
  -7472438.54644  -5822675.16644  21671051.4664   21671054.9484
 -16132273.01444 -12570577.76444  22191004.9944   22191008.1354
   1199748.29744                  25494570.2194
 -27121879.11844 -21133915.20544  20263671.1944   20263673.2674
 96  5 18  0 30 30.0000000  0  8G26G 5G23G20G17G16G24G 6
  -9019989.34844  -7028551.72544  23247132.6504   23247135.5314
  -5420810.96044  -4224012.79644  24318453.4004   24318459.4434
 -11296470.36744  -8802425.38944  22853717.1694   22853721.5924
   4431521.98044   3453131.33044  22280377.8264   22280381.8954
  -7518938.59944  -5858908.95644  21662202.8484   21662206.1054
 -16054116.29944 -12509676.43744  22205877.7274   22205880.5714
   1274256.83044    992935.84244  25508749.4424
 -27134216.33644 -21143528.62944  20261323.4794   20261325.5794
 96  5 18  0 31  0.0000000  0  8G26G 5G23G20G17G16G24G 6
  -9089543.88544  -7082750.02844  23233896.8854   23233898.9934
  -5311715.15944  -4139003.21344  24339213.7104   24339218.3644
 -11387796.96844  -8873588.91144  22836338.4114   22836343.1244
   4523235.58044   3524596.43744  22297830.4584   22297834.8414
  -7565186.25944  -5894946.07844  21653402.2534   21653405.5654
 -15975571.44544 -12448472.66744  22220824.3224   22220827.2894
   1348755.06644                  25522925.7774
 -27146132.21344 -21152813.73444  20259056.0094   20259058.1004
 96  5 18  0 31 30.0000000  0  8G26G 5G23G20G17G16G24G 6
  -9158999.68844  -7136871.39044  23220679.9044   23220682.8534
  -5202786.09444  -4054123.54944  24359942.3114   24359948.8374
 -11479001.98744  -8944657.69944  22818982.5464   22818986.8124
   4615067.27244   3596153.55744  22315305.5214   22315309.3494
  -7611361.18744  -5930926.52844  21644615.4314   21644618.6164
 -15896805.52644 -12387096.63844  22235813.0334   22235816.1074
   1423071.15244                  25537067.8694
 -27157796.40344 -21161902.71544  20256836.4224   20256838.4144
 96  5 18  0 32  0.0000000  0  8G26G 5G23G20G17G16G24G 6
  -9228259.97244  -7190840.39144  23207499.9204   23207502.9134
  -5093926.06544  -3969297.66844  24380657.6934   24380664.3014
 -11569996.82844  -9015562.69944  22801666.7324   22801670.8054
   4707129.90444   3667890.63244  22332824.4264   22332828.1834
  -7657374.30444  -5966780.88844  21635859.3774   21635862.5644
 -15817724.96644 -12325475.42744  22250861.5194   22250864.5674
   1497291.49044                  25551191.4324
 -27169086.37144 -21170700.09444  20254687.9724   20254690.0334
 96  5 18  0 32 30.0000000  0  8G26G 5G23G20G17G16G24G 6
  -9297247.42644  -7244596.80744  23194372.0454   23194375.1214
  -4985067.73244  -3884473.11144  24401373.0664   24401379.9524
 -11660710.67544  -9086248.75344  22784404.5674   22784409.1924
   4799486.48244   3739856.75344  22350399.3354   22350403.6154
  -7703137.17144  -6002440.25144  21627150.9724   21627154.3144
 -15738252.20244 -12263548.60944  22265984.7234   22265987.7634
   1571481.38044                  25565309.4914
 -27179918.48844 -21179140.71144  20252626.6994   20252628.7314
 96  5 18  0 33  0.0000000  0  8G26G 5G23G20G17G16G24G 6
  -9365998.14944  -7298168.76544  23181289.3054   23181291.9194
  -4876237.93444  -3799670.79544  24422082.5354   24422088.9214
 -11751191.46744  -9156753.21344  22767186.6494   22767190.4044
   4892085.16244   3812011.52844  22368020.2294   22368024.1824
  -7748681.74244  -6037929.51144  21618484.1174   21618487.3104
 -15658434.32044 -12201352.86544  22281173.5744   22281176.5594
   1645607.68944                  25579415.1344
 -27190333.90844 -21187256.62444  20250644.6584   20250646.7124
 96  5 18  0 33 30.0000000  0  8G26G 5G23G20G17G16G24G 6
  -9434537.95144  -7351576.35844  23168246.5474   23168249.0304
  -4767477.14444  -3714922.26744  24442779.2634   24442785.1814
 -11841483.06244  -9227110.23844  22750004.5614   22750008.6794
   4984881.18544   3884320.07444  22385678.7904   22385682.7174
  -7794059.24244  -6073288.58444  21609849.1224   21609852.3574
 -15578334.39844 -12138937.35144  22296416.1554   22296419.3334
   1719626.02844                  25593500.6344
 -27200372.56844 -21195078.96244  20248734.4184   20248736.4274
 96  5 18  0 34  0.0000000  0  7G26G 5G23G20G17G16G 6
  -9502817.58444  -7404781.22044  23155253.4294   23155255.9924
  -4658750.03344  -3630199.97044  24463469.4714   24463475.1774
 -11931544.70344  -9297288.07844  22732866.4724   22732870.5064
   5077899.71744   3956802.00544  22403379.7294   22403383.7874
  -7839243.41244  -6108497.01244  21601250.8614   21601254.0714
 -15497921.98044 -12076278.33644  22311718.1974   22311721.1344
 -27210015.37644 -21202592.83844  20246899.4524   20246901.4674
 96  5 18  0 34 30.0000000  0  8G26G 5G23G20G17G16G22G 6
  -9570790.36644  -7457746.98944  23142318.4784   23142321.3304
  -4550017.00144  -3545473.07444  24484160.7624   24484167.0824
 -12021331.98244  -9367252.13544  22715780.4964   22715784.4934
   5171160.06044   4029472.35944  22421126.5554   22421130.6434
  -7884203.60744  -6143530.91644  21592695.1994   21592698.4004
 -15417171.50244 -12013355.89444  22327084.4354   22327087.5974
        -0.46254        -0.14954  24372211.9534   24372215.0264
 -27219246.12244 -21209785.63244  20245142.9434   20245144.9554
 96  5 18  0 35  0.0000000  0  8G26G 5G23G20G17G16G22G 6
  -9638507.72644  -7510513.71444  23129432.2104   23129434.9524
  -4441328.24944  -3460780.64344  24504843.6744   24504850.4944
 -12110893.90444  -9437040.58444  22698737.2964   22698741.3014
   5264617.48444   4102296.28444  22438910.9624   22438915.0154
  -7929017.11744  -6178450.51844  21584167.4584   21584170.6874
 -15336161.37544 -11950231.12944  22342500.1054   22342503.1734
    -69101.11144    -53844.79344  24359062.7614   24359066.3404
 -27228131.50344 -21216709.31744  20243452.0754   20243454.1994
 96  5 18  0 35 30.0000000  0  8G26G 5G23G20G17G16G22G 6
  -9706011.52944  -7563114.03044  23116586.6754   23116589.1204
  -4332749.50244  -3376174.00344  24525505.4884   24525514.9204
 -12200270.91544  -9506684.94744  22681729.2804   22681733.3934
   5358218.06544   4175231.75544  22456722.5564   22456726.7154
  -7973750.53044  -6213307.70944  21575654.8814   21575658.1004
 -15254944.87444 -11886945.56044  22357955.1184   22357958.2324
   -137892.60944   -107448.53544  24345972.0444   24345975.4714
 -27236732.45644 -21223411.36344  20241815.4574   20241817.5064
 96  5 18  0 36  0.0000000  0  8G26G 5G23G20G17G16G22G 6
  -9773234.73044  -7615495.70644  23103794.5274   23103797.0354
  -4224212.50344  -3291599.85444  24546159.4944   24546165.4574
 -12289373.42844  -9576115.41944  22664773.6544   22664777.6584
   5452032.78944   4248334.09544  22474574.9614   22474579.4024
  -8018318.42644  -6248035.92744  21567173.8644   21567177.0564
 -15173437.45144 -11823433.29244  22373465.5254   22373468.6154
   -206291.87244   -160746.60044  24332955.8984   24332959.9354
 -27244972.56144 -21229832.22944  20240247.3464   20240249.3784
 96  5 18  0 36 30.0000000  0  8G26G 5G23G20G17G16G22G 6
  -9840131.35144  -7667622.89044  23091064.5754   23091066.6154
  -4115682.95844  -3207031.50644  24566812.0834   24566821.5164
 -12378143.84344  -9645287.11144  22647881.1654   22647884.8234
   5546113.06744   4321643.35844  22492477.8514   22492482.2414
  -8062663.08244  -6282590.18244  21558735.4684   21558738.6434
 -15091591.82344 -11759657.49244  22389040.2524   22389043.3194
   -274250.40144   -213701.25944  24320023.7914   24320026.7184
 -27252798.83444 -21235930.62544  20238758.0904   20238760.1644
 96  5 18  0 37  0.0000000  0  8G26G 5G23G20G17G16G22G 6
  -9906715.29944  -7719506.44444  23078393.9644   23078397.2124
  -4007185.19244  -3122487.94844  24587458.6274   24587467.0664
 -12466578.44044  -9714197.12944  22631052.5784   22631056.5284
   5640470.36444   4395168.48444  22510433.5094   22510437.5724
  -8106774.13444  -6316962.41244  21550341.3994   21550344.6584
 -15009392.69044 -11695606.22944  22404682.1874   22404685.2444
   -341768.86044   -266313.02744  24307175.3224   24307180.4914
 -27260191.08744 -21241690.83044  20237351.4074   20237353.4574
 96  5 18  0 37 30.0000000  0  8G26G 5G23G20G17G16G22G 6
  -9973021.43844  -7771173.52344  23065776.2134   23065778.9844
  -3898768.77844  -3038007.78644  24608089.7804   24608096.9124
 -12554712.17844  -9782872.72144  22614281.2784   22614285.3224
   5735078.31444   4468888.91844  22528436.8464   22528441.2734
  -8150671.60144  -6351168.21144  21541987.9774   21541991.2194
 -14926859.03844 -11631294.30144  22420387.8214   22420390.7764
   -408892.46744   -318617.09844  24294402.0914   24294407.3234
 -27267167.24944 -21247126.80744  20236023.8864   20236025.8894
 96  5 18  0 38  0.0000000  0  8G26G 5G23G20G17G16G22G 6
 -10039081.58444  -7822648.91944  23053205.3464   23053207.6444
  -3790477.55244  -2953625.16444  24628697.0454   24628701.9414
 -12642593.58844  -9851351.68744  22597558.0034   22597562.1194
   5829902.30644   4542777.69944  22546481.3524   22546485.1084
  -8194392.19844  -6385236.18944  21533668.3004   21533671.5184
 -14844039.98844 -11566759.99244  22436147.7834   22436150.9044
   -475676.73744   -370656.76844  24281693.5134   24281696.5644
 -27273764.74944 -21252267.72044  20234768.4404   20234770.4504
 96  5 18  0 38 30.0000000  0  8G26G 5G23G20G17G16G22G 6
 -10104892.89644  -7873930.41444  23040681.9384   23040684.5934
  -3682315.71544  -2869343.38144  24649279.7544   24649283.5454
 -12730247.74044  -9919653.57644  22580877.8664   22580882.3494
   5924942.09744   4616834.63644  22564566.7634   22564570.9334
  -8237951.28644  -6419178.31744  21525379.1554   21525382.3994
 -14760953.96844 -11502017.64544  22451958.5074   22451961.6324
   -542135.55444   -422442.83744  24269046.7594   24269051.9774
 -27279983.01044 -21257113.12444  20233585.1914   20233587.1644
 96  5 18  0 39  0.0000000  0  8G26G 5G23G20G17G16G22G 6
 -10170370.63844  -7924951.99544  23028221.8874   23028225.1064
  -3574187.94344  -2785088.14344  24669855.9074   24669863.2484
 -12817608.23344  -9987726.64044  22564253.6814   22564258.0584
   6020269.55244   4691115.71644  22582707.0604   22582711.4864
  -8281285.94444  -6452945.56744  21517132.7584   21517135.9784
 -14677529.90344 -11437011.89544  22467833.5574   22467836.3994
   -608192.05744   -473915.40244  24256476.6824   24256480.3334
 -27285734.21144 -21261594.58044  20232490.7384   20232492.8364
 96  5 18  0 39 30.0000000  0  8G26G 5G23G20G17G16G22G 6
 -10235497.47544  -7975700.13344  23015828.4344   23015830.8414
  -3466081.31044  -2700849.37644  24690427.9714   24690435.0294
 -12904685.18044 -10055578.76044  22547683.4814   22547687.1014
   6115861.81344   4765603.14644  22600897.7194   22600901.9864
  -8324410.52444  -6486549.11744  21508926.4354   21508929.6414
 -14593775.88444 -11371749.03544  22483771.5464   22483774.6084
   -673844.87944   -525073.43044  24243983.3654   24243987.7514
 -27291038.92644 -21265728.12244  20231481.2634   20231483.3234
 96  5 18  0 40  0.0000000  0  8G26G 5G23G20G17G16G22G 6
 -10300251.92644  -8026158.11244  23003506.1844   23003508.6544
  -3357963.21744  -2616601.69344  24711002.3504   24711005.7444
 -12991456.24744 -10123192.52944  22531171.5074   22531175.5234
   6211713.86244   4840293.00444  22619137.7414   22619141.4294
  -8367313.09944  -6519979.67644  21500762.3944   21500765.6164
 -14509674.59444 -11306215.57444  22499775.4134   22499778.5024
   -739059.57344   -575890.04844  24231573.3494   24231576.1104
 -27295877.40044 -21269498.35844  20230560.3974   20230562.4074
 96  5 18  0 40 30.0000000  0  8G26G 5G23G20G17G16G22G 6
 -10364661.86644  -8076347.63244  22991249.3534   22991252.6044
  -3249846.26944  -2532354.88944  24731576.4904   24731582.8574
 -13077923.05744 -10190569.21544  22514717.4004   22514721.2074
   6307797.66544   4915163.45144  22637421.9524   22637426.2104
  -8409993.43244  -6553237.06244  21492640.5144   21492643.6924
 -14425228.90044 -11240413.75144  22515844.8994   22515848.0804
   -803822.74144   -626354.82644  24219249.3874   24219254.6554
 -27300251.14344 -21272906.46444  20229728.1904   20229730.2244
 96  5 18  0 41  0.0000000  0  8G26G 5G23G20G17G16G22G 6
 -10428782.54044  -8126311.75344  22979047.5524   22979049.9544
  -3141773.59644  -2448142.60844  24752142.2354   24752147.6684
 -13164107.83944 -10257726.13844  22498316.8664   22498320.9674
   6404053.69244   4990168.10144  22655738.9274   22655743.3064
  -8452481.70944  -6586344.79444  21484555.2754   21484558.4204
 -14340487.26444 -11174381.31544  22531970.7274   22531973.9004
   -868168.84444   -676494.63244  24207004.7094   24207007.4614
 -27304214.60044 -21275994.86644  20228973.9984   20228976.0644
 96  5 18  0 41 30.0000000  0  8G26G 5G23G20G17G16G22G 6
 -10492617.24444  -8176053.05044  22966900.1324   22966902.5754
  -3033760.63444  -2363976.86544  24772696.5264   24772702.0764
 -13250009.62844 -10324662.54844  22481970.1784   22481973.9184
   6500466.37144   5065294.81644  22674085.6724   22674090.0394
  -8494762.09144  -6619290.52944  21476509.6264   21476512.7314
 -14255461.06244 -11108127.14344  22548150.6604   22548153.2154
   -932101.48844   -726312.61244  24194838.6384   24194843.4664
 -27307769.30844 -21278764.76644  20228297.5534   20228299.6914
 96  5 18  0 42  0.0000000  0  8G26G 5G23G20G17G16G22G 6
 -10556166.77144  -8225572.12244  22954806.8894   22954809.9424
  -2925816.81344  -2279864.93844  24793237.6684   24793245.4854
 -13335614.71944 -10391367.76844  22465680.0324   22465683.9204
   6597036.78644   5140544.44344  22692462.3614   22692466.4274
  -8536820.80344  -6652063.53544  21468506.1344   21468509.3354
 -14170167.33944 -11041664.51644  22564381.5464   22564384.7244
   -995618.56944   -775806.01744  24182751.7264   24182755.2974
 -27310901.03044 -21281205.07044  20227701.6324   20227703.7114
 96  5 18  0 42 30.0000000  0  8G26G 5G23G20G17G16G22G 6
 -10619420.75444  -8274860.90444  22942770.2374   22942773.4284
  -2817953.68744  -2195815.95944  24813763.4294   24813769.9034
 -13420920.17044 -10457839.49544  22449446.9134   22449450.9464
   6693777.96444   5215927.12944  22710871.6144   22710875.9034
  -8578650.14144  -6684657.80744  21460546.2034   21460549.3594
 -14084617.58944 -10975002.38744  22580661.1284   22580664.0484
  -1058723.98944   -824979.05444  24170743.0754   24170747.1044
 -27313608.80744 -21283315.02744  20227186.4064   20227188.4384
 96  5 18  0 43  0.0000000  0  8G26G 5G23G20G17G16G22G 6
 -10682362.03944  -8323906.01344  22930792.9684   22930796.1754
  -2710171.58044  -2111830.07244  24834273.8254   24834280.0794
 -13505929.05844 -10524080.13344  22433270.2764   22433273.9884
   6790698.18844   5291449.33544  22729314.9824   22729319.5104
  -8620267.85944  -6717087.17844  21452626.6034   21452629.8044
 -13998820.17044 -10908147.26644  22596987.8484   22596990.8814
  -1121419.60144   -873832.75744  24158812.5814   24158815.8074
 -27315885.25844 -21285088.88744  20226753.2294   20226755.0634
 96  5 18  0 43 30.0000000  0  8G26G 5G23G20G17G16G22G 6
 -10744955.09844  -8372679.79244  22918881.9754   22918885.0514
  -2602467.19444  -2027904.76544  24854769.5184   24854777.1434
 -13590629.36344 -10590080.31944  22417152.3194   22417156.3604
   6887815.26244   5367124.92744  22747795.8264   22747799.7444
  -8661671.28944  -6749349.57644  21444747.8174   21444751.0134
 -13912757.63544 -10841085.56444  22613365.0354   22613367.9374
  -1183678.81344   -922346.40844  24146965.0904   24146968.6024
 -27317706.90844 -21286508.35944  20226406.5234   20226408.4934
 96  5 18  0 44  0.0000000  0  8G26G 5G23G20G17G16G22G 6
 -10807196.45244  -8421179.51444  22907037.6974   22907040.3584
  -2494836.12344  -1944036.62744  24875251.0774   24875257.7924
 -13675002.36744 -10655825.47344  22401096.5574   22401100.1204
   6985147.86844   5442968.46844  22766317.6514   22766322.1374
  -8702868.25644  -6781451.09044  21436908.2584   21436911.4484
 -13826425.92744 -10773814.12244  22629793.5244   22629796.4544
  -1245491.14144   -970511.87244  24135202.7004   24135206.6274
 -27319073.47244 -21287573.21144  20226146.6034   20226148.5154
 96  5 18  0 44 30.0000000  0  8G26G 5G23G20G17G16G22G 6
 -10869106.98644  -8469421.45144  22895256.4434   22895259.0844
  -2387294.82144  -1860238.38544  24895715.6504   24895721.0574
 -13759067.82144 -10721330.97344  22385099.4694   22385103.3534
   7082679.39044   5518967.00644  22784877.2904   22784881.6214
  -8743889.44344  -6813415.63144  21429102.1704   21429105.3614
 -13739839.93144 -10706344.52944  22646270.2204   22646273.1324
  -1306883.17744  -1018349.75944  24123520.1084   24123523.8934
 -27320001.78744 -21288296.57344  20225969.9214   20225971.8874
 96  5 18  0 45  0.0000000  0  8G26G 5G23G20G17G16G22G 6
 -10930735.15944  -8517443.37744  22883529.0614   22883531.3304
  -2279896.58744  -1776551.66444  24916152.8284   24916161.7644
 -13842860.47044 -10786623.90344  22369154.2704   22369157.7354
   7180352.66944   5595076.00644  22803464.1174   22803468.4104
  -8784782.71944  -6845280.50044  21421320.3474   21421323.5344
 -13653042.46044 -10638710.15644  22662787.2624   22662789.6304
  -1367893.92944  -1065890.59744  24111910.2964   24111914.2024
 -27320553.04544 -21288726.13844  20225864.9404   20225866.9904
 96  5 18  0 45 30.0000000  0  8G26G 5G23G20G17G16G22G 6
 -10991993.48444  -8565177.11144  22871871.8144   22871874.2584
  -2172557.76544  -1692911.21444  24936579.0804   24936590.2504
 -13926291.08344 -10851634.72544  22353277.9014   22353281.8884
   7278240.58044   5671352.25344  22822091.5234   22822096.1694
  -8825469.46344  -6876984.44044  21413577.9834   21413581.1714
 -13565954.79344 -10570849.65444  22679359.4114   22679361.7784
  -1428463.18044  -1113087.40644  24100384.2404   24100389.2204
 -27320663.98544 -21288812.60244  20225843.9394   20225845.9224
 96  5 18  0 46  0.0000000  0  8G26G 5G23G20G17G16G22G 6
 -11052915.28144  -8612648.60044  22860278.7154   22860281.1014
  -2065305.95944  -1609338.58344  24956988.5484   24956993.3564
 -14009392.71044 -10916389.19944  22337464.0604   22337467.8514
   7376309.60144   5747769.62644  22840753.3944   22840757.6774
  -8865969.67744  -6908543.02844  21405870.9974   21405874.1544
 -13478593.89044 -10502776.23344  22695983.7434   22695986.3624
  -1488633.02244  -1159972.96744  24088934.4214   24088937.6044
 -27320356.41144 -21288572.94244  20225902.4124   20225904.3784
 96  5 18  0 46 30.0000000  0  8G26G 5G23G20G17G16G22G 6
 -11113541.58644  -8659889.84644  22848741.8154   22848744.7504
  -1958188.93744  -1525870.95944  24977372.3474   24977379.2364
 -14092228.95044 -10980936.87344  22321700.8664   22321704.7134
   7474504.20044   5824284.84344  22859439.1494   22859443.7814
  -8906315.50144  -6939981.31644  21398193.4144   21398196.6324
 -13390994.49644 -10434516.98744  22712653.3874   22712656.6074
  -1548437.81844  -1206574.09044  24077553.8264   24077557.4554
 -27319680.10644 -21288045.94944  20226031.1174   20226033.1254
 96  5 18  0 47  0.0000000  0  8G26G 5G23G20G17G16G22G 6
 -11173817.84244  -8706858.32744  22837271.6794   22837274.3224
  -1851159.29144  -1442471.42544  24997739.5014   24997749.4294
 -14174770.56544 -11045254.97444  22305993.6524   22305997.4474
   7572866.31344   5900930.59944  22878157.0244   22878161.4374
  -8946449.27744  -6971254.37744  21390556.2014   21390559.3974
 -13303102.01144 -10366029.35644  22729378.7994   22729382.0394
  -1607824.32644  -1252849.26944  24066253.0074   24066256.6974
 -27318591.06944 -21287197.35944  20226238.3824   20226240.4124
 96  5 18  0 47 30.0000000  0  8G26G 5G23G20G17G16G22G 6
 -11233705.47544  -8753523.98944  22825875.3904   22825877.7474
  -1744174.76844  -1359107.07144  25018098.0974   25018109.7634
 -14257003.46444 -11109332.51644  22290345.2454   22290348.9294
   7671430.91344   5977734.12644  22896913.2534   22896918.0714
  -8986336.11344  -7002335.01644  21382965.9464   21382969.1434
 -13214884.54644 -10297288.48544  22746166.0794   22746169.2414
  -1666765.94644  -1298777.79844  24055036.7664   24055040.4494
 -27317024.26544 -21285976.48444  20226536.5174   20226538.5014
 96  5 18  0 48  0.0000000  0  8G26G 5G23G20G17G16G22G 6
 -11293298.58744  -8799960.14244  22814535.2904   22814538.3164
  -1637325.22944  -1275847.88744  25038431.2514   25038441.1804
 -14339028.24244 -11173247.88644  22274736.4144   22274740.1454
   7770122.82444   6054636.85844  22915693.7744   22915698.4924
  -9026044.45844  -7033276.57244  21375409.7594   21375412.9544
 -13126425.65744 -10228359.50144  22762999.2314   22763002.2154
  -1725322.65044  -1344406.37644  24043893.6784   24043897.3064
 -27315048.23144 -21284436.71744  20226912.4664   20226914.4694
 96  5 18  0 48 30.0000000  0  8G26G 5G23G20G17G16G22G 6
 -11352552.66544  -8846132.11844  22803259.6584   22803262.4774
  -1530567.17744  -1192659.99844  25058746.8124   25058752.2614
 -14420806.17344 -11236970.91144  22259174.4814   22259178.3634
   7868984.46244   6131671.84744  22934506.4944   22934511.0174
  -9065547.55044  -7064058.19144  21367892.5874   21367895.7054
 -13037706.74844 -10159227.90244  22779881.9614   22779885.1004
  -1783455.90444  -1389704.99544  24032831.1894   24032834.5494
 -27312631.44244 -21282553.49444  20227372.4464   20227374.4614
 96  5 18  0 49  0.0000000  0  8G26G 5G23G20G17G16G22G 6
 -11411299.64844  -8891908.95044  22792080.4764   22792082.8904
  -1423748.85444  -1109425.17144  25079073.7954   25079080.9684
 -14502159.60444 -11300363.14944  22243693.4784   22243697.3344
   7968168.76944   6208958.26044  22953380.7554   22953385.0614
  -9104710.47244  -7094574.74444  21360440.1794   21360443.3784
 -12948595.88444 -10089790.88744  22796839.1564   22796842.2294
  -1841023.25244  -1434562.64344  24021876.5124   24021880.5414
 -27309608.41644 -21280197.89044  20227947.6594   20227949.7264
 96  5 18  0 49 30.0000000  0  8G26G 5G23G20G17G16G22G 6
 -11469692.74644  -8937410.03244  22780968.5894   22780971.0684
  -1317038.75044  -1026274.69544  25099380.1484   25099383.8174
 -14583230.65744 -11363535.36444  22228266.1454   22228270.2804
   8067513.29044   6286369.51644  22972285.4094   22972289.9864
  -9143700.09744  -7124956.26244  21353020.7214   21353023.8774
 -12859265.39644 -10020182.73344  22813838.1344   22813841.3754
  -1898175.05644  -1479096.49844  24011000.9824   24011004.1024
 -27306140.62144 -21277495.71244  20228607.4734   20228609.5234
 96  5 18  0 50  0.0000000  0  8G26G 5G23G20G17G16G22G 6
 -11527705.33444  -8982614.61644  22769929.1024   22769931.2714
  -1210435.30544   -943207.25844  25119666.3874   25119675.3234
 -14663983.42444 -11426459.55744  22212899.4154   22212903.0874
   8167028.32944   6363913.64944  22991222.5824   22991226.7824
  -9182499.67744  -7155189.68644  21345637.4084   21345640.5334
 -12769701.40444  -9950392.61844  22830881.5844   22830884.6764
  -1954883.28844  -1523284.72044  24000209.6794   24000213.3544
 -27302226.98444 -21274446.12444  20229352.3734   20229354.4204
 96  5 18  0 50 30.0000000  0  8G26G 5G23G20G17G16G22G 6
 -11585324.93444  -9027512.96344  22758964.5484   22758967.4334
  -1103948.95144   -860231.12044  25139930.1984   25139937.1854
 -14744387.39644 -11489111.96044  22197599.0324   22197602.6884
   8266698.47944   6441578.64544  23010189.2424   23010193.4474
  -9221119.77944  -7185283.26044  21338288.1804   21338291.3314
 -12679915.02144  -9880429.22944  22847967.3654   22847970.4254
  -2011151.73044  -1567130.22044  23989502.0844   23989505.6854
 -27297864.98644 -21271047.18244  20230182.4464   20230184.4274
 96  5 18  0 51  0.0000000  0  8G26G 5G23G20G17G16G22G 6
 -11642539.96444  -9072096.06544  22748076.8554   22748079.3844
   -997577.07744                  25160172.2764
 -14824421.44744 -11551476.11844  22182369.0864   22182372.8734
   8366520.63644   6519362.09244  23029184.7094   23029189.0514
  -9259538.86344  -7215220.19744  21330977.2164   21330980.4154
 -12589890.60944  -9810280.35444  22865098.5174   22865101.5854
  -2066955.84144  -1610613.94244  23978882.8744   23978886.3474
 -27293033.41944 -21267282.33144  20231101.9004   20231103.8994
 96  5 18  0 51 30.0000000  0  8G26G 5G23G20G17G16G22G 6
 -11699355.89044  -9116368.17644  22737265.0394   22737267.3264
   -891326.85144   -694552.05944  25180391.3324   25180402.0054
 -14904092.58444 -11613557.48344  22167208.2604   22167211.7334
   8466495.85044   6597264.80744  23048209.5884   23048214.1304
  -9297747.20044  -7244992.91144  21323706.5764   21323709.6544
 -12499613.01044  -9739934.18844  22882277.8794   22882280.9644
  -2122286.37544  -1653728.62844  23968354.2504   23968357.6954
 -27287729.29144 -21263149.24544  20232111.3714   20232113.2174
 96  5 18  0 52  0.0000000  0  8G26G 5G23G20G17G16G22G 6
 -11755789.92744  -9160342.71044  22726526.0364   22726528.6284
   -785206.53444   -611861.18644  25200585.3884   25200595.5654
 -14983397.77844 -11675353.70044  22152116.9664   22152120.3524
   8566607.98744   6675274.21544  23067260.3514   23067264.2464
  -9335757.47344  -7274611.28944  21316473.4564   21316476.5914
 -12409097.87244  -9669402.93244  22899502.3724   22899505.2044
  -2177159.20044  -1696486.65244  23957912.2334   23957915.8584
 -27281969.78144 -21258661.32044  20233207.3434   20233209.1934
 96  5 18  0 52 30.0000000  0  8G26G 5G23G20G17G16G22G 6
 -11811859.30444  -9204033.09044  22715856.3634   22715858.7204
   -679215.07644   -529270.65544  25220755.2604   25220764.9414
 -15062351.42844 -11736875.98344  22137092.5854   22137095.9754
   8666839.34044   6753376.51744  23086333.8284   23086338.3674
  -9373581.21544  -7304084.32144  21309275.8454   21309278.9104
 -12318354.66644  -9598693.95444  22916770.2384   22916772.5704
  -2231586.59144  -1738897.58644  23947554.8604   23947558.4484
 -27275764.52144 -21253826.05344  20234388.1294   20234389.8684
 96  5 18  0 53  0.0000000  0  7G26G 5G23G20G17G16G 6
 -11867548.28944  -9247427.06944  22705259.1284   22705261.1174
   -573344.33644   -446774.26544  25240902.0754   25240908.0564
 -15140959.65444 -11798129.10244  22122133.8154   22122137.2344
   8767212.58244   6831589.37844  23105434.3054   23105438.5844
  -9411197.02844  -7333395.33644  21302117.7004   21302120.7624
 -12227372.74644  -9527798.96444  22934083.5494   22934086.5024
 -27269108.40444 -21248639.46644  20235654.7484   20235656.6064
 96  5 18  0 53 30.0000000  0  7G26G 5G23G20G17G16G 6
 -11922879.12744  -9290541.97144  22694729.8364   22694732.1874
   -467626.12444   -364396.69644  25261019.8104
 -15219247.94144 -11859132.92644  22107235.9474   22107239.5274
   8867704.82644   6909894.96244  23124557.3274   23124561.6764
  -9448631.97844  -7362565.41644  21294993.9824   21294997.0704
 -12136184.92844  -9456743.53944  22951435.9254   22951439.1414
 -27262039.78444 -21243131.45744  20236999.8494   20237001.7654
 96  5 18  0 54  0.0000000  0  8G26G 5G23G20G17G16G21G 6
 -11977819.05744  -9333352.26744  22684274.8564   22684277.2234
   -362022.36844   -282108.30844  25281115.5674
 -15297191.59444 -11919868.19244  22092403.8044   22092407.3454
   8968344.47944   6988315.41344  23143708.3804   23143713.1804
  -9485851.72044  -7391567.80144  21287911.2984   21287914.3814
 -12044766.42744  -9385508.35744  22968832.2304   22968835.0044
        -0.39254                  25596524.7344
 -27254529.89244 -21237279.59344  20238428.8624   20238430.7144
 96  5 18  0 54 30.0000000  0  8G26G 5G23G20G17G16G21G 6
 -12032358.13144  -9375850.21344  22673896.5844   22673899.3614
   -256520.68144   -199899.48344  25301192.1404
 -15374806.45544 -11980347.26344  22077634.0714   22077637.6034
   9069145.35244   7066861.48544  23162890.0464   23162894.8344
  -9522846.11744  -7420394.59244  21280871.4494   21280874.5884
 -11953106.95544  -9314085.41344  22986274.4874   22986277.5344
   -100300.70744                  25577437.8974
 -27246555.01744 -21231065.40244  20239946.4184   20239948.3314
 96  5 18  0 55  0.0000000  0  8G26G 5G23G20G17G16G21G 6
 -12086516.73744  -9418051.69744  22663590.5614   22663592.9234
   -151145.38244                  25321244.5564
 -15452106.66544 -12040581.14944  22062924.3454   22062927.8514
   9170084.07244   7145514.98244  23182098.1414   23182102.5334
  -9559644.13644  -7449068.35844  21273868.9994   21273872.1724
 -11861233.94844  -9242496.06944  23003757.3984   23003760.5014
   -200536.61344   -156260.49944  25558363.4094   25558375.0754
 -27238138.05444 -21224506.73144  20241548.0804   20241550.2074
 96  5 18  0 55 30.0000000  0  8G26G 5G23G20G17G16G21G 6
 -12140311.35644  -9459969.55844  22653353.8554   22653356.2904
    -45900.47944    -35780.35144  25341272.2154
 -15529093.11644 -12100570.54544  22048274.2574   22048277.6154
   9271129.63644   7224251.72944  23201326.5874   23201330.6184
  -9596274.03144  -7477611.12044  21266898.4934   21266901.6644
 -11769150.28544  -9170742.58044  23021280.2974   23021282.8194
   -300713.97944                  25539300.1074
 -27229283.36244 -21217606.97844  20243232.9824   20243235.0384
 96  5 18  0 56  0.0000000  0  8G26G 5G23G20G17G16G21G 6
 -12193711.68844  -9501580.17944  22643192.0054   22643194.3224
     59242.31144                  25361280.3054
 -15605741.77344 -12160296.72944  22033688.3794   22033691.6714
   9372297.18844   7303083.52944  23220578.1844   23220582.5024
  -9632716.55544  -7506007.87944  21259963.6174   21259966.7704
 -11676833.39444  -9098807.36244  23038847.6184   23038850.8114
   -400810.75144   -312317.56544  25520252.0364   25520261.4684
 -27219948.42644 -21210333.00144  20245009.4314   20245011.3954
 96  5 18  0 56 30.0000000  0  8G26G 5G23G20G17G16G21G 6
 -12246729.44744  -9542892.69244  22633102.9214   22633104.7744
    164247.78844    127970.99944  25381262.2424
 -15682063.78544 -12219768.38044  22019164.7244   22019168.3134
   9473553.72444   7381984.66944  23239846.6924   23239851.4594
  -9668995.95244  -7534277.52744  21253059.9654   21253063.1144
 -11584315.83044  -9026715.76644  23056453.1674   23056456.2454
   -500861.28244   -390278.65744  25501212.7194   25501222.3994
 -27210148.42844 -21202696.63944  20246874.2524   20246876.2834
 96  5 18  0 57  0.0000000  0  8G26G 5G23G20G17G16G21G 6
 -12299324.15744  -9583875.55244  22623094.6234   22623097.2544
    269117.14444    209687.04744  25401218.4714
 -15758021.37744 -12278956.06844  22004710.5464   22004713.9034
   9574911.07844   7460964.36944  23259134.4094   23259138.1714
  -9705084.57944  -7562398.52344  21246192.5344   21246195.6494
 -11491583.48044  -8954456.80544  23074099.5684   23074102.7974
   -600848.55144   -468190.45744  25482185.8004   25482193.4834
 -27199865.42644 -21194683.91344  20248831.1484   20248833.0644
 96  5 18  0 57 30.0000000  0  8G26G 5G23G20G17G16G21G 6
 -12351333.75444  -9624402.48144  22613197.5374   22613200.2974
    373995.59144                  25421176.4494
 -15833473.24944 -12337749.69144  21990352.5474   21990355.8584
   9676524.09544   7540143.28444  23278470.7534   23278475.7814
  -9740820.95544  -7590245.04044  21239392.1964   21239395.3484
 -11398492.47444  -8881918.37944  23091814.2774   23091817.5764
   -700610.05644                  25463201.5174
 -27188947.32444 -21186176.30844  20250908.7364   20250910.5984
 96  5 18  0 58  0.0000000  0  8G26G 5G23G20G17G16G21G 6
 -12403106.02044  -9664744.46644  22603345.4404   22603348.2334
    478537.17144                  25441070.3324
 -15908783.92244 -12396433.28844  21976021.3704   21976024.5714
   9778046.63644   7619251.69344  23297789.9574   23297795.1154
  -9776539.17144  -7618077.40144  21232595.1454   21232598.3114
 -11305398.58844  -8809377.71244  23109529.4074   23109532.6004
   -800508.25144                  25444191.0564
 -27177746.80744 -21177448.64344  20253040.1884   20253042.2604
 96  5 18  0 58 30.0000000  0  8G26G 5G23G20G17G16G21G 6
 -12454582.62444  -9704856.07244  22593549.8114   22593551.8204
    582808.53444                  25460912.8064
 -15983880.82044 -12454950.30944  21961730.8524   21961734.2744
   9879537.09644   7698335.10144  23317102.8224   23317107.8144
  -9812167.20544  -7645839.49044  21225815.3544   21225818.4834
 -11212240.27644  -8736786.83244  23127256.8414   23127259.9664
   -900484.33244   -701671.87044  25425166.0684   25425173.4214
 -27166211.16744 -21168459.83944  20255235.3254   20255237.3384
 96  5 18  0 59  0.0000000  0  8G26G 5G23G20G17G16G21G 6
 -12505543.17344  -9744565.55644  22583852.2884   22583854.5684
    687039.85144                  25480747.4904
 -16058537.74144 -12513124.48744  21947524.0094   21947527.3644
   9981227.95244   7777574.66644  23336454.1384   23336458.3174
  -9847479.16244  -7673355.28544  21219095.7024   21219098.8494
 -11118780.93244  -8663961.39944  23145041.4554   23145044.7994
  -1000299.42944   -779449.46944  25406171.5824   25406179.4724
 -27154124.40244 -21159041.58444  20257535.3734   20257537.4524
 96  5 18  0 59 30.0000000  0  8G26G 5G23G20G17G16G21G 6
 -12556051.33244  -9783922.53344  22574240.8764   22574243.9654
    791190.21944                  25500566.8674
 -16132808.52344 -12570997.78244  21933390.7424   21933394.1434
  10083064.53644   7856927.79344  23355832.8964   23355838.8524
  -9882536.11144  -7700672.37844  21212424.5784   21212427.7484
 -11025057.49844  -8590930.15144  23162876.4404   23162879.4864
  -1099999.17044   -857137.23944  25387199.0414   25387205.4974
 -27141537.91744 -21149233.94544  20259930.4994   20259932.4924
 96  5 18  1  0  0.0000000  0  8G26G 5G23G20G17G16G21G 6
 -12606148.01544  -9822958.87844  22564707.6664   22564710.3404
    895212.26844                  25520362.2494
 -16206726.27744 -12628595.98544  21919324.6924   21919328.0684
  10184999.10944   7936357.27044  23375230.4124   23375235.0814
  -9917383.17344  -7727825.92644  21205793.4354   21205796.6014
 -10931102.75044  -8517718.68044  23180755.4744   23180758.6104
  -1199621.08644   -934764.32944  25368241.2664   25368247.0244
 -27128492.70644 -21139068.84944  20262412.9334   20262414.9064
 96  5 18  1  0 30.0000000  0  7G26G23G20G17G16G21G 6
 -12655825.33244  -9861668.44644  22555254.4184   22555257.2724
 -16280275.71944 -12685907.19944  21905328.6434   21905331.9954
  10287023.79544   8015856.96344  23394645.2094   23394650.2524
  -9952030.69044  -7754823.98144  21199200.2234   21199203.3814
 -10836923.90044  -8444332.58244  23198677.2384   23198680.4514
  -1299150.32544  -1012319.20644  25349301.2824   25349308.3864
 -27114996.91444 -21128552.65444  20264981.1064   20264983.1894
 96  5 18  1  1  0.0000000  0  7G26G23G20G17G16G21G 6
 -12705158.31744  -9900109.70344  22545866.5864   22545868.5944
 -16353555.34844 -12743008.16644  21891383.9274   21891387.2644
  10389059.10844   8095364.93144  23414061.9534   23414065.5924
  -9986572.35644  -7781739.55044  21192627.1684   21192630.3334
 -10742603.57244  -8370836.23544  23216625.8014   23216628.8864
  -1398661.09044  -1089859.70544  25330364.6064   25330376.2724
 -27101131.76544 -21117748.65444  20267619.6004   20267621.6184
 96  5 18  1  1 30.0000000  0  7G26G23G20G17G16G21G 6
 -12753980.79644  -9938153.15744  22536575.9664   22536578.1134
 -16426406.05344 -12799774.90544  21877520.8694   21877524.3564
  10491259.80844   8175001.76944  23433510.1214   23433515.0044
 -10020856.84344  -7808454.71944  21186103.1294   21186106.2094
 -10648002.84144  -8297121.40344  23234627.6904   23234630.7104
  -1498002.34744                  25311460.4924
 -27086728.25044 -21106525.14344  20270360.3964   20270362.4164
 96  5 18  1  2  0.0000000  0  8G26G22G23G20G17G16G21G 6
 -12802378.18444  -9975865.37744  22527366.1844   22527368.5344
        -1.00354        -0.75754  23767438.5324   23767441.4464
 -16498924.52244 -12856282.76744  21863720.9714   21863724.3594
  10593527.71844   8254690.97644  23452971.0444   23452975.5294
 -10054973.07344  -7835038.78244  21179610.8914   21179614.0144
 -10553246.11444  -8223285.01444  23252659.3384   23252662.5894
  -1597282.60444  -1244629.01644  25292567.8464   25292575.1354
 -27071872.51944 -21094949.25644  20273187.4104   20273189.4244
 96  5 18  1  2 30.0000000  0  7G26G23G20G17G16G21G 6
 -12850360.15044 -10013253.89144  22518235.4604   22518237.9224
 -16571115.91644 -12912535.76444  21849983.4064   21849986.7454
  10695854.21344   8334425.83444  23472443.1814   23472448.0414
 -10088934.81444  -7861502.46644  21173148.1574   21173151.2384
 -10458358.81344  -8149346.87644  23270715.8514   23270718.9284
  -1696517.49944  -1321954.57344  25273683.7554   25273690.2664
 -27056561.15244 -21083018.33244  20276101.1194   20276103.1004
 96  5 18  1  3  0.0000000  0  7G26G23G20G17G16G21G 6
 -12897883.93244 -10050285.36844  22509192.1434   22509194.3744
 -16642946.72544 -12968507.78744  21836314.5174   21836317.7814
  10798289.04744   8414245.12144  23491935.9734   23491941.9064
 -10122697.83944  -7887811.30744  21166723.2874   21166726.3464
 -10363301.90644  -8075276.57544  23288804.6744   23288807.8474
  -1795667.95744  -1399214.33344  25254816.0434   25254822.1744
 -27040745.86244 -21070694.74344  20279110.7344   20279112.6854
 96  5 18  1  3 30.0000000  0  8G26G28G23G20G17G16G21G 6
 -12944905.25444 -10086925.32944  22500244.2974   22500246.6814
         0.49414        -0.20914  25341826.414    25341822.822
 -16714361.27044 -13024155.45444  21822724.7674   21822728.2814
  10900865.50344   8494174.75944  23511455.6814   23511462.4904
 -10156209.67244  -7913924.41544  21160346.2334   21160349.3594
 -10268037.38644  -8001044.50244  23306932.9794   23306935.4574
  -1894686.31744  -1476371.14544  25235973.4324   25235981.1494
 -27024385.29944 -21057946.26544  20282223.9514   20282226.0024
 96  5 18  1  4  0.0000000  0  7G26G23G20G17G16G21G 6
 -12991713.74844 -10123399.45044  22491336.8504   22491339.2004
 -16785642.37144 -13079699.13744  21809160.3994   21809163.6834
  11003291.35544   8573987.01644  23530946.7494   23530951.2644
 -10189751.63644  -7940061.00044  21153963.3334   21153966.4614
 -10172847.87844  -7926870.87944  23325046.9384   23325050.0194
  -1993855.63044  -1553645.64444  25217101.6764   25217108.8264
 -27007774.56344 -21045002.84644  20285384.9424   20285386.9524
 96  5 18  1  4 30.0000000  0  8G26G28G23G20G17G16G21G 6
 -13037938.03244 -10159418.33644  22482540.5054   22482542.9934
        -0.62214        -0.83714  25302621.611    25302617.968
 -16856410.84144 -13134843.36744  21795693.5054   21795696.8544
  11105942.82444   8653975.10144  23550480.7024   23550485.3244
 -10222952.98744  -7965932.16944  21147645.3554   21147648.4164
 -10077345.62744  -7852453.56544  23343220.4064   23343223.5984
  -2092788.95044  -1630736.26644  25198274.9414   25198281.7984
 -26990555.93544 -21031585.74344  20288661.5474   20288663.5224
 96  5 18  1  5  0.0000000  0  8G26G28G23G20G17G16G21G 6
 -13083627.86044 -10195020.77044  22473846.1254   22473848.0904
   -102914.839 4    -80193.703 4  25283037.749    25283033.953
 -16926723.01444 -13189632.04244  21782313.5024   21782316.8354
  11208758.55944   8734091.17844  23570046.0414   23570050.1294
 -10255858.64444  -7991572.93044  21141383.5834   21141386.6624
  -9981577.14344  -7777828.79344  23361444.5244   23361447.1524
  -2191533.96544  -1707680.13044  25179484.2474   25179490.1734
 -26972790.72044 -21017742.72744  20292042.1534   20292044.1944
 96  5 18  1  5 30.0000000  0  8G26G28G23G20G17G16G21G 6
 -13128896.08844 -10230294.67744  22465231.9074   22465233.8214
   -205889.698 4   -160433.806 4  25263442.143    25263438.416
 -16996671.97044 -13244137.68844  21769002.6984   21769005.9914
  11311614.76344   8814238.79444  23589619.0064   23589624.1364
 -10288588.18144  -8017076.44944  21135155.4314   21135158.5234
  -9885650.57944  -7703080.84844  23379698.7224   23379701.9384
  -2290199.07744  -1784561.76044  25160708.7384   25160716.4254
 -26954574.22744 -21003548.06544  20295508.6564   20295510.6654
 96  5 18  1  6  0.0000000  0  8G26G28G23G20G17G16G21G 6
 -13173765.51644 -10265257.84544  22456693.4874   22456695.8024
   -308941.805 4   -240734.105 4  25243831.906    25243828.202
 -17066286.36944 -13298382.64244  21755755.5594   21755758.7684
  11414497.40144   8894407.01044  23609197.0254   23609201.6194
 -10321169.49744  -8042464.47344  21128955.4274   21128958.5484
  -9789583.29544  -7628223.24544  23397979.7544   23397982.4354
  -2388809.37944  -1861400.67544  25141943.6084   25141952.7924
 -26935921.44344 -20989013.43844  20299058.1274   20299060.1824
 96  5 18  1  6 30.0000000  0  8G26G28G23G20G17G16G21G 6
 -13218207.88044 -10299888.23244  22448236.2054   22448238.1594
   -412045.361 4   -321074.498 4  25224211.911    25224208.284
 -17135548.26544 -13352352.91944  21742575.5274   21742578.7294
  11517422.26044   8974608.11144  23628782.9674   23628787.8794
 -10353578.42444  -8067718.17144  21122788.1804   21122791.2424
  -9693352.12644  -7553237.93044  23416291.9374   23416294.6004
  -2487338.59844  -1938176.43644  25123193.9864   25123202.9224
 -26916800.02744 -20974113.64044  20302696.9034   20302698.9034
 96  5 18  1  7  0.0000000  0  8G26G28G23G20G17G16G21G 6
 -13262198.99744 -10334166.99744  22439865.1944   22439867.6664
   -515180.990 4   -401439.882 4  25204585.714    25204582.279
 -17204432.88744 -13406029.21644  21729467.1214   21729470.2994
  11620400.41344   9054850.73344  23648379.0594   23648384.8864
 -10385793.96344  -8092821.17444  21116657.7344   21116660.8664
  -9596942.50044  -7478113.56444  23434637.9724   23434641.1124
  -2585761.32344  -2014869.19044  25104464.4824   25104471.7194
 -26897173.71544 -20958820.41644  20306431.6864   20306433.6764
 96  5 18  1  7 30.0000000  0  8G26G28G23G20G17G16G21G 6
 -13305740.00444 -10368095.02644  22431579.5934   22431581.6234
   -618357.218 4   -481836.908 4  25184951.961    25184948.396
 -17272954.96944 -13459423.01144  21716427.7064   21716430.9034
  11723435.24144   9135137.53144  23667986.0094   23667989.3444
 -10417824.29744  -8117779.86444  21110562.5624   21110565.6444
  -9500371.67844  -7402863.59544  23453014.8544   23453018.2244
  -2684086.44844  -2091485.93444  25085753.6584   25085762.0974
 -26877054.88744 -20943143.41844  20310260.1924   20310262.1584
 96  5 18  1  8  0.0000000  0  8G26G28G23G20G17G16G21G 6
 -13348795.94444 -10401645.07944  22423386.2504   22423387.9764
   -721546.203 4   -562243.846 4  25165315.619    25165312.168
 -17341107.63344 -13512528.94644  21703458.7434   21703461.9464
  11826560.96244   9215495.17044  23687610.2254   23687615.4114
 -10449631.31144  -8142564.53744  21104509.7684   21104512.8834
  -9403628.12144  -7327479.03144  23471424.5794   23471427.9314
  -2782286.95944  -2168005.56744  25067066.4334   25067076.1144
 -26856430.52944 -20927072.50044  20314184.8674   20314186.9024
 96  5 18  1  8 30.0000000  0  8G26G28G23G20G17G16G21G 6
 -13391363.60644 -10434814.65744  22415285.9214   22415287.8654
   -824750.284 4   -642662.537 4  25145676.483    25145673.028
 -17408886.28144 -13565343.44144  21690560.7834   21690564.0804
  11929756.04244   9295906.83944  23707247.7284   23707252.1994
 -10481217.57344  -8167177.19644  21098499.2194   21098502.4044
  -9306724.95744  -7251970.09244  23489864.6324   23489867.9804
  -2880360.19344  -2244426.00444  25048403.5744   25048411.4674
 -26835306.84544 -20910612.49644  20318204.6064   20318206.5954
 96  5 18  1  9  0.0000000  0  8G26G28G23G20G17G16G21G 6
 -13433475.30144 -10467628.93944  22407272.2664   22407274.6884
   -928002.673 4   -723118.866 4  25126028.103    25126024.610
 -17476317.56844 -13617887.26544  21677728.9944   21677732.1654
  12032989.70644   9376348.56744  23726892.6134   23726897.9034
 -10512618.30844  -8191645.28744  21092523.8054   21092526.9604
  -9209686.65944  -7176355.85344  23508330.3974   23508333.3374
  -2978329.91644  -2320765.82844  25029760.3994   25029764.9604
 -26813720.46644 -20893791.94844  20322312.4144   20322314.3514
 96  5 18  1  9 30.0000000  0  8G26G28G23G20G17G16G21G 6
 -13475099.52844 -10500063.37344  22399351.4254   22399353.7484
  -1031279.075 4   -803593.913 4  25106375.269    25106371.804
 -17543377.13444 -13670141.43544  21664968.0154   21664971.2914
  12136287.57744   9456840.32344  23746549.5414   23746554.3854
 -10543817.43444  -8215956.28244  21086586.8234   21086589.9554
  -9112489.70344  -7100617.99344  23526826.3824   23526829.6284
  -3076176.92444  -2397009.98844  25011140.3774   25011151.5474
 -26791655.79944 -20876598.70944  20326511.1534   20326513.1734
 96  5 18  1 10  0.0000000  0  8G26G28G23G20G17G16G21G 6
 -13516264.97444 -10532140.31244  22391517.9004   22391519.8994
  -1134607.867 4   -884109.791 4  25086712.420    25086708.941
 -17610073.20644 -13722112.36544  21652276.0714   21652279.4074
  12239599.82444   9537343.28544  23766209.3294   23766214.1164
 -10574847.58944  -8240135.61144  21080682.0074   21080685.1704
  -9015159.61244  -7024776.37744  23545347.7884   23545350.8854
  -3173930.68644  -2473181.48044  24992538.2124   24992547.8924
 -26769128.51544 -20859044.99144  20330797.9494   20330799.9934
 96  5 18  1 10 30.0000000  0  8G26G28G23G20G17G16G21G 6
 -13556965.53244 -10563855.00044  22383772.7704   22383775.1384
  -1237985.573 4   -964663.785 4  25067040.249    25067036.769
 -17676385.71544 -13773784.41344  21639657.2184   21639660.4284
  12342918.76244   9617851.44444  23785870.2274   23785876.6294
 -10605708.82144  -8264183.31544  21074809.2314   21074812.3364
  -8917683.91244  -6948821.32244  23563896.7104   23563900.0374
  -3271579.82244  -2549271.49844  24973956.0864   24973964.5264
 -26746139.72844 -20841131.65644  20335172.5564   20335174.6084
 96  5 18  1 11  0.0000000  0  8G26G28G23G20G17G16G21G 6
 -13597176.87544 -10595188.48844  22376120.7994   22376122.8794
  -1341400.257 4  -1045246.592 4  25047361.058    25047357.654
 -17742298.94344 -13825145.33544  21627114.3024   21627117.5324
  12446270.12344   9698384.89544  23805537.5104   23805543.2814
 -10636382.26544  -8288084.68644  21068972.3374   21068975.3794
  -8820051.14344  -6872743.85544  23582475.7524   23582478.9464
  -3369119.23644  -2625275.97644  24955394.5374   24955402.7284
 -26722675.51544 -20822847.85944  20339637.6654   20339639.7214
 96  5 18  1 11 30.0000000  0  8G26G28G23G20G17G16G21G 6
 -13636896.45944 -10626138.77944  22368562.3174   22368564.5524
  -1444852.902 4  -1125858.983 4  25027674.602    25027671.312
 -17807817.10744 -13876198.41744  21614646.5974   21614649.9314
  12549644.50344   9778936.27244  23825209.0594   23825214.0154
 -10666868.51044  -8311840.19044  21063170.9714   21063174.0504
  -8722278.47644  -6796557.38644  23601081.2294   23601083.1324
  -3466574.73044  -2701215.04244  24936849.2534   24936858.1894
 -26698737.07944 -20804194.54044  20344193.0414   20344194.8964
 96  5 18  1 12  0.0000000  0  8G26G28G23G20G17G16G21G 6
 -13676120.22544 -10656702.72344  22361098.3744   22361100.2594
  -1548332.657 4  -1206492.497 4  25007983.042    25007979.707
 -17872942.54244 -13926945.47544  21602253.6034   21602256.9534
  12653035.79944   9859500.82844  23844883.7984   23844889.4954
 -10697150.98244  -8335436.90844  21057408.3984   21057411.4824
  -8624364.28844  -6720260.64744  23619713.6744   23619716.6584
  -3563936.45644  -2777081.06144  24918321.9704   24918328.7074
 -26674314.87044 -20785164.25244  20348840.4494   20348842.4354
 96  5 18  1 12 30.0000000  0  8G26G28G23G20G17G16G21G 6
 -13714857.75544 -10686887.78744  22353726.9044   22353728.6694
  -1651844.874 4  -1287151.312 4  24988285.296    24988281.971
 -17937700.76244 -13977406.39544  21589930.4844   21589933.7864
  12756429.00544   9940066.86144  23864558.9894   23864564.7754
 -10727239.88244  -8358882.79144  21051682.6734   21051685.7774
  -8526322.32944  -6643864.32944  23638370.5914   23638374.1634
  -3661207.68544  -2852876.60044  24899811.6324   24899817.6034
 -26649427.29744 -20765771.34844  20353576.3684   20353578.3154
 96  5 18  1 13  0.0000000  0  8G26G28G23G20G17G16G21G 6
 -13753113.30444 -10716697.28444  22346446.9954   22346449.4664
  -1755385.499 4  -1367832.263 4  24968582.150    24968578.839
 -18002098.08444 -14027586.09544  21577676.0104   21577679.2214
  12859825.96744  10020635.85144  23884234.7894   23884240.2764
 -10757134.81544  -8382177.52944  21045993.8794   21045996.8754
  -8428163.27844  -6567376.77944  23657049.6954   23657052.7294
  -3758393.54344  -2928605.60244  24881317.7294   24881323.7184
 -26624056.03444 -20746001.54144  20358404.3774   20358406.3514
 96  5 18  1 13 30.0000000  0  8G26G28G23G20G17G16G21G 6
 -13790906.94744 -10746146.84944  22339255.1804   22339256.7554
  -1858952.529 4  -1448533.792 4  24948873.881    24948870.607
 -18066137.56944 -14077486.95844  21565489.7004   21565493.0054
  12963215.62744  10101199.12644  23903909.3374   23903914.8514
 -10786848.96244  -8405331.40044  21040339.4754   21040342.4584
  -8329895.97744  -6490804.87744  23675749.3224   23675752.1374
  -3855483.93944  -3004260.18344  24862841.9014   24862848.1064
 -26598203.43544 -20725856.66544  20363323.8744   20363325.8224
 96  5 18  1 14  0.0000000  0  8G26G28G23G20G17G16G21G 6
 -13828215.37444 -10775218.32144  22332155.6374   22332157.7464
  -1962519.407 4  -1529235.214 4  24929165.692    24929162.474
 -18129793.23644 -14127088.74544  21553376.3714   21553379.6674
  13066630.25244  10181781.86144  23923588.4414   23923594.0004
 -10816368.89444  -8428333.93344  21034722.0614   21034724.8954
  -8231503.58544  -6414135.50344  23694472.7824   23694476.3224
  -3952423.24144  -3079797.11244  24844394.7304   24844402.0484
 -26571838.50244 -20705312.57544  20368340.9934   20368342.9384
 96  5 18  1 14 30.0000000  0  8G26G28G23G20G17G16G21G 6
 -13865049.91344 -10803920.52844  22325146.2954   22325148.2754
  -2066101.696 4  -1609948.643 4  24909454.648    24909451.415
 -18193073.19344 -14176397.76544  21541334.5954   21541337.8214
  13170066.61844  10262381.51944  23943271.8314   23943277.7894
 -10845714.88844  -8451200.93244  21029137.6764   21029140.7134
  -8133008.11744  -6337385.81144  23713215.8474   23713219.5364
  -4049229.53844  -3155230.36644  24825972.9574   24825979.5514
 -26544977.24744 -20684381.73944  20373452.4784   20373454.4764
 96  5 18  1 15  0.0000000  0  8G26G28G23G20G17G16G21G 6
 -13901388.94144 -10832236.62444  22318231.2074   22318232.9544
  -2169681.142 4  -1690659.857 4  24889744.029    24889740.855
 -18255950.03944 -14225392.67344  21529369.6084   21529372.9314
  13273550.61244  10343018.28144  23962964.2934   23962970.7054
 -10874865.98944  -8473916.06644  21023590.4044   21023593.4564
  -8034390.57744  -6260540.98544  23731982.2064   23731984.6114
  -4145890.09944  -3230550.06544  24807578.9874   24807584.0104
 -26517600.08444 -20663048.89444  20378662.2734   20378664.1944
 96  5 18  1 15 30.0000000  0  8G26G28G23G20G17G16G21G 6
 -13937204.86744 -10860145.11644  22311415.6644   22311417.8404
  -2273245.421 4  -1771359.256 4  24870036.415    24870033.210
 -18318410.31744 -14274062.98444  21517483.8024   21517486.9924
  13377089.09544  10423697.50544  23982666.9734   23982673.4854
 -10903809.67344  -8496469.57544  21018082.5604   21018085.5314
  -7935620.18644  -6183577.07644  23750777.5424   23750781.8254
  -4242390.39544  -3305744.91544  24789215.2684   24789222.3144
 -26489703.57944 -20641311.36744  20383970.7704   20383972.7364
 96  5 18  1 16  0.0000000  0  8G26G28G23G20G17G16G21G 6
 -13972520.46544 -10887663.73444  22304695.2864   22304697.3874
  -2376827.148 4  -1852072.256 4  24850325.362    24850322.330
 -18380491.72244 -14322438.06744  21505670.1014   21505673.2774
  13480640.43544  10504386.76344  24002372.2494   24002378.8274
 -10932565.58544  -8518876.76544  21012610.4874   21012613.5024
  -7836719.69444  -6106511.78444  23769597.8014   23769601.1244
  -4338771.22844  -3380846.66944  24770874.4774   24770881.6164
 -26461328.47344 -20619200.90444  20389370.3684   20389372.3384
 96  5 18  1 16 30.0000000  0  8G26G28G23G20G17G16G21G 6
 -14007345.13944 -10914799.82344  22298068.3024   22298070.3744
  -2480432.009 4  -1932803.284 4  24830609.993    24830606.969
 -18442195.37644 -14370518.79744  21493928.2754   21493931.4424
  13584179.11144  10585066.13944  24022075.1184   24022081.2494
 -10961125.91844  -8541131.55844  21007175.6694   21007178.6024
  -7737677.82944  -6029336.32244  23788444.8164   23788448.0224
  -4435058.28944  -3455875.36244  24752551.6674   24752556.5274
 -26432490.40744 -20596729.69844  20394858.1984   20394860.1024
 96  5 18  1 17  0.0000000  0  8G26G28G23G20G17G16G21G 6
 -14041680.99744 -10941555.00944  22291534.4154   22291536.1424
  -2584056.064 4  -2013549.271 4  24810890.950    24810887.980
 -18503514.08044 -14418299.57044  21482259.6724   21482262.8174
  13687696.55644  10665728.96844  24041774.0624   24041779.4734
 -10989486.41544  -8563230.63344  21001778.7084   21001781.6624
  -7638487.30244  -5952045.02144  23807320.1214   23807323.5304
  -4531235.41344  -3530818.42044  24734249.6674   24734256.7124
 -26403190.27244 -20573898.43944  20400433.7944   20400435.8684
 96  5 18  1 17 30.0000000  0  8G26G28G23G20G17G16G21G 6
 -14075532.24344 -10967932.57544  22285092.5874   22285094.5914
  -2687699.685 4  -2094310.505 4  24791168.201    24791165.246
 -18564452.15044 -14465783.74344  21470663.5844   21470666.7434
  13791194.38344  10746376.51844  24061469.0444   24061476.5294
 -11017660.39444  -8585184.37544  20996417.4784   20996420.4164
  -7539166.49444  -5874652.21544  23826220.1924   23826222.9854
  -4627291.00544  -3605666.75244  24715970.8494   24715977.5754
 -26373444.34444 -20550719.81344  20406094.3014   20406096.3244
 96  5 18  1 18  0.0000000  0  8G26G28G23G20G17G16G21G 6
 -14108919.58444 -10993948.67044  22278739.1694   22278741.2284
  -2791376.879 4  -2175097.890 4  24771439.040    24771436.099
 -18625022.36744 -14512981.27944  21459137.3454   21459140.4564
  13894654.05144  10826994.30544  24081156.6524   24081162.8904
 -11045665.02744  -8607006.16444  20991088.2854   20991091.3364
  -7439765.27944  -5797196.74644  23845135.7984   23845139.3574
  -4723233.38144  -3680426.88344  24697713.4334   24697723.6104
 -26343275.56944 -20527211.69444  20411835.2304   20411837.3014
 96  5 18  1 18 30.0000000  0  8G26G23G28G20G17G16G21G 6
 -14141811.31844 -11019578.57144  22272480.1154   22272481.9344
 -18685189.47544 -14559864.70444  21447687.8414   21447691.0104
  -2895052.747 4  -2255884.246 4  24751710.116    24751707.206
  13998114.84444  10907613.00544  24100844.8044   24100851.4824
 -11073473.80944  -8628675.34044  20985796.5124   20985799.5424
  -7340268.85844  -5719667.09344  23864069.2904   23864072.7184
  -4819018.36044  -3755064.36144  24679486.1554   24679490.7624
 -26312647.12844 -20503345.38644  20417663.5854   20417665.6034
 96  5 18  1 19  0.0000000  0  8G26G23G28G20G17G16G21G 6
 -14174202.38744 -11044818.33944  22266316.3114   22266318.3064
 -18744971.57144 -14606448.12244  21436311.6644   21436314.8244
  -2998725.812 4  -2336668.410 4  24731981.722    24731978.838
  14101579.28444  10988234.51044  24120533.6054   24120536.7674
 -11101095.71644  -8650198.89144  20980540.2184   20980543.1994
  -7240697.49444  -5642079.03344  23883017.0704   23883021.1124
  -4914636.82344  -3829572.10444  24661290.3934   24661294.9834
 -26281554.59144 -20479117.44444  20423580.3514   20423582.3414
 96  5 18  1 19 30.0000000  0  8G26G23G28G20G17G16G21G 6
 -14206090.55944 -11069666.24544  22260248.0484   22260249.9544
 -18804386.43144 -14652745.38344  21425005.3864   21425008.5774
  -3102404.699 4  -2417457.109 4  24712252.224    24712249.402
  14205027.49044  11068843.38744  24140219.3164   24140225.3634
 -11128547.09444  -8671589.56544  20975316.4084   20975319.3504
  -7141068.26244  -5564445.90044  23901975.9124   23901978.7504
  -5010122.32744  -3903976.22244  24643119.9844   24643124.0354
 -26249999.13144 -20454528.78844  20429585.1064   20429587.1514
 96  5 18  1 20  0.0000000  0  8G26G23G28G20G17G16G21G 6
 -14237448.00144 -11094100.58944  22254280.9784   22254283.0924
 -18863415.14944 -14698741.75444  21413772.5644   21413775.7424
  -3206065.026 4  -2498231.345 4  24692526.244    24692523.398
  14308459.12944  11149439.33944  24159901.8584   24159907.1454
 -11155794.24244  -8692821.09444  20970131.3664   20970134.4384
  -7041339.13044  -5486734.92144  23920953.7534   23920957.0574
  -5105472.46244  -3978274.88744  24624975.3324   24624981.1854
 -26217932.08244 -20429541.49744  20435687.3604   20435689.2714
 96  5 18  1 20 30.0000000  0  8G26G23G28G20G17G16G21G 6
 -14268284.44544 -11118128.96744  22248413.0004   22248415.3644
 -18922079.53244 -14744454.23044  21402609.0784   21402612.2624
  -3309723.928 4  -2579004.471 4  24672800.547    24672797.741
  14411850.12044  11230003.63444  24179576.4804   24179582.5514
 -11182860.30744  -8713911.52044  20964980.8984   20964983.9284
  -6941506.80144  -5408943.51244  23939951.2864   23939954.2284
  -5200714.14944  -4052489.04544  24606851.2414   24606855.6654
 -26185357.91644 -20404159.04244  20441885.9634   20441887.9044
 96  5 18  1 21  0.0000000  0  8G26G23G28G20G17G16G21G 6
 -14298591.24744 -11141744.63644  22242645.7404   22242647.6814
 -18980377.88844 -14789881.48844  21391515.3184   21391518.5074
  -3413388.540 4  -2659782.050 4  24653073.748    24653070.954
  14515183.59544  11310523.08744  24199240.3634   24199245.7234
 -11209760.35144  -8734872.58544  20959861.9154   20959864.8884
  -6841575.34044  -5331074.87144  23958967.6664   23958970.5494
  -5295866.75544  -4126633.76944  24588744.0864   24588749.1904
 -26152279.05144 -20378383.31744  20448180.6444   20448182.5844
 96  5 18  1 21 30.0000000  0  8G26G23G28G20G17G16G21G 6
 -14328339.38844 -11164924.98144  22236984.8544   22236987.0474
 -19038260.08444 -14834984.46944  21380500.7294   21380503.8644
  -3517030.028 4  -2740541.610 4  24633351.396    24633348.599
  14618484.66844  11391017.30844  24218897.8124   24218903.6714
 -11236456.54044  -8755674.79844  20954781.8424   20954784.9074
  -6741513.67244  -5253104.76544  23978008.7294   23978010.9404
  -5390907.15144  -4200691.08944  24570658.3964   24570665.8334
 -26118670.39144 -20352194.76444  20454576.1744   20454578.1864
 96  5 18  1 22  0.0000000  0  8G26G23G28G20G17G16G21G 6
 -14357560.40344 -11187694.58644  22231424.0894   22231426.4034
 -19095740.79644 -14879774.60744  21369562.4254   21369565.5034
  -3620661.901 4  -2821293.677 4  24613630.850    24613628.070
  14721748.44844  11471482.43144  24238548.4364   24238553.0254
 -11262950.49144  -8776319.42644  20949740.1974   20949743.1994
  -6641338.06044  -5175045.87344  23997071.5004   23997074.6374
  -5485825.75444  -4274653.50444  24552596.0014   24552603.1554
 -26084548.28844 -20325606.12344  20461069.3994   20461071.4464
 96  5 18  1 22 30.0000000  0  8G26G23G28G20G17G16G21G 6
 -14386259.38744 -11210057.40444  22225963.0484   22225965.4084
 -19152798.90044 -14924235.44144  21358704.6444   21358707.8064
  -3724275.524 4  -2902031.525 4  24593913.833    24593910.974
  14824990.67944  11551930.78844  24258194.8604   24258202.0224
 -11289231.08444  -8796797.80044  20944739.1974   20944742.1924
  -6541064.14744  -5096910.38044  24016153.0764   24016156.9784
  -5580596.32744  -4348500.54844  24534561.5154   24534564.8904
 -26049911.97144 -20298616.79644  20467660.5844   20467662.6114
 96  5 18  1 23  0.0000000  0  8G26G23G28G20G17G16G21G 6
 -14414461.38344 -11232032.96144  22220596.3834   22220598.2054
 -19209441.94844 -14968372.85544  21347925.6974   21347928.8594
  -3827877.289 4  -2982760.128 4  24574199.084    24574196.147
  14928199.68644  11632353.23944  24277835.0514   24277842.5454
 -11315298.20644  -8817109.82844  20939778.7764   20939781.7684
  -6440706.49844  -5018709.65944  24035250.4274   24035253.6314
  -5675220.85944  -4422233.83744  24516554.9544   24516557.9854
 -26014778.11844 -20271239.77744  20474346.3184   20474348.3294
 96  5 18  1 23 30.0000000  0  8G26G23G28G20G17G16G21G 6
 -14442170.94544 -11253624.80444  22215323.4384   22215325.4894
 -19265675.77744 -15012191.39744  21337224.7534   21337227.9244
  -3931457.388 4  -3063471.851 4  24554488.397    24554485.446
  15031382.82744  11712755.54844  24297470.2154   24297476.7674
 -11341147.48244  -8837252.11044  20934859.7964   20934862.8174
  -6340263.57044  -4940442.44844  24054364.1704   24054367.3654
  -5769678.10544  -4495836.75244  24498580.1344   24498584.3214
 -25979148.89044 -20243476.75344  20481126.3764   20481128.3724
 96  5 18  1 24  0.0000000  0  8G26G23G28G20G17G16G21G 6
 -14469383.95044 -11274829.72044  22210144.8684   22210146.8234
 -19321516.31044 -15055703.47844  21326598.6704   21326601.8304
  -4035020.684 4  -3144170.480 4  24534780.922    24534777.948
  15134530.01144  11793129.83444  24317098.4784   24317104.1524
 -11366810.68944  -8857249.40744  20929976.2704   20929979.2954
  -6239743.85244  -4862115.43244  24073492.3274   24073496.0004
  -5863960.29244  -4569303.26244  24480638.5964   24480644.6654
 -25943034.29044 -20215335.52244  20487998.7144   20488000.6704
 96  5 18  1 24 30.0000000  0  8G26G23G28G20G17G16G21G 6
 -14496066.04944 -11295620.94244  22205067.5154   22205069.2914
 -19376948.26344 -15098897.18244  21316050.2584   21316053.4144
  -4138552.978 4  -3224844.954 4  24515079.371    24515076.321
  15237635.26644  11873471.46944  24336718.9734   24336725.3464
 -11392292.16444  -8877105.09044  20925127.2494   20925130.2874
  -6139141.89444  -4783724.32044  24092636.1614   24092640.4264
  -5958061.44644  -4642628.70844  24462731.7394   24462739.0454
 -25906435.22844 -20186816.78844  20494963.2504   20494965.1824
 96  5 18  1 25  0.0000000  0  8G26G23G28G20G17G16G21G 6
 -14522207.47344 -11315990.86544  22200092.7524   22200094.8264
 -19432009.20644 -15141801.78944  21305572.4614   21305575.6314
  -4242069.241 4  -3305506.936 4  24495380.828    24495377.851
  15340677.02344  11953763.60344  24356327.1234   24356335.5624
 -11417617.66844  -8896839.24044  20920308.0094   20920310.8294
  -6038466.43644  -4705275.93744  24111794.1464   24111797.3584
  -6052006.82144  -4715832.78144  24444854.5314   24444859.7664
 -25869381.43144 -20157943.71344  20502014.4014   20502016.4184
 96  5 18  1 25 30.0000000  0  8G26G23G28G20G17G16G21G 6
 -14547796.50344 -11335930.38144  22195223.3774   22195225.6264
 -19486689.01644 -15184409.40944  21295167.3174   21295170.4954
  -4345563.181 4  -3386151.521 4  24475686.573    24475683.557
  15443660.24044  12034010.11844  24375924.3904   24375928.8824
 -11442787.99944  -8916452.47744  20915518.1944   20915521.0914
  -5937724.70644  -4626775.90644  24130964.7314   24130967.2834
  -6145795.88044  -4788915.03344  24427006.8994   24427011.5164
 -25831867.60844 -20128712.17744  20509153.0444   20509155.0334
 96  5 18  1 26  0.0000000  0  8G26G23G28G20G17G16G21G 6
 -14572851.91844 -11355453.96444  22190455.4904   22190457.4454
 -19540993.99444 -15226724.95244  21284833.4104   21284836.5214
  -4449049.492 4  -3466790.165 4  24455993.734    24455990.788
  15546569.55344  12114199.03244  24395507.4364   24395514.7364
 -11467797.02844  -8935940.02644  20910759.1264   20910761.9664
  -5836935.33144  -4548238.76744  24150144.3264   24150147.6554
  -6239458.25244  -4861898.56744  24409183.4074   24409191.1434
 -25793898.35044 -20099125.75844  20516378.3664   20516380.3494
 96  5 18  1 26 30.0000000  0  8G26G23G28G20G17G16G21G 6
 -14597364.12444 -11374554.38844  22185790.9944   22185792.7954
 -19594904.96744 -15268733.47944  21274574.4174   21274577.5194
  -4552501.724 4  -3547402.253 4  24436307.423    24436304.454
  15649434.02944  12194353.01844  24415082.1834   24415089.8354
 -11492599.18644  -8955266.37544  20906039.4634   20906042.3864
  -5736080.86444  -4469650.91144  24169336.2794   24169339.6274
  -6332989.68344  -4934780.07744  24391385.0314   24391390.2554
 -25755445.59344 -20069162.58444  20523695.7004   20523697.6934
 96  5 18  1 27  0.0000000  0  8G26G23G28G20G17G16G21G 6
 -14621359.54944 -11393252.10444  22181224.9184   22181226.6134
 -19648425.80844 -15310438.00744  21264389.7624   21264392.8574
  -4655928.411 4  -3627994.433 4  24416625.940    24416622.988
  15752255.34444  12274473.37744  24434648.5774   24434654.8454
 -11517195.11844  -8974432.03144  20901359.0274   20901361.9044
  -5635162.54944  -4391013.28144  24188540.3714   24188543.7744
  -6426406.91544  -5007572.60544  24373608.1234   24373614.9654
 -25716512.12744 -20038824.83744  20531104.4784   20531106.5454
 96  5 18  1 27 30.0000000  0  8G26G23G28G20G17G16G21G 6
 -14644873.66044 -11411574.76844  22176750.2244   22176752.2494
 -19701553.32144 -15351836.04544  21254279.9804   21254283.1164
  -4759341.155 4  -3708575.745 4  24396947.127    24396944.137
  15855020.37244  12354549.86744  24454204.2594   24454209.5884
 -11541598.79644  -8993447.87544  20896715.1404   20896717.9844
  -5534195.97344  -4312338.05444  24207753.8474   24207757.7284
  -6519717.43244  -5080281.96844  24355851.5464   24355856.1784
 -25677107.22744 -20008119.73744  20538603.0344   20538604.9914
 96  5 18  1 28  0.0000000  0  8G26G23G28G20G17G16G21G 6
 -14667865.09844 -11429490.15244  22172374.9924   22172377.1414
 -19754256.76444 -15392903.63644  21244250.7954   21244253.9104
  -4862706.510 4  -3789120.133 4  24377277.322    24377274.335
  15957756.88644  12434604.14244  24473754.6434   24473761.9374
 -11565784.81644  -9012294.11844  20892112.6304   20892115.5844
  -5433137.55044  -4233591.26044  24226984.4494   24226987.6384
  -6612881.08244  -5152876.89944  24338123.0164   24338128.0254
 -25637203.47644 -19977025.92244  20546196.4934   20546198.5314
 96  5 18  1 28 30.0000000  0  8G26G23G28G20G17G16G21G 6
 -14690325.15144 -11446991.47044  22168100.9884   22168102.5764
 -19806543.84344 -15433646.78944  21234300.8634   21234303.9614
  -4966027.528 4  -3869629.968 4  24357615.923    24357612.966
  16060445.27944  12514620.90744  24493295.6664   24493303.2114
 -11589779.69944  -9030991.42644  20887546.5744   20887549.4694
  -5331988.54044  -4154773.87944  24246232.4424   24246235.4754
  -6705890.06244  -5225351.33044  24320423.9514   24320428.9514
 -25596819.32844 -19945557.76844  20553881.2144   20553883.2154
 96  5 18  1 29  0.0000000  0  8G26G23G28G20G17G16G21G 6
 -14712196.50644 -11464034.06744  22163938.9704   22163941.0074
 -19858358.18744 -15474021.57844  21224440.9304   21224443.9964
  -5069262.404 4  -3950072.677 4  24337970.958    24337967.931
  16163117.17944  12594624.84944  24512833.4364   24512840.6404
 -11613554.15744  -9049516.97144  20883022.5514   20883025.4334
  -5230715.16944  -4075859.57744  24265504.2584   24265506.9434
  -6798677.16044  -5297652.81544  24302767.0794   24302772.7054
 -25555917.20044 -19913685.99044  20561664.7214   20561666.6864
 96  5 18  1 29 30.0000000  0  8G26G23G28G20G17G16G21G 6
 -14733462.41344 -11480604.88244  22159892.1574   22159894.1644
 -19909704.03744 -15514031.30544  21214670.1284   21214673.2374
  -5172407.870 4  -4030445.721 4  24318342.957    24318340.022
  16265766.51144  12674611.16144  24532367.0404   24532374.8134
 -11637110.53644  -9067872.58644  20878539.7794   20878542.6824
  -5129330.11744  -3996858.27444  24284797.2154   24284801.2164
  -6891224.52044  -5369767.50844  24285155.7794   24285160.8764
 -25514493.17044 -19881407.53744  20569547.4734   20569549.5884
 96  5 18  1 30  0.0000000  0  8G26G23G28G20G17G16G21G 6
 -14754219.91644 -11496779.53944  22155942.1264   22155943.7014
 -19960699.96944 -15553768.36844  21204965.8674   21204968.9104
  -5275580.074 4  -4110839.599 4  24298709.944    24298706.982
  16368269.57244  12754483.52644  24551872.7484   24551879.5324
 -11660561.47544  -9086146.04144  20874077.2484   20874080.1544
  -5027960.95844  -3917869.34044  24304087.1064   24304090.6634
  -6983648.24844  -5441785.87944  24267567.8634   24267573.5494
 -25472659.45244 -19848809.84844  20577508.1714   20577510.1874
 96  5 18  1 30 30.0000000  0  8G26G23G28G20G17G16G21G 6
 -14774420.36944 -11512520.13544  22152098.0734   22152100.0594
 -20011292.97244 -15593191.46044  21195338.2604   21195341.3584
  -5378721.263 4  -4191209.312 4  24279082.759    24279079.791
  16470687.56744  12834289.59144  24571362.4774   24571368.5964
 -11683846.00644  -9104289.82544  20869646.3274   20869649.1374
  -4926562.08844  -3838857.26144  24323382.7654   24323386.0494
  -7075890.40744  -5513662.76844  24250014.7534   24250020.7244
 -25430352.06144 -19815843.06344  20585558.9644   20585561.0664
 96  5 18  1 31  0.0000000  0  8G26G23G28G20G17G16G21G 6
 -14794060.15544 -11527823.84044  22148360.8534   22148362.9174
 -20061470.09544 -15632290.49144  21185789.9194   21185793.0144
  -5481816.012 4  -4271542.842 4  24259464.399    24259461.552
  16573031.37844  12914037.86044  24590838.0064   24590846.4454
 -11706943.04044  -9122287.51044  20865251.1864   20865253.9944
  -4825120.08644  -3759811.57144  24342686.6394   24342689.8284
  -7167942.80744  -5585391.78344  24232497.6544   24232502.5804
 -25387549.65044 -19782490.55144  20593704.0254   20593706.0994
 96  5 18  1 31 30.0000000  0  8G26G23G28G20G17G16G21G 6
 -14813150.40844 -11542699.34844  22144728.0324   22144729.6064
 -20111242.29844 -15671073.99744  21176318.5254   21176321.5344
  -5584862.681 4  -4351838.912 4  24239855.237    24239852.409
  16675298.24844  12993726.15144  24610298.8014   24610303.8944
 -11729846.74844  -9140134.55144  20860892.7434   20860895.5404
  -4723620.35044  -3680720.88744  24362001.4184   24362004.7654
  -7259835.45144  -5656996.32944  24215010.9374   24215017.9024
 -25344250.05144 -19748750.62444  20601943.7394   20601945.8084
 96  5 18  1 32  0.0000000  0  8G26G23G28G20G17G16G21G 6
 -14831716.89644 -11557166.72444  22141195.0484   22141196.8794
 -20160628.71744 -15709556.89544  21166920.5674   21166923.6534
  -5687876.052 4  -4432109.036 4  24220252.366    24220249.643
  16777469.17844  13073339.70744  24629741.4464   24629749.1084
 -11752565.00444  -9157837.08044  20856569.6244   20856572.4164
  -4622079.89144  -3601598.48544  24381323.9154   24381327.3754
  -7351595.59644  -5728497.62944  24197549.5814   24197554.3434
 -25300476.73544 -19714641.56644  20610273.5274   20610275.5084
 96  5 18  1 32 30.0000000  0  8G26G23G28G20G17G16G21G 6
 -14849759.92144 -11571226.21144  22137761.5684   22137763.2104
 -20209628.92744 -15747738.85044  21157596.2044   21157599.1944
  -5790846.599 4  -4512345.797 4  24200657.705    24200654.952
  16879542.87744  13152877.51344  24649165.6964   24649172.1134
 -11775088.97244  -9175388.21844  20852283.3944   20852286.2664
  -4520493.98144  -3522440.64744  24400655.0764   24400658.0784
  -7443220.89944  -5799893.85644  24180113.7284   24180119.5354
 -25256226.45844 -19680160.84344  20618694.1144   20618696.2654
 96  5 18  1 33  0.0000000  0  8G26G23G28G20G17G16G21G 6
 -14867264.38344 -11584866.03344  22134430.5794   22134432.4144
 -20258238.89244 -15785616.71844  21148345.9644   21148349.0354
  -5893761.240 4  -4592538.995 4  24181073.687    24181070.955
  16981510.44344  13232332.61544  24668569.6744   24668575.7384
 -11797398.45744  -9192772.22344  20848038.0584   20848040.9994
  -4418861.83144  -3443246.79844  24419995.0384   24419998.2634
  -7534708.85844  -5871183.07444  24162704.1964   24162708.0614
 -25211496.92944 -19645306.68144  20627205.8554   20627207.9074
 96  5 18  1 33 30.0000000  0  8G26G23G28G20G17G16G21G 6
 -14884223.67044 -11598081.04244  22131203.2124   22131205.2164
 -20306464.88544 -15823195.39144  21139168.7814   21139171.8204
  -5996618.769 4  -4672687.694 4  24161500.517    24161497.806
  17083381.71044  13311712.65244  24687955.2354   24687958.6544
 -11819494.33744  -9209989.78344  20843833.3164   20843836.1594
  -4317196.91144  -3364027.40044  24439341.3974   24439346.5934
  -7626050.06144  -5942357.94144  24145322.3794   24145327.5554
 -25166294.46844 -19610083.99944  20635807.5824   20635809.7084
 96  5 18  1 34  0.0000000  0  8G26G23G28G20G17G16G21G 6
 -14900600.38544 -11610842.09944  22128086.8764   22128088.8084
 -20354287.41144 -15860459.67344  21130068.5094   21130071.5794
  -6099391.254 4  -4752770.126 4  24141943.544    24141940.844
  17185170.69044  13391028.57244  24707324.9474   24707330.6634
 -11841358.94744  -9227027.13644  20839672.5964   20839675.3964
  -4215498.12844  -3284781.63944  24458693.9344   24458698.0974
  -7717191.02144  -6013376.77544  24127978.7474   24127985.6734
 -25120585.67644 -19574466.77544  20644505.5634   20644507.6644
 96  5 18  1 34 30.0000000  0  8G26G23G28G20G17G16G21G 6
 -14916406.74344 -11623158.72444  22125078.9884   22125080.8934
 -20401712.91044 -15897414.58544  21121043.6814   21121046.6734
  -6202086.305 4  -4832792.222 4  24122401.318    24122398.637
  17286849.99544  13470258.99644  24726673.9694   24726682.9054
 -11863016.34444  -9243903.02344  20835551.3704   20835554.2894
  -4113766.60944  -3205510.32944  24478052.7014   24478055.9104
  -7808136.34944  -6084243.17744  24110672.4234   24110676.4884
 -25074367.37844 -19538452.53044  20653300.6844   20653302.8304
 96  5 18  1 35  0.0000000  0  8G26G23G28G20G17G16G21G 6
 -14931661.49044 -11635045.52144  22122175.9924   22122177.8094
 -20448751.58544 -15934068.07644  21112092.4854   21112095.4784
  -6304718.922 4  -4912765.668 4  24102870.915    24102868.256
  17388408.20144  13549395.12044  24746000.0924   24746005.3994
 -11884495.63244  -9260640.12244  20831463.9474   20831466.8594
  -4012009.49844  -3126219.10444  24497416.5724   24497419.7304
  -7898898.29244  -6154966.68044  24093400.8864   24093405.3964
 -25027651.89444 -19502050.87444  20662190.3224   20662192.4724
 96  5 18  1 35 30.0000000  0  8G26G23G28G20G17G16G21G 6
 -14946344.94944 -11646487.16044  22119381.6514   22119383.6054
 -20495376.31144 -15970399.01044  21103220.0754   21103223.1264
  -6407271.184 4  -4992676.500 4  24083355.880    24083353.197
  17489865.13744  13628452.34244  24765306.7054   24765314.5624
 -11905795.46944  -9277237.39444  20827410.7474   20827413.5634
  -3910195.91444  -3046883.86444  24516791.0204   24516794.5914
  -7989460.45844  -6225534.52244  24076167.4254   24076171.2084
 -24980410.29744 -19465239.25944  20671180.1724   20671182.3094
 96  5 18  1 36  0.0000000  0  8G26G23G28G20G17G16G21G 6
 -14960447.36444 -11657476.03844  22116698.1814   22116700.0894
 -20541561.04644 -16006387.09444  21094431.3584   21094434.4304
  -6509723.670 4  -5072509.579 4  24063859.759    24063857.122
  17591228.76244  13707436.82244  24784595.7394   24784603.5984
 -11926895.54544  -9293679.00644  20823395.5404   20823398.3684
  -3808302.66844  -2967486.55044  24536180.7284   24536184.9834
  -8079812.14844  -6295938.34144  24058974.0904   24058979.5364
 -24932619.48544 -19427999.68044  20680274.4814   20680276.5724
 96  5 18  1 36 30.0000000  0  8G26G23G28G20G17G16G21G 6
 -14973995.67544 -11668033.14644  22114120.1064   22114121.9904
 -20587321.79944 -16042044.80444  21085723.3544   21085726.4104
  -6612101.705 4  -5152284.641 4  24044377.854    24044375.248
  17692486.37944  13786338.70744  24803864.4874   24803873.9204
 -11947819.59544  -9309983.46044  20819413.7864   20819416.4904
  -3706346.54544  -2888040.25444  24555582.4894   24555585.1484
  -8169995.34044  -6366210.89344  24041812.8244   24041816.7824
 -24884326.53644 -19390368.82444  20689464.3334   20689466.5664
 96  5 18  1 37  0.0000000  0  8G23G26G28G20G17G16G21G 6
 -20632657.01744 -16077370.92844  21077096.2574   21077099.3254
 -14986978.59344 -11678149.69244  22111649.5214   22111651.2684
  -6714404.985 4  -5232001.457 4  24024910.170    24024907.559
  17793656.48644  13865172.38344  24823116.7214   24823125.1614
 -11968567.03044  -9326150.29144  20815465.7534   20815468.4464
  -3604348.20244  -2808561.06044  24574992.1394   24574997.2484
  -8260014.12544  -6436355.32644  24024682.6364   24024686.9244
 -24835552.46444 -19352363.06544  20698745.7094   20698747.8694
 96  5 18  1 37 30.0000000  0  8G23G26G28G20G17G16G21G 6
 -20677574.37744 -16112371.44744  21068548.8414   21068551.9124
 -14999391.23044 -11687821.85744  22109287.3694   22109289.0414
  -6816636.794 4  -5311662.582 4  24005456.075    24005453.448
  17894736.01344  13943935.45044  24842351.6194   24842359.3314
 -11989140.15844  -9342181.29544  20811550.7004   20811553.6484
  -3502327.01144  -2729064.04844  24594406.2834   24594409.3934
  -8349873.13444  -6506375.25744  24007582.9394   24007588.3064
 -24786315.29244 -19313996.45144  20708115.3004   20708117.4184
 96  5 18  1 38  0.0000000  0  8G23G26G28G20G17G16G21G 6
 -20722088.20744 -16147057.52844  21060078.1194   21060081.1684
 -15011241.38144 -11697055.72844  22107032.3904   22107034.1234
  -6918809.717 4  -5391277.821 4  23986013.139    23986010.585
  17995712.12744  14022617.97944  24861566.8144   24861575.5024
 -12009549.48144  -9358084.65744  20807666.9534   20807669.8914
  -3400309.21044  -2649569.67644  24613819.7094   24613824.5164
  -8439580.77244  -6576277.22144  23990512.0114   23990517.1284
 -24736643.45844 -19275291.14244  20717567.4784   20717569.6954
 96  5 18  1 38 30.0000000  0  8G23G26G28G20G17G16G21G 6
 -20766212.02644 -16181439.70344  21051681.7044   21051684.7884
 -15022529.14544 -11705851.37044  22104884.4734   22104886.2854
  -7020931.968 4  -5470853.576 4  23966579.867    23966577.345
  18096565.62444  14101204.93744  24880758.6094   24880766.3994
 -12029810.85244  -9373872.73444  20803811.3654   20803814.0984
  -3298305.96244  -2570086.63344  24633230.0994   24633233.1824
  -8529151.67744  -6646072.65244  23973467.1354   23973471.6234
 -24686555.12544 -19236261.28744  20727099.0004   20727101.0914
 96  5 18  1 39  0.0000000  0  8G26G28G23G20G17G16G21G 6
 -15033251.11244 -11714206.13444  22102844.1364   22102845.9704
  -7122988.188 4  -5550377.874 4  23947159.206    23947156.623
 -20809927.87244 -16215503.98044  21043362.8624   21043365.8994
  18197298.07744  14179697.56244  24899927.6314   24899934.9084
 -12049899.03544  -9389525.85544  20799988.6804   20799991.4264
  -3196305.30344  -2490605.64544  24652640.0784   24652642.9164
  -8618568.18844  -6715747.77644  23956451.7754   23956456.9154
 -24636030.14044 -19196891.18744  20736713.6044   20736715.7024
 96  5 18  1 39 30.0000000  0  8G23G26G28G20G17G16G21G 6
 -20853255.10044 -16249265.43344  21035117.9234   21035120.9574
 -15043427.09544 -11722135.45444  22100907.5084   22100909.3174
  -7224987.058 4  -5629857.485 4  23927749.485    23927746.887
  18297890.72444  14258081.30044  24919069.9344   24919078.3744
 -12069811.04044  -9405041.69544  20796199.6244   20796202.3914
  -3094302.23944  -2411122.73844  24672050.6074   24672053.8184
  -8707836.42044  -6785307.35944  23939464.5374   23939468.8354
 -24585066.73944 -19157179.46644  20746411.6504   20746413.8024
 96  5 18  1 40  0.0000000  0  8G23G26G28G20G17G16G21G 6
 -20896189.60244 -16282720.86644  21026947.6584   21026950.6624
 -15053079.16944 -11729656.53344  22099070.9064   22099072.6414
  -7326932.052 4  -5709295.110 4  23908349.945    23908347.355
  18398320.08844  14336337.72844  24938181.2394   24938187.6264
 -12089536.83544  -9420412.44044  20792445.8894   20792448.7414
  -2992296.09144  -2331637.46144  24691461.7444   24691465.1184
  -8796959.83544  -6854754.10144  23922504.8884   23922508.5754
 -24533665.80344 -19117126.80944  20756192.8564   20756195.0894
 96  5 18  1 40 30.0000000  0  8G23G26G28G20G17G16G21G 6
 -20938687.54944 -16315836.12844  21018860.5524   21018863.5754
 -15062185.16744 -11736752.10244  22097338.1014   22097339.9354
  -7428777.790 4  -5788655.390 4  23888969.365    23888966.737
  18498624.66744  14414496.96144  24957268.6974   24957277.3854
 -12109026.01444  -9435598.80444  20788737.1964   20788739.9914
  -2890247.27444  -2252118.92544  24710880.8894   24710884.8524
  -8885890.59244  -6924050.70244  23905581.8214   23905586.0174
 -24481783.76444 -19076699.26644  20766065.7314   20766067.9194
 96  5 18  1 41  0.0000000  0  8G23G26G28G20G17G16G21G 6
 -20980759.25444 -16348619.25244  21010854.5184   21010857.5264
 -15070748.24444 -11743424.61044  22095708.5044   22095710.1614
  -7530524.628 4  -5867938.603 4  23869607.578    23869604.901
  18598805.93144  14492560.09444  24976332.6744   24976339.9954
 -12128278.92344  -9450601.06644  20785073.5074   20785076.3554
  -2788167.85944  -2172576.53644  24730305.9164   24730309.8074
  -8974612.08944  -6993184.25144  23888698.5654   23888702.4694
 -24429415.49044 -19035892.83944  20776031.1334   20776033.3364
 96  5 18  1 41 30.0000000  0  8G26G23G28G20G17G16G21G 6
 -15078763.10044 -11749669.93044  22094183.3474   22094185.0164
 -21022426.81444 -16381087.45844  21002925.4744   21002928.4274
  -7632183.160 4  -5947153.004 4  23850262.573    23850259.965
  18698841.21844  14570509.46144  24995368.8424   24995378.0264
 -12147326.72544  -9465443.50644  20781448.8204   20781451.5854
  -2686079.79144  -2093027.40544  24749732.5424   24749735.3164
  -9063126.69144  -7062156.58244  23871854.8854   23871859.1554
 -24376569.57144 -18994714.22344  20786087.3864   20786089.6294
 96  5 18  1 42  0.0000000  0  8G23G26G28G20G17G16G21G 6
 -21063649.03444 -16413208.64344  20995081.1034   20995084.2204
 -15086195.62544 -11755461.49144  22092769.0284   22092770.4504
  -7733719.436 4  -6026272.141 4  23830940.814    23830938.210
  18798751.03744  14648361.11544  25014380.8694   25014390.7984
 -12166151.82944  -9480112.41144  20777866.5234   20777869.2394
  -2583965.67844  -2013457.99644  24769164.3884   24769168.6764
  -9151396.89744  -7130938.47644  23855057.5114   23855062.4664
 -24323222.67644 -18953145.23744  20796238.9554   20796241.1464
 96  5 18  1 42 30.0000000  0  8G26G28G23G20G17G16G21G 6
 -15093039.86744 -11760794.64244  22091466.5864   22091468.1214
  -7835150.202 4  -6105309.056 4  23811639.198    23811636.617
 -21104457.78944 -16445007.65144  20987315.4154   20987318.4484
  18898522.68144  14726105.06844  25033366.9744   25033372.3614
 -12184797.64144  -9494641.61044  20774318.3374   20774321.0484
  -2481856.25244  -1933892.21344  24788595.2934   24788597.4904
  -9239443.72444  -7199546.31044  23838302.6864   23838308.2424
 -24269386.92344 -18911195.31844  20806483.5654   20806485.8124
 96  5 18  1 43  0.0000000  0  8G26G28G23G20G17G16G21G 6
 -15099275.68644 -11765653.70544  22090279.6884   22090281.4154
  -7936477.527 4  -6184265.367 4  23792357.137    23792354.625
 -21144860.93744 -16476490.60044  20979626.8944   20979629.8264
  18998152.70944  14803738.65244  25052326.1924   25052334.3834
 -12203276.73644  -9509040.89744  20770801.8974   20770804.8144
  -2379752.30644  -1854330.71444  24808025.0424   24808028.2204
  -9327281.34544  -7267991.14044  23821587.7574   23821592.9574
 -24215064.94644 -18868866.51944  20816820.7614   20816823.0154
 96  5 18  1 43 30.0000000  0  8G26G28G23G20G17G16G21G 6
 -15104909.38644 -11770043.58344  22089207.6944   22089209.5184
  -8037699.754 4  -6263139.784 4  23773095.166    23773092.663
 -21184841.88744 -16507644.56644  20972018.8174   20972021.7274
  19097650.73044  14881269.38644  25071260.2424   25071269.4264
 -12221587.89044  -9523309.32244  20767317.3584   20767320.1254
  -2277648.29844  -1774769.17644  24827454.8774   24827458.0894
  -9414926.76844  -7336286.20244  23804909.3054   23804913.9294
 -24160264.50544 -18826164.89444  20827248.9264   20827251.2084
 96  5 18  1 44  0.0000000  0  8G26G28G23G20G17G16G21G 6
 -15109965.47244 -11773983.37244  22088245.6304   22088247.3844
  -8138823.807 4  -6341937.699 4  23753851.813    23753849.342
 -21224410.32644 -16538477.09344  20964489.2114   20964492.1254
  19197014.21344  14958695.28044  25090168.6314   25090176.1164
 -12239724.53844  -9537441.76744  20763866.0714   20763868.9814
  -2175551.67744  -1695213.40644  24846883.2784   24846886.4174
  -9502400.65844  -7404447.59644  23788263.5734   23788267.4014
 -24105001.99244 -18783103.21644  20837765.0664   20837767.2504
 96  5 18  1 44 30.0000000  0  8G26G28G23G20G17G16G21G 6
 -15114423.92944 -11777457.48144  22087397.1734   22087398.9174
  -8239832.653 4  -6420645.843 4  23734630.423    23734627.928
 -21263559.99344 -16568983.30644  20957039.2524   20957042.1384
  19296265.39144  15036033.65344  25109055.6294   25109065.0624
 -12257655.72644  -9551414.11744  20760453.8054   20760456.7124
  -2073444.44244  -1615649.34644  24866313.5934   24866316.8894
  -9589695.66144  -7472469.58944  23771651.8724   23771656.0104
 -24049268.96944 -18739674.90644  20848370.6864   20848372.9114
 96  5 18  1 45  0.0000000  0  8G26G28G23G20G17G16G21G 6
 -15118294.69744 -11780473.64644  22086660.6704   22086662.4824
  -8340720.646 4  -6499259.817 4  23715432.001    23715429.495
 -21302284.44644 -16599158.18344  20949670.2014   20949673.1474
  19395407.38044  15113286.95044  25127921.9054   25127926.4054
 -12275356.33944  -9565206.79644  20757085.5004   20757088.3444
  -1971318.56144  -1536070.75044  24885747.7054   24885748.7524
  -9676794.68444  -7540338.88944  23755077.3834   23755081.3814
 -23993076.43344 -18695888.53444  20859063.7314   20859066.0004
 96  5 18  1 45 30.0000000  0  8G26G28G23G20G17G16G21G 6
 -15121591.51244 -11783042.57444  22086033.2384   22086035.0344
  -8441488.379 4  -6577780.080 4  23696256.464    23696253.981
 -21340587.47144 -16629004.67844  20942381.4754   20942384.2804
  19494425.80344  15190443.94344  25146764.5584   25146770.6854
 -12292824.64244  -9578818.45644  20753761.5024   20753764.1114
  -1869178.86744  -1456481.38744  24905184.0644   24905186.6554
  -9763682.15444  -7608043.33644  23738543.0454   23738546.8784
 -23936427.66644 -18651746.65644  20869843.6544   20869845.8004
 96  5 18  1 46  0.0000000  0  8G26G28G23G20G17G16G21G 6
 -15124300.36844 -11785153.35644  22085517.7294   22085519.2964
  -8542134.310 4  -6656205.431 4  23677104.127    23677101.660
 -21378487.44144 -16658537.10344  20935169.2814   20935172.1294
  19593292.09644  15267482.39944  25165578.2064   25165584.7024
 -12310065.73144  -9592253.06644  20750480.5844   20750483.3304
  -1767030.03944  -1376884.94544  24924622.2774   24924627.8734
  -9850340.98244  -7675569.62244  23722052.5234   23722057.1014
 -23879317.31044 -18607245.09944  20880711.4274   20880713.5944
 96  5 18  1 46 30.0000000  0  8G26G28G23G20G17G16G21G 6
 -15126436.70944 -11786818.02244  22085111.1274   22085112.8304
  -8642672.870 4  -6734547.122 4  23657972.230    23657969.770
 -21416011.15144 -16687776.33644  20928028.7184   20928031.5014
  19691984.61144  15344385.45644  25184358.8654   25184368.2974
 -12327110.24544  -9605534.50744  20747237.1104   20747239.7574
  -1664892.05744  -1297296.91344  24944058.6614   24944063.1474
  -9936777.75144  -7742922.87144  23705604.0384   23705608.9824
 -23821752.35944 -18562389.31144  20891665.6644   20891667.8954
 96  5 18  1 47  0.0000000  0  8G26G28G23G20G17G16G21G 6
 -15128002.44544 -11788038.06244  22084813.2524   22084815.0254
  -8743091.893 4  -6812795.667 4  23638863.057    23638860.590
 -21453147.66644 -16716713.86144  20920961.9044   20920964.7284
  19790502.83844                  25203106.5804
 -12343972.83944  -9618674.18344  20744028.2864   20744030.8884
  -1562761.84944  -1217714.96144  24963493.3314   24963497.5464
 -10022978.27244  -7810092.04044  23689200.6354   23689205.2354
 -23763705.97244 -18517158.38444  20902711.5084   20902713.5874
 96  5 18  1 47 30.0000000  0  8G26G28G23G20G17G16G21G 6
 -15128996.00044 -11788812.24844  22084624.1454   22084626.2314
  -8843383.896 4  -6890945.236 4  23619778.070    23619775.637
 -21489890.80244 -16745344.85744  20913969.8064   20913972.6974
  19888839.17044  15497778.20344  25221819.4804   25221827.3094
 -12360669.01244  -9631684.18344  20740851.1404   20740853.9164
  -1460638.00344  -1138137.94144  24982926.9014   24982930.3934
 -10108954.45844  -7877086.40344  23672839.8174   23672843.9514
 -23705157.09944 -18471535.90644  20913853.0144   20913855.3654
 96  5 18  1 48  0.0000000  0  8G26G28G23G20G17G16G21G 6
 -15129426.19944 -11789147.45744  22084542.3654   22084544.2004
  -8943551.400 4  -6968997.798 4  23600716.757    23600714.353
 -21526237.22544 -16773666.73044  20907053.2744   20907056.1384
  19986993.54244  15574261.88544  25240497.9714
 -12377209.05944  -9644572.52844  20737703.5624   20737706.3354
  -1358533.74544  -1058576.19144  25002356.6634   25002361.8384
 -10194733.14744  -7943926.87844  23656516.6414   23656520.4424
 -23646106.74044 -18425522.65844  20925089.8954   20925092.1544
 96  5 18  1 48 30.0000000  0  8G26G28G23G20G17G16G21G 6
 -15129317.53144 -11789062.76944  22084562.9814   22084564.7974
  -9043607.786 4  -7046963.774 4  23581676.623    23581674.175
 -21562179.90344 -16801673.99844  20900213.6284   20900216.6034
  20084967.15444                  25259141.7494
 -12393614.68644  -9657356.13444  20734581.6544   20734584.4464
  -1256464.54044   -979041.78944  25021780.0114   25021779.4754
 -10280347.66944  -8010639.43244  23640224.5374   23640228.5084
 -23586584.20644 -18379141.48244  20936416.7194   20936418.9174
 96  5 18  1 49  0.0000000  0  8G26G28G23G20G17G16G21G 6
 -15128649.80644 -11788542.45544  22084689.9664   22084691.2354
  -9143551.369 4  -7124841.853 4  23562657.954    23562655.506
 -21597693.92944 -16829347.25044  20893455.4774   20893458.3844
  20182760.24244  15726806.93344  25277751.5684   25277761.4964
 -12409881.12544  -9670031.27944  20731486.2484   20731488.9794
  -1154434.09644   -899537.54244  25041195.7284   25041202.1544
 -10365809.65944  -8077233.11644  23623961.5144   23623965.5244
 -23526600.97444 -18332401.32144  20947831.1454   20947833.2254
 96  5 18  1 49 30.0000000  0  8G26G28G23G20G17G16G21G 6
 -15127409.18344 -11787575.72044  22084925.9934   22084927.4034
  -9243383.236 4  -7202632.885 4  23543660.569    23543658.098
 -21632784.06744 -16856690.20144  20886778.0664   20886780.9844
  20280371.33044  15802867.27844  25296326.4704   25296332.7974
 -12425990.57244  -9682584.09444  20728420.7424   20728423.3754
  -1052442.55544   -820063.64444  25060604.1104   25060604.6484
 -10451130.01444  -8143716.43944  23607725.6584   23607730.2384
 -23466185.95244 -18285324.70344  20959327.7394   20959329.8454
 96  5 18  1 50  0.0000000  0  8G26G28G23G20G17G16G21G 6
 -15125571.72344 -11786143.91644  22085275.6914   22085277.3944
  -9343081.972 4  -7280320.180 4  23524688.477    23524686.032
 -21667443.62844 -16883697.63944  20880182.5644   20880185.4054
  20377827.25944                  25314871.8814
 -12441903.09044  -9694983.45544  20725392.6384   20725395.4214
   -950470.66744   -740605.04944  25080008.7084   25080010.1404
 -10536284.20244  -8210070.28944  23591521.2544   23591525.2964
 -23405345.34144 -18237916.45944  20970905.3654   20970907.5974
 96  5 18  1 50 30.0000000  0  8G 6G26G28G23G20G17G16G21
 -23344100.02344 -18190192.85644  20982559.9254   20982562.3074
 -15123143.71944 -11784251.95344  22085737.8404   22085739.5054
  -9442655.397 4  -7357909.829 4  23505740.245    23505737.798
 -21701696.74044 -16910388.36144  20873664.3744   20873667.2774
  20475112.13944                  25333384.6614
 -12457617.21444  -9707228.22644  20722402.3624   20722405.1334
   -848528.78244   -661169.81244  25099407.6044   25099409.5064
 -10621267.82244  -8276291.23344  23575349.4804   23575353.6434
 96  5 18  1 51  0.0000000  0  8G 6G26G28G23G20G17G16G21
 -23282439.46144 -18142145.68744  20994293.6174   20994295.8344
 -15120132.12244 -11781905.24244  22086310.8454   22086312.5144
  -9542092.791 4  -7435393.481 4  23486817.918    23486815.503
 -21735551.58044 -16936768.74144  20867221.9474   20867224.8154
  20572215.16244  16030277.40444  25351862.9334
 -12473105.22344  -9719296.80444  20719455.0794   20719457.7394
   -746614.35144   -581756.02944  25118801.4024   25118804.2674
 -10706065.71544  -8342367.44944  23559212.8824   23559217.4714
 96  5 18  1 51 30.0000000  0  8G 6G26G28G23G20G17G16G21
 -23220344.44144 -18093759.98144  21006109.9174   21006112.0714
 -15116556.55144 -11779119.06744  22086991.1984   22086992.7024
  -9641380.157 4  -7512760.230 4  23467924.157    23467921.710
 -21769013.04744 -16962842.59544  20860854.4424   20860857.2794
  20669137.14244  16105800.79944  25370306.4214
 -12488346.31244  -9731172.97444  20716554.8604   20716557.5744
   -644711.86244   -502351.45144  25138192.5384   25138198.5544
 -10790648.43044  -8408275.99344  23543117.2804   23543121.8684
 96  5 18  1 52  0.0000000  0  8G 6G26G28G23G20G17G16G21
 -23157786.46944 -18045013.53744  21018014.3724   21018016.6734
 -15112428.47344 -11775902.37544  22087776.7844   22087778.4024
  -9740520.733 4  -7590012.597 4  23449058.306    23449055.862
 -21802073.84044 -16988604.23544  20854563.1824   20854565.9914
  20765868.37044  16181175.56344  25388714.3014   25388721.4524
 -12503345.95144  -9742861.00644  20713700.4934   20713703.2424
   -542821.17044   -422956.15144  25157581.8254   25157585.0914
 -10875006.25544  -8474009.29844  23527064.3374   23527069.0174
 96  5 18  1 52 30.0000000  0  8G 6G26G28G23G20G17G16G21
 -23094737.17444 -17995884.24344  21030012.1754   21030014.4534
 -15107739.51144 -11772248.62744  22088669.0634   22088670.7084
  -9839505.243 4  -7667143.356 4  23430222.202    23430219.702
 -21834707.47344 -17014033.02244  20848353.1524   20848356.1024
  20862411.02844                  25407085.7104
 -12518105.54344  -9754361.98444  20710891.7804   20710894.5784
   -440938.54144   -343567.09344  25176969.5664   25176974.3204
 -10959121.59844  -8539553.65644  23511057.7164   23511061.7094
 96  5 18  1 53  0.0000000  0  7G 6G26G28G23G17G16G21
 -23031185.08844 -17946363.16444  21042105.7354   21042108.1014
 -15102472.94844 -11768144.80344  22089671.1104   22089672.8404
  -9938323.514 4  -7744144.578 4  23411417.687    23411415.238
 -21866902.69844 -17039120.19044  20842226.6054   20842229.3964
 -12532612.39144  -9765666.02144  20708131.2644   20708133.9344
   -339052.69144   -264175.50444  25196357.6954
 -11042978.45144  -8604896.60344  23495100.4014   23495105.4514
 96  5 18  1 53 30.0000000  0  8G26G 6G28G23G 3G17G16G21
 -15096622.72844 -11763586.18444  22090784.5174   22090785.8744
 -22967147.79944 -17896464.00344  21054291.6684   21054294.0254
 -10036998.626 4  -7821034.244 4  23392640.388    23392637.965
 -21898683.68444 -17063884.57544  20836178.8634   20836181.6814
        -0.69854                  25319813.3284
 -12546906.11344  -9776803.99244  20705411.2814   20705413.9604
   -237180.21844   -184794.39644  25215743.1884   25215747.8194
 -11126591.69544  -8670049.71544  23479189.1234   23479193.0284
 96  5 18  1 54  0.0000000  0  8G26G 6G28G23G 3G17G16G21
 -15090125.60044 -11758523.47344  22092020.9094   22092022.4934
 -22902604.22244 -17846170.33544  21066573.9164   21066576.2014
 -10135488.296 4  -7897779.413 4  23373898.381    23373896.023
 -21930006.51144 -17088291.95144  20830218.3114   20830221.1734
   -107633.94344    -83870.73344  25299331.0284   25299331.4654
 -12560962.46244  -9787757.00044  20702736.4054   20702738.9514
   -135292.18944   -105401.12244  25235131.6734
 -11209937.56844  -8734994.49144  23463328.8344   23463332.9204
 96  5 18  1 54 30.0000000  0  8G26G 6G28G23G 3G17G16G21
 -15083015.97844 -11752983.49944  22093373.6534   22093375.0044
 -22837621.01444 -17795534.09644  21078939.8204   21078942.3094
 -10233826.542 4  -7974406.589 4  23355185.231    23355182.876
 -21960921.12744 -17112381.24144  20824335.5114   20824338.4224
   -215252.62244   -167729.41844  25278852.0474   25278855.0934
 -12574830.63744  -9798563.37244  20700097.3594   20700100.1094
    -33441.12544    -26036.66644  25254513.0914
 -11293057.42044  -8799763.14944  23447511.5694   23447515.2414
 96  5 18  1 55  0.0000000  0  8G26G28G23G 3G17G16G21G 6
 -15075282.72744 -11746957.58044  22094845.3204   22094846.9494
 -10332002.024 4  -8050906.934 4  23336503.047    23336500.682
 -21991428.77844 -17136153.42344  20818530.1114   20818532.8104
   -322861.24944   -251580.25044  25258374.7764   25258378.9764
 -12588517.55544  -9809228.50444  20697492.7974   20697495.5724
     68387.31844     53310.14844  25273890.2344
 -11375958.43644  -8864361.28344  23431736.0284   23431740.4694
 -22772196.58844 -17744554.04344  21091389.7014   21091391.8864
 96  5 18  1 55 30.0000000  0  8G26G28G23G 3G17G16G21G 6
 -15066951.95944 -11740466.05444  22096430.5794   22096432.1294
 -10430022.303 4  -8127286.343 4  23317850.351    23317848.034
 -22021538.18844 -17159615.28944  20812800.4154   20812803.1714
   -430469.87444   -335431.14044  25237897.3534   25237899.6474
 -12602058.59344  -9819779.96244  20694916.0784   20694918.9524
    170174.98244                  25293259.8164
 -11458659.21544  -8928803.38144  23415998.6714   23416002.9604
 -22706337.39744 -17693235.21744  21103922.3084   21103924.7034
 96  5 18  1 56  0.0000000  0  8G26G28G23G 3G17G16G21G 6
 -15058035.01444 -11733517.78244  22098127.3164   22098128.7904
 -10527876.800 4  -8203536.568 4  23299229.208    23299226.950
 -22051251.47044 -17182768.48344  20807146.1824   20807149.0024
   -538049.36844   -419259.24744  25217425.7214   25217427.6874
 -12615440.08744  -9830207.10144  20692369.6274   20692372.4414
    271915.88444                  25312620.3284
 -11541161.00844  -8993090.44044  23400298.9564   23400302.5194
 -22640032.82544 -17641569.34644  21116539.6194   21116542.0574
 96  5 18  1 56 30.0000000  0  8G26G28G23G 3G17G16G21G 6
 -15048547.80344 -11726125.13944  22099932.6024   22099933.9524
 -10625569.198 4  -8279660.486 4  23280638.896    23280636.701
 -22080584.08044 -17205625.04744  20801564.4054   20801567.1444
   -645607.46144   -503070.75044  25196958.0474   25196961.0274
 -12628659.76044  -9840508.14544  20689853.9924   20689856.8224
    373609.96644                  25331972.2514
 -11623460.26944  -9057219.67544  23384637.9004   23384641.5564
 -22573265.86244 -17589543.16444  21129244.9444   21129247.3434
 96  5 18  1 57  0.0000000  0  8G26G28G23G 3G17G16G21G 6
 -15038489.31844 -11718287.35444  22101846.7924   22101848.3384
 -10723088.114 4  -8355649.221 4  23262081.665    23262079.475
 -22109528.45244 -17228179.08544  20796056.3994   20796059.1724
   -753134.94944   -586858.39344  25176496.2664   25176498.2204
 -12641698.43044  -9850668.15144  20687372.8184   20687375.6004
    475271.58944                  25351318.1454
 -11705540.51344  -9121178.25444  23369018.5484   23369022.1234
 -22506019.56444 -17537143.47444  21142041.5024   21142043.8514
 96  5 18  1 57 30.0000000  0  8G26G28G23G 3G17G16G21G 6
 -15027857.82344 -11710003.06144  22103869.7844   22103871.2894
 -10820428.229 4  -8431498.630 4  23243558.449    23243556.290
 -22138082.69644 -17250429.12844  20790622.6774   20790625.3234
   -860614.70344   -670608.82144  25156043.4114   25156046.5634
 -12654524.76244  -9860662.70344  20684932.0804   20684934.8924
    576890.46244                  25370655.5574
 -11787387.88144  -9184955.36144  23353443.6364   23353447.7244
 -22438294.31044 -17484370.57344  21154929.2094   21154931.8314
 96  5 18  1 58  0.0000000  0  8G26G28G23G 3G17G16G21G 6
 -15016661.92744 -11701278.98444  22106000.3304   22106001.9754
 -10917604.069 4  -8507220.034 4  23225066.374    23225064.328
 -22166250.74044 -17272378.23544  20785262.4794   20785264.9444
   -968054.99644   -754328.50344  25135598.2694   25135602.1414
 -12667141.60844  -9870494.01044  20682531.2134   20682533.8154
    678450.15344    528683.79144  25389981.9524
 -11869031.46344  -9248573.68144  23337907.2454   23337910.8844
 -22370117.57544 -17431245.87244  21167902.8634   21167905.0644
 96  5 18  1 58 30.0000000  0  8G26G28G23G 3G17G16G21G 6
 -15004672.66844 -11691936.69644  22108281.7754   22108283.4634
 -11014383.619 4  -8582632.639 4  23206649.804    23206647.811
 -22193782.98744 -17293831.91844  20780023.2694   20780025.6814
  -1075228.26044   -837840.09644  25115203.8804   25115207.8564
 -12679318.68844  -9879982.64044  20680213.8964   20680216.3364
    780172.84944                  25409339.1274
 -11950236.64544  -9311850.38344  23322454.4114   23322457.7134
 -22301282.77344 -17377608.38644  21181001.8124   21181003.8624
 96  5 18  1 59  0.0000000  0  8G26G28G23G 3G17G16G21G 6
 -14992220.08844 -11682233.38044  22110651.5314   22110652.7894
 -11111088.367 4  -8657986.959 4  23188247.420    23188245.511
 -22220992.06044 -17315033.78144  20774845.5554   20774848.0494
  -1182446.81944   -921387.02244  25094800.9414   25094802.2644
 -12691384.22044  -9889384.35444  20677917.9104   20677920.3174
    881726.78344                  25428664.1164
 -12031331.71744  -9375041.29744  23307022.5434   23307025.7964
 -22232137.72144 -17323729.15144  21194159.6424   21194161.7454
 96  5 18  1 59 30.0000000  0  7G26G28G 3G23G17G21G 6
 -14979293.33044 -11672160.57244  22113111.4044   22113112.4204
 -11207707.466 4  -8733274.535 4  23169861.394    23169859.472
  -1289704.99744  -1004964.79144  25074390.3354   25074394.4904
 -22247856.71444 -17335967.26244  20769733.3824   20769735.8794
 -12703338.70444  -9898699.53144  20675643.0044   20675645.4374
 -12112322.84944  -9438151.20444  23291610.2864   23291613.8264
 -22162677.94244 -17269604.67244  21207377.3124   21207379.5194
 96  5 18  2  0  0.0000000  0  7G26G28G23G 3G17G21G 6
 -14965967.30744 -11661776.65444  22115647.2244   22115648.5394
 -11304311.886 4  -8808550.675 4  23151478.121    23151476.255
 -22274457.58544 -17356695.19544  20764671.3734   20764673.7614
  -1397087.34244  -1088639.31644  25053956.1534   25053959.0724
 -12715267.77944  -9907994.90744  20673373.0074   20673375.3474
 -12193272.40644  -9501228.72144  23276205.9644   23276210.1114
 -22092977.15444 -17215292.39744  21220640.9644   21220643.0164
 96  5 18  2  0 30.0000000  0  8G26G28G23G 3G17G22G21G 6
 -14952094.06644 -11650966.33444  22118287.0564   22118288.6694
 -11400755.143 4  -8883701.237 4  23133125.686    23133123.662
 -22300669.35144 -17377119.93444  20759683.3684   20759686.0864
  -1504457.09744  -1172304.03444  25033524.2934   25033527.4894
 -12727025.82244  -9917157.01544  20671135.5314   20671138.1344
        -0.07454        -0.21054  23411716.3914   23411719.5034
 -12274014.75544  -9564144.78044  23260841.0794   23260844.9694
 -22022884.30844 -17160674.62644  21233979.2624   21233981.5864
 96  5 18  2  1  0.0000000  0  8G26G28G23G 3G17G22G21G 6
 -14937823.29344 -11639846.24544  22121002.7674   22121004.1754
 -11497195.161 4  -8958849.273 4  23114773.736    23114771.694
 -22326659.13944 -17397371.69744  20754737.6984   20754740.3664
  -1611985.87544  -1256092.65744  25013062.1524   25013065.5784
 -12738778.60244  -9926315.02444  20668899.0764   20668901.8864
     13416.96444     10454.61144  23414269.4904   23414273.0314
 -12354711.95844  -9627025.66044  23245484.8864   23245488.8944
 -21952545.82944 -17105865.45344  21247364.2234   21247366.5634
 96  5 18  2  1 30.0000000  0  8G26G28G23G 3G17G22G21G 6
 -14922731.67444 -11628086.53444  22123874.6254   22123876.1644
 -11593225.674 4  -9033678.217 4  23096499.713    23096497.693
 -22352019.36344 -17417132.89244  20749911.7854   20749914.4954
  -1719276.87344  -1339696.02744  24992645.2604   24992648.3774
 -12750108.18144  -9935143.26444  20666743.0784   20666745.6064
     27497.06344     21426.09744  23416948.9054   23416952.2264
 -12434959.15644  -9689555.88444  23230214.3674   23230218.0384
 -21881547.42144 -17050542.04444  21260874.7874   21260877.2754
 96  5 18  2  2  0.0000000  0  8G26G28G23G 3G17G22G21G 6
 -14906957.93444 -11615795.29944  22126876.3544   22126878.0744
 -11688988.862 4  -9108298.859 4  23078276.548    23078274.550
 -22376901.65044 -17436521.66644  20745176.8214   20745179.5054
  -1826457.24744  -1423213.15944  24972249.5004   24972251.5074
 -12761151.53144  -9943748.46744  20664641.7014   20664644.1854
     42097.54044     32803.08244  23419727.2834   23419730.5214
 -12514895.45644  -9751843.85644  23215002.9684   23215006.6114
 -21810032.15144 -16994815.88744  21274483.7394   21274486.1554
 96  5 18  2  2 30.0000000  0  8G26G28G23G 3G17G22G21G 6
 -14890555.01644 -11603013.80344  22129997.6914   22129999.0904
 -11784528.899 4  -9182745.616 4  23060095.768    23060093.891
 -22401340.69744 -17455565.06144  20740526.2064   20740528.7354
  -1933562.43444  -1506671.72344  24951867.8584   24951871.8604
 -12771959.15944  -9952169.98844  20662585.0644   20662587.5344
     57184.66744     44559.27644  23422598.4364   23422601.4624
 -12594581.41044  -9813936.75744  23199839.0774   23199843.2894
 -21738059.45144 -16938733.28744  21288179.8344   21288182.1874
 96  5 18  2  3  0.0000000  0  8G26G28G23G 3G17G22G21G 6
 -14873324.68244 -11589587.56244  22133276.6444   22133277.6974
 -11879639.847 4  -9256858.020 4  23041996.676    23041994.880
 -22425125.49544 -17474098.65644  20736000.0904   20736002.5114
  -2040388.10744  -1589912.46944  24931539.7744   24931542.2334
 -12782323.23844  -9960245.88644  20660612.8874   20660615.1724
     72968.07744     56858.01444  23425601.9344   23425605.4524
 -12673817.32744  -9875678.98044  23184761.1284   23184764.9884
 -21665429.71544 -16882138.72044  21302000.8154   21302003.1904
 96  5 18  2  3 30.0000000  0  8G26G28G23G 3G17G22G21G 6
 -14855619.53244 -11575791.33344  22136645.7144   22136647.1604
 -11974662.377 4  -9330901.526 4  23023914.474    23023912.647
 -22448611.53544 -17492399.45244  20731530.8794   20731533.2894
  -2147269.93344  -1673196.99444  24911200.9494   24911204.0264
 -12792575.85444  -9968234.93544  20658661.8554   20658664.2414
     89115.64044     69440.51444  23428674.7854   23428678.2014
 -12752935.48544  -9937329.44044  23169705.4714   23169708.6724
 -21592479.50144 -16825294.43144  21315882.7704   21315885.1134
 96  5 18  2  4  0.0000000  0  8G26G28G23G 3G17G22G21G 6
 -14837575.35444 -11561730.92844  22140079.2664   22140081.1304
 -12069715.494 4  -9404968.865 4  23005826.527    23005824.547
 -22471937.76344 -17510575.71844  20727091.9894   20727094.5864
  -2254334.72144  -1756624.04544  24890826.9884   24890830.2704
 -12802853.96044  -9976243.84444  20656705.9684   20656708.5934
    105526.41144     82228.11544  23431797.6204   23431801.0894
 -12832042.96344  -9998971.58344  23154651.7984   23154655.4154
 -21519340.34644 -16768302.91444  21329800.6564   21329803.1894
 96  5 18  2  4 30.0000000  0  8G26G28G23G 3G17G22G21G 6
 -14819141.52944 -11547366.90544  22143587.1814   22143588.6024
 -12164747.679 4  -9479019.894 4  22987742.481    22987740.482
 -22495055.05044 -17528589.17144  20722692.8774   20722695.4114
  -2361550.94044  -1840169.12844  24870424.4494   24870427.0344
 -12813113.95744  -9984238.64844  20654753.5984   20654756.1314
    122255.82644     95263.98844  23434981.0774   23434984.9714
 -12911091.26244 -10060567.61244  23139609.2794   23139613.1704
 -21445968.50444 -16711130.08344  21343762.9324   21343765.4004
 96  5 18  2  5  0.0000000  0  8G26G28G23G 3G17G22G21G 6
 -14799904.72144 -11532377.17844  22147247.8444   22147248.8924
 -12259357.793 4  -9552742.039 4  22969738.732    22969736.790
 -22517571.63444 -17546134.54644  20718408.1914   20718410.6274
  -2468519.89544  -1923521.52144  24850069.0164   24850071.9124
 -12822951.30344  -9991904.11244  20652881.5974   20652884.1424
    139694.70444    108852.71644  23438299.7414   23438302.9174
 -12989674.50244 -10121801.25944  23124655.2694   23124659.3164
 -21371947.77744 -16653451.62344  21357848.6834   21357851.0734
 96  5 18  2  5 30.0000000  0  8G26G28G23G 3G17G22G21G 6
 -14779974.11644 -11516846.83344  22151040.5234   22151041.9804
 -12353651.133 4  -9626217.346 4  22951795.195    22951793.369
 -22539599.41144 -17563299.03244  20714216.4924   20714218.8044
  -2575344.91744  -2006761.75444  24829740.8184   24829745.0034
 -12832483.42644  -9999331.73944  20651067.6724   20651070.0134
    157724.50244    122901.88344  23441730.6064   23441733.9594
 -13067914.02144 -10182767.07944  23109766.8794   23109770.2824
 -21297392.59344 -16595356.70044  21372036.0314   21372038.0644
 96  5 18  2  6  0.0000000  0  8G26G28G23G 3G17G22G21G 6
 -14759173.80644 -11500638.79144  22154998.6934   22154999.8094
 -12447444.004 4  -9699302.675 4  22933946.909    22933945.148
 -22560952.61144 -17579937.87744  20710153.1764   20710155.3554
  -2681828.26944  -2089735.77644  24809477.6464   24809482.0534
 -12841539.28744 -10006388.25144  20649344.4334   20649346.6534
    176507.21944    137537.75244  23445304.7664   23445307.9724
 -13145643.47544 -10243335.43644  23094975.4414   23094979.2824
 -21222139.40544 -16536717.88744  21386356.3414   21386358.4534
 96  5 18  2  6 30.0000000  0  8G26G28G23G 3G17G22G21G 6
 -14737936.19144 -11484089.99744  22159040.1104   22159041.0664
 -12541160.532 4  -9772328.517 4  22916113.283    22916111.441
 -22582060.60444 -17596385.65344  20706136.4114   20706138.7094
  -2788378.32644  -2172761.75144  24789201.8274   24789204.4364
 -12850539.18744 -10013401.15944  20647631.8394   20647633.9664
    195602.11844    152416.87444  23448938.3844   23448940.8334
 -13223299.57144 -10303846.64244  23080197.9774   23080201.8554
 -21146597.51444 -16477854.10844  21400731.5184   21400733.5994
 96  5 18  2  7  0.0000000  0  8G26G28G23G 3G17G22G21G 6
 -14716255.76944 -11467196.15644  22163165.6644   22163166.8634
 -12634777.155 4  -9845276.511 4  22898298.605    22898296.753
 -22602915.59444 -17612636.28144  20702167.7744   20702170.0014
  -2894966.08244  -2255817.11644  24768918.7354   24768920.7444
 -12859459.66844 -10020352.18444  20645934.2644   20645936.6154
    215018.37444    167546.40144  23452633.1584   23452636.3144
 -13300859.41244 -10364282.84444  23065438.7744   23065441.9364
 -21070740.79044 -16418745.00644  21415166.5084   21415168.7104
 96  5 18  2  7 30.0000000  0  8G26G28G23G 3G17G22G21G 6
 -14694101.06244 -11449932.74144  22167381.4484   22167382.7484
 -12728246.013 4  -9918109.361 4  22880512.109    22880510.205
 -22623472.62344 -17628654.73244  20698255.8654   20698258.2484
  -3001536.61944  -2338859.08944  24748639.1004   24748642.2984
 -12868262.01344 -10027211.14844  20644259.2334   20644261.6564
    234805.13744    182964.64044  23456398.4134   23456401.6234
 -13378275.67644 -10424607.16144  23050706.9544   23050710.0954
 -20994546.23644 -16359372.65744  21429665.8214   21429668.2794
 96  5 18  2  8  0.0000000  0  8G26G28G23G 3G17G22G21G 6
 -14671551.27944 -11432361.47644  22171672.6294   22171674.0344
 -12821645.294 4  -9990888.000 4  22862738.767    22862736.908
 -22643802.09844 -17644495.87044  20694387.2864   20694389.5944
  -3108164.86044  -2421945.98344  24728348.4604   24728351.5524
 -12877026.78844 -10034040.84644  20642591.3804   20642593.7984
    254892.63344    198617.22144  23460221.0204   23460224.6364
 -13455602.30144 -10484861.63044  23035992.1484   23035995.4014
 -20918091.83244 -16299797.83044  21444214.6724   21444216.7584
 96  5 18  2  8 30.0000000  0  8G26G28G23G 3G17G22G21G 6
 -14648283.52244 -11414230.75244  22176100.4034   22176101.6424
 -12914659.326 4 -10063366.446 4  22845038.819    22845036.899
 -22663573.20444 -17659901.92044  20690624.9024   20690627.3024
  -3214551.44744  -2504844.59644  24708103.6284   24708107.5184
 -12885433.02544 -10040591.16244  20640991.6664   20640994.1594
    275608.05944    214759.09044  23464163.0334   23464166.7844
 -13532521.12644 -10544798.33444  23021354.9394   23021358.2614
 -20841065.46644 -16239777.31644  21458872.1834   21458874.5804
 96  5 18  2  9  0.0000000  0  8G26G28G23G 3G17G22G21G 6
 -14624508.51844 -11395704.77044  22180624.6114   22180625.7584
 -13007502.444 4 -10135711.713 4  22827371.303    22827369.399
 -22682979.18544 -17675023.45544  20686932.0944   20686934.4524
  -3320913.64644  -2587724.20644  24687863.6324   24687867.1464
 -12893696.22644 -10047030.01844  20639419.2134   20639421.5964
    296735.23544    231221.80744  23468183.4904   23468186.6644
 -13609249.81744 -10604586.88444  23006753.8704   23006757.0584
 -20763709.39044 -16179499.88344  21473592.5904   21473595.1174
 96  5 18  2  9 30.0000000  0  8G26G28G23G 3G17G22G21G 6
 -14600215.82544 -11376775.39344  22185247.2504   22185248.7924
 -13100171.015 4 -10207920.970 4  22809737.114    22809735.106
 -22701996.74344 -17689842.31944  20683313.1104   20683315.6754
  -3427242.48044  -2670577.82544  24667629.9364   24667633.6554
 -12901809.81144 -10053352.28944  20637875.1534   20637877.7704
    318280.09144    248009.98844  23472283.2894   23472286.7904
 -13685782.00044 -10664222.30944  22992190.0744   22992193.5964
 -20686025.26444 -16118966.82944  21488375.4184   21488377.8124
 96  5 18  2 10  0.0000000  0  8G26G28G23G 3G17G22G21G 6
 -14575507.94244 -11357522.49144  22189948.8854   22189950.4864
 -13192765.123 4 -10280072.199 4  22792117.033    22792114.981
 -22720739.86844 -17704447.33944  20679746.3154   20679748.9284
  -3533647.65844  -2753490.95644  24647381.6654   24647385.8194
 -12909866.71344 -10059630.39344  20636342.0384   20636344.5214
    340136.16844    265040.68544  23476442.5354   23476445.5854
 -13762234.35744 -10723795.53144  22977641.5754   22977644.7614
 -20608097.07544 -16058243.59544  21503204.7364   21503207.1804
 96  5 18  2 10 30.0000000  0  8G26G28G23G 3G17G22G21G 6
 -14550008.95044 -11337653.14444  22194801.2804   22194803.0404
 -13284904.008 4 -10351868.705 4  22774583.537    22774581.520
 -22738857.76744 -17718565.16944  20676298.5714   20676301.0024
  -3639748.44244  -2836166.86744  24627191.2184   24627194.0134
 -12917481.67344 -10065564.12644  20634893.0484   20634895.7904
    362677.07044    282605.00744  23480731.9024   23480734.6924
 -13838254.42044 -10783031.89844  22963175.4594   22963179.4914
 -20529545.73944 -15997034.79344  21518152.5354   21518155.2944
 96  5 18  2 11  0.0000000  0  8G26G28G23G 3G17G22G21G 6
 -14523581.53744 -11317060.35344  22199830.3144   22199831.6674
 -13376446.647 4 -10423200.605 4  22757163.513    22757161.529
 -22756241.12644 -17732110.62944  20672990.6654   20672993.1904
  -3745402.41744  -2918494.63144  24607085.9164   24607089.2644
 -12924520.37544 -10071048.82644  20633553.5494   20633556.0844
    386027.56544    300800.17744  23485175.2584   23485178.9164
 -13913694.73144 -10841816.50944  22948819.6564   22948822.8574
 -20450233.71644 -15935233.24744  21533245.1984   21533247.9154
 96  5 18  2 11 30.0000000  0  8G26G28G23G 3G17G22G21G 6
 -14496593.36344 -11296030.60744  22204966.0014   22204967.6084
 -13467758.573 4 -10494352.729 4  22739787.366    22739785.448
 -22773280.45044 -17745388.01644  20669748.1854   20669750.6174
  -3850984.24644  -3000766.15044  24586994.2684   24586998.3724
 -12931355.23144 -10076374.68944  20632252.8334   20632255.4844
    409817.31944    319337.64844  23489702.3314   23489705.9664
 -13988923.32944 -10900436.14944  22934504.0044   22934507.5354
 -20370529.43744 -15873126.04444  21548412.4314   21548415.1394
 96  5 18  2 12  0.0000000  0  8G26G28G23G 3G17G22G21G 6
 -14469153.42944 -11274648.83244  22210187.5384   22210188.9804
 -13558944.602 4 -10565406.752 4  22722435.229    22722433.311
 -22790096.56244 -17758491.47244  20666548.1384   20666550.6354
  -3956607.62844  -3083070.05144  24566894.5844   24566896.2874
 -12938097.78544 -10081628.62544  20630969.7834   20630972.4974
    433928.12444    338125.26744  23494290.3534   23494294.1124
 -14064050.76744 -10958976.96244  22920207.7764   22920212.0494
 -20290545.28344 -15810800.75144  21563632.9104   21563635.4974
 96  5 18  2 12 30.0000000  0  8G26G28G23G 3G17G22G21G 6
 -14441229.83944 -11252890.18644  22215501.1734   22215502.8974
 -13649971.949 4 -10636337.131 4  22705113.292    22705111.364
 -22806631.97744 -17771376.20044  20663401.5654   20663404.2374
  -4062237.64444  -3165379.13044  24546794.1554   24546797.5014
 -12944717.96144 -10086787.20144  20629710.0184   20629712.6724
    458382.06644    357180.26844  23498943.8304   23498946.9714
 -14139032.72644 -11017404.41844  22905939.2534   22905942.7154
 -20210263.62344 -15748243.63744  21578909.9814   21578912.5724
 96  5 18  2 13  0.0000000  0  8G26G28G23G 3G17G22G21G 6
 -14412812.37344 -11230746.70444  22220908.7204   22220910.1394
 -13740823.039 4 -10707130.165 4  22687824.853    22687822.963
 -22822842.67644 -17784007.90244  20660316.7444   20660319.3874
  -4167857.48544  -3247680.25644  24526695.3154   24526697.8934
 -12951202.62844 -10091840.19444  20628476.0624   20628478.6374
    483185.83744    376507.87244  23503663.8944   23503667.4244
 -14213845.61644 -11075700.13544  22891702.6794   22891706.4574
 -20129670.01944 -15685443.45044  21594246.4744   21594249.0874
 96  5 18  2 13 30.0000000  0  8G26G28G23G 3G17G22G21G 6
 -14383797.99844 -11208138.09544  22226430.0534   22226431.6174
 -13831390.237 4 -10777701.985 4  22670590.452    22670588.547
 -22838606.37344 -17796291.29044  20657316.9914   20657319.5824
  -4273350.05844  -3329882.23044  24506620.5794   24506623.9184
 -12957444.78244 -10096704.21344  20627288.1964   20627290.7794
    508442.04044    396188.00844  23508469.8074   23508473.1034
 -14288394.05144 -11133789.78444  22877516.5934   22877520.0364
 -20048644.49044 -15622306.70244  21609665.1194   21609667.7304
 96  5 18  2 14  0.0000000  0  8G26G28G23G 3G17G22G21G 6
 -14354205.07544 -11185078.67144  22232061.4744   22232062.8964
 -13921690.953 4 -10848066.158 4  22653406.821    22653404.903
 -22853930.56344 -17808232.20844  20654400.9224   20654403.4794
  -4378713.00744  -3411983.18444  24486570.5804   24486573.7584
 -12963462.45744 -10101393.31244  20626143.1134   20626145.6844
    534124.33244    416200.17044  23513357.1234   23513360.3174
 -14362696.65244 -11191687.87044  22863377.2034   22863380.4914
 -19967192.78444 -15558837.87144  21625164.9724   21625167.3854
 96  5 18  2 14 30.0000000  0  8G26G28G23G 3G17G22G21G 6
 -14324037.94744 -11161571.81644  22237802.1904   22237803.1164
 -14011726.370 4 -10918223.605 4  22636273.678    22636271.722
 -22868821.24544 -17819835.32844  20651567.3144   20651569.8714
  -4483921.99944  -3493964.10544  24466531.8524   24466532.6634
 -12969269.31544 -10105918.14044  20625038.1164   20625040.6964
    560229.88744    436542.14344  23518324.8404   23518328.1114
 -14436748.85844 -11249390.84744  22849285.4594   22849289.4964
 -19885324.44144 -15495044.38844  21640743.9824   21640746.7564
 96  5 18  2 15  0.0000000  0  8G26G28G23G 3G17G22G21G 6
 -14293293.85844 -11137615.38444  22243652.5514   22243654.0564
 -14101498.369 4 -10988175.796 4  22619190.603    22619188.649
 -22883310.74344 -17831125.83644  20648810.0174   20648812.4394
  -4588276.66244                  24446548.6354
 -12974880.73744 -10110290.68244  20623970.3104   20623972.8934
    586755.26744    457211.24644  23523372.4284   23523375.0104
 -14510546.18944 -11306895.22144  22835242.2554   22835245.5674
 -19803044.39244 -15430930.09444  21656401.2924   21656404.0744
 96  5 18  2 15 30.0000000  0  7G26G28G23G17G22G21G 6
 -14261968.10244 -11113205.70344  22249613.5284   22249615.1584
 -14191009.398 4 -11057924.635 4  22602157.215    22602155.258
 -22897421.58844 -17842121.29144  20646124.7834   20646127.4514
 -12980299.10844 -10114512.78744  20622939.2204   20622941.7764
    613694.91544    478203.15744  23528498.8954   23528502.3404
 -14584082.21844 -11364195.98444  22821248.7804   22821252.2284
 -19720367.95544 -15366506.93044  21672134.1084   21672136.6384
 96  5 18  2 16  0.0000000  0  8G26G28G23G 3G17G22G21G 6
 -14230086.90044 -11088363.20644  22255680.3044   22255682.0644
 -14280267.540 4 -11127476.424 4  22585171.954    22585170.018
 -22911176.00344 -17852839.01144  20643507.4924   20643509.9454
        -0.58454        -0.25554  24406613.3824   24406615.5074
 -12985535.79444 -10118593.32444  20621942.6484   20621945.3304
    641050.02044    499518.80144  23533704.5424   23533707.8774
 -14657358.90044 -11421294.65644  22807304.7024   22807308.4484
 -19637320.27844 -15301794.48444  21687937.6004   21687940.3244
 96  5 18  2 16 30.0000000  0  8G26G28G23G 3G17G22G21G 6
 -14197635.21544 -11063076.17944  22261855.6434   22261856.9494
 -14369247.922 4 -11196811.774 4  22568239.520    22568237.567
 -22924569.90044 -17863275.80744  20640958.7514   20640961.2114
   -104771.03944    -81639.51244  24386676.0534   24386679.1374
 -12990560.73444 -10122508.86344  20620986.4604   20620989.0074
    668853.10444    521183.51944  23538995.3764   23538998.5574
 -14730348.73244 -11478169.80844  22793415.0224   22793418.6744
 -19553878.53744 -15236774.97944  21703816.1124   21703818.9964
 96  5 18  2 17  0.0000000  0  8G26G28G23G 3G17G22G21G 6
 -14164634.51844 -11037361.34544  22268135.3304   22268136.9724
 -14457964.766 4 -11265941.772 4  22551357.250    22551355.301
 -22937621.33144 -17873445.74744  20638475.0554   20638477.5604
   -209460.10944   -163215.35244  24366754.3494   24366757.4964
 -12995368.21744 -10126254.95644  20620071.6254   20620074.2284
    697098.32044    543192.75544  23544370.2404   23544373.3764
 -14803082.71344 -11534845.60444  22779574.2514   22779577.7924
 -19470058.10644 -15171460.39144  21719766.5624   21719769.5874
 96  5 18  2 17 30.0000000  0  8G26G28G23G 3G17G22G21G 6
 -14131075.28244 -11011211.29044  22274521.5494   22274523.0074
 -14546392.618 4 -11334846.581 4  22534529.867    22534528.074
 -22950289.35344 -17883316.92744  20636064.3944   20636066.8304
   -314033.02144   -244700.69344  24346854.8784   24346857.0804
 -12999929.90844 -10129809.53244  20619203.6434   20619206.1414
    725822.64144    565575.33444  23549836.3304   23549839.9744
 -14875558.60544 -11591320.29244  22765782.5624   22765786.2894
 -19385837.98244 -15105834.35444  21735793.1474   21735795.8044
 96  5 18  2 18  0.0000000  0  8G26G28G23G 3G17G22G21G 6
 -14096687.43244 -10984415.56244  22281065.5044   22281067.0174
 -14634258.167 4 -11403313.232 4  22517809.563    22517807.830
 -22962301.95044 -17892677.38244  20633778.5464   20633780.8724
   -418210.71344   -325878.06744  24327030.4724   24327033.7494
 -13003973.12944 -10132960.10644  20618434.2484   20618436.6734
    755298.30844    588543.34144  23555445.3044   23555448.4984
 -14947512.49344 -11647388.22244  22752090.0764   22752093.5904
 -19300943.92244 -15039683.17544  21751948.0004   21751950.4084
 96  5 18  2 18 30.0000000  0  8G26G28G23G 3G17G22G21G 6
 -14062140.81244 -10957496.11544  22287639.5324   22287641.0404
 -14722247.753 4 -11471876.542 4  22501065.780    22501063.961
 -22974338.29644 -17902056.34344  20631488.0614   20631490.5984
   -522677.37644   -407280.63744  24307151.1214   24307154.3084
 -13008180.79144 -10136238.81044  20617633.5734   20617636.1604
    784818.08644    611545.75544  23561062.8754   23561066.6054
 -15019636.36344 -11703588.60444  22738365.3814   22738368.6164
 -19216084.17944 -14973558.73244  21768096.2014   21768099.0154
 96  5 18  2 19  0.0000000  0  8G26G28G23G 3G17G22G21G 6
 -14027016.71144 -10930126.68444  22294323.4724   22294324.6334
 -14809942.333 4 -11540209.972 4  22484377.909    22484376.262
 -22985965.54444 -17911116.52544  20629275.3974   20629277.6744
   -627002.03044   -488572.50744  24287298.6784   24287302.5914
 -13012146.35044 -10139328.86144  20616878.9254   20616881.2584
    814782.96444    634894.98844  23566764.9674   23566768.0524
 -15091518.18944 -11759600.37544  22724686.7674   22724689.9784
 -19130861.96244 -14907151.83944  21784313.5234   21784316.2164
 96  5 18  2 19 30.0000000  0  8G26G28G23G 3G17G22G21G 6
 -13991094.03444 -10902134.98744  22301159.1984   22301160.3324
 -14897123.869 4 -11608143.631 4  22467787.827    22467786.122
 -22996964.57744 -17919687.19544  20627182.3564   20627184.5134
   -730950.27044   -569571.10944  24267518.0174   24267520.3424
 -13015664.97944 -10142070.64944  20616209.3364   20616211.6394
    845384.54544    658740.35744  23572588.2094   23572592.0554
 -15162929.75644 -11815245.73044  22711097.5014   22711100.5154
 -19045062.12744 -14840294.86144  21800640.7474   21800643.5554
 96  5 18  2 20  0.0000000  0  8G26G28G23G 3G17G22G21G 6
 -13954716.03344 -10873788.48844  22308081.6474   22308083.1594
 -14984134.808 4 -11675944.356 4  22451230.171    22451228.461
 -23007693.28244 -17928047.21644  20625140.7904   20625143.0354
   -834866.88844   -650545.06244  24247743.2564   24247746.3524
 -13019073.15744 -10144726.37344  20615560.8454   20615563.1804
    876257.77644    682797.40244  23578463.3144   23578466.3474
 -15234212.20744 -11870790.45944  22697532.9104   22697536.1294
 -18959036.85144 -14773262.21544  21817010.8254   21817013.5834
 96  5 18  2 20 30.0000000  0  8G26G28G23G 3G17G22G21G 6
 -13917921.48344 -10845117.40844  22315083.5444   22315085.0664
 -15071007.062 4 -11743637.014 4  22434698.973    22434697.194
 -23018178.12344 -17936217.21344  20623145.4914   20623147.8434
   -938796.75544   -731529.34144  24227965.9374   24227968.4394
 -13022414.98344 -10147330.39644  20614924.8844   20614927.2324
    907360.53344    707033.29044  23584382.0684   23584384.5904
 -15305405.36044 -11926265.61144  22683985.2744   22683988.4464
 -18872824.99344 -14706084.17744  21833416.4464   21833419.0064
 96  5 18  2 21  0.0000000  0  8G26G28G23G 3G17G22G21G 6
 -13880490.71944 -10815950.57044  22322206.4354   22322207.6624
 -15157509.560 4 -11811041.549 4  22418238.061    22418236.317
 -23028189.44844 -17944018.23844  20621240.4694   20621242.6834
  -1042510.78244   -812345.43244  24208229.8594   24208232.4994
 -13025469.98444 -10149710.91144  20614343.5334   20614345.6554
    938934.53844    731636.39144  23590390.4044   23590393.5154
 -15376286.37144 -11981497.53044  22670497.1334   22670500.3424
 -18786173.13444 -14638563.28044  21849905.8394   21849908.5624
 96  5 18  2 21 30.0000000  0  8G26G28G23G 3G17G22G21G 6
 -13842503.69944 -10786350.30044  22329434.9834   22329436.5124
 -15243718.336 4 -11878217.207 4  22401833.080    22401831.333
 -23037812.65044 -17951516.82944  20619409.2944   20619411.6144
  -1146096.57644   -893061.59044  24188518.1884   24188520.5564
 -13028309.77044 -10151923.73544  20613803.1924   20613805.5464
    970912.48044    756554.23544  23596475.6734   23596478.7994
 -15446934.14744 -12036547.71144  22657053.2334   22657056.3874
 -18699154.30644 -14570756.44144  21866465.0144   21866467.7594
 96  5 18  2 22  0.0000000  0  8G26G28G23G 3G17G22G21G 6
 -13803905.64944 -10756273.89144  22336780.0404   22336781.4054
 -15329564.659 4 -11945110.435 4  22385497.033    22385495.345
 -23046985.19944 -17958664.26244  20617663.7724   20617665.9594
  -1249510.64544   -973643.97644  24168839.1314   24168842.3174
 -13030874.36744 -10153922.12244  20613315.2274   20613317.5414
   1003373.53744    781848.55344  23602652.7184   23602655.7124
 -15517281.85144 -12091364.06544  22643666.5124   22643669.6004
 -18611705.46044 -14502614.51644  21883105.8664   21883108.1334
 96  5 18  2 22 30.0000000  0  8G26G28G23G 3G17G22G21G 6
 -13764749.73644 -10725762.78644  22344231.1004   22344232.5564
 -15415091.228 4 -12011754.503 4  22369221.876    22369220.192
 -23055749.69644 -17965493.72644  20615995.9174   20615998.0664
  -1352801.78544  -1054130.55944  24149183.4274   24149185.5704
 -13033219.97444 -10155749.86844  20612868.7704   20612871.0604
   1036275.65544    807486.53544  23608913.9084   23608917.4724
 -15587352.95144 -12145964.88744  22630332.4064   22630335.6164
 -18523858.90744 -14434162.69644  21899822.6934   21899825.1384
 96  5 18  2 23  0.0000000  0  8G26G28G23G 3G17G22G21G 6
 -13725066.19744 -10694840.54344  22351782.5524   22351783.8074
 -15500311.080 4 -12078159.571 4  22353005.061    22353003.378
 -23064137.50944 -17972029.66944  20614399.7874   20614401.9464
  -1455961.77544  -1134514.93344  24129552.6904   24129555.3604
 -13035360.03444 -10157417.44744  20612461.5194   20612463.8174
   1069609.59244    833461.00044  23615257.2004   23615259.9344
 -15657154.24444 -12200355.46844  22617049.5594   22617052.9364
 -18435627.32344 -14365410.84144  21916612.5694   21916614.9204
 96  5 18  2 23 30.0000000  0  8G26G28G23G 3G17G22G21G 6
 -13684840.78444 -10663496.06244  22359437.2194   22359438.2414
 -15585201.691 4 -12144308.085 4  22336850.894    22336849.244
 -23072148.99744 -17978272.37744  20612875.1954   20612877.3904
  -1558962.39044  -1214775.12644  24109952.4444   24109954.8624
 -13037273.39344 -10158908.37544  20612097.4924   20612099.7454
   1103376.87344    859773.15144  23621682.8274   23621685.8874
 -15726660.85444 -12254516.42144  22603822.9554   22603826.1434
 -18347001.98944 -14296352.17644  21933477.4344   21933479.8274
 96  5 18  2 24  0.0000000  0  8G26G28G23G 3G17G22G21G 6
 -13644060.77644 -10631719.42744  22367197.2964   22367198.3984
 -15669745.805 4 -12210186.601 4  22320762.652    22320760.997
 -23079774.81044 -17984214.56244  20611424.1034   20611426.1504
  -1661767.69944  -1294883.14044  24090389.1184   24090392.9804
 -13038947.41244 -10160212.80244  20611778.9254   20611781.3264
   1137570.07844    886417.18444  23628189.7484   23628192.6724
 -15795860.11944 -12308437.89444  22590654.8014   22590658.1054
 -18257961.43044 -14226969.95844  21950421.4384   21950423.7494
 96  5 18  2 24 30.0000000  0  8G26G28G23G 3G17G22G21G 6
 -13602740.32044 -10599521.66744  22375060.4544   22375061.6274
 -15753962.923 4 -12275810.316 4  22304736.637    22304734.953
 -23087045.99944 -17989880.41144  20610040.4384   20610042.4864
  -1764377.67644  -1374838.94144  24070863.1804   24070865.5184
 -13040398.81644 -10161343.76644  20611502.6794   20611505.0474
   1172161.85744    913371.80044  23634772.2014   23634774.8874
 -15864792.46544 -12362151.37744  22577537.3384   22577540.3224
 -18168529.51744 -14157282.78944  21967439.7384   21967442.1004
 96  5 18  2 25  0.0000000  0  8G26G28G23G 3G17G22G21G 6
 -13560805.61844 -10566845.26844  22383040.3824   22383041.6054
 -15837791.804 4 -12341131.504 4  22288784.499    22288782.793
 -23093903.49144 -17995223.90644  20608735.4724   20608737.5374
  -1866723.97544  -1454589.28044  24051387.1784   24051390.6594
 -13041558.43844 -10162247.36444  20611281.9804   20611284.1514
   1207202.46744    940676.14344  23641440.0884   23641443.2884
 -15933421.27744 -12415628.34144  22564477.6544   22564480.6764
 -18078666.96344 -14087260.06644  21984540.0934   21984542.1914
 96  5 18  2 25 30.0000000  0  8G26G28G23G 3G17G22G21G 6
 -13518573.32044 -10533936.98444  22391076.8494   22391078.3644
 -15921554.166 4 -12406400.866 4  22272845.182    22272843.287
 -23100663.60744 -18000491.52144  20607449.0684   20607451.4314
  -1969143.82644  -1534396.92544  24031897.1284   24031900.3574
 -13042736.19844 -10163165.10144  20611057.8944   20611060.4834
   1242365.32944    968075.74344  23648131.3124   23648134.6804
 -16002078.03844 -12469127.08244  22551412.6544   22551415.7864
 -17988711.97044 -14017165.31144  22001657.8284   22001660.5474
 96  5 18  2 26  0.0000000  0  8G26G28G23G 3G17G22G21G 6
 -13476116.90244 -10500854.06244  22399155.8614   22399157.2494
 -16005315.504 4 -12471669.424 4  22256905.965    22256903.985
 -23107379.97544 -18005725.04444  20606170.9334   20606173.3814
  -2071711.53544  -1614319.80144  24012379.2024   24012382.3354
 -13044001.01544 -10164150.67144  20610817.1584   20610819.7484
   1277601.41844    995532.40744  23654836.5664   23654840.5574
 -16070824.21044 -12522695.49144  22538330.6784   22538333.9824
 -17898742.20044 -13947059.03644  22018778.5714   22018781.3714
 96  5 18  2 26 30.0000000  0  8G26G28G23G 3G17G22G21G 6
 -13432802.25044 -10467102.37944  22407398.4484   22407400.5354
 -16088438.746 4 -12536440.769 4  22241088.130    22241086.159
 -23113414.57844 -18010427.32744  20605022.5364   20605024.9104
  -2173806.32544  -1693874.15344  23992951.1674   23992955.8554
 -13044717.31144 -10164708.82044  20610680.8284   20610683.3404
   1313562.65844   1023554.12344  23661679.7424   23661683.2174
 -16139010.24444 -12575827.43144  22525355.2704   22525358.5654
 -17808138.29844 -13876458.63544  22036019.9074   22036022.9694
 96  5 18  2 27  0.0000000  0  8G26G28G23G 3G17G22G21G 6
 -13388726.42744 -10432757.58244  22415785.9084   22415787.8334
 -16171009.705 4 -12600781.766 4  22225375.386    22225373.428
 -23118840.92344 -18014655.64344  20603989.9644   20603992.3854
  -2275522.44344  -1773133.43244  23973595.1494   23973598.5244
 -13044971.69144 -10164907.03444  20610632.5144   20610635.2604
   1350163.79544   1052074.45644  23668644.7484   23668647.8014
 -16206701.48844 -12628573.82244  22512473.9384   22512477.1244
 -17716992.79444 -13805436.20444  22053364.3464   22053367.4774
 96  5 18  2 27 30.0000000  0  8G26G28G23G 3G17G22G21G 6
 -13344017.96244 -10397919.81444  22424293.7124   22424295.1314
 -16253142.216 4 -12664781.116 4  22209746.087    22209744.113
 -23123775.41544 -18018500.69144  20603051.0124   20603053.3294
  -2376977.11044  -1852188.98744  23954289.0524   23954293.1894
 -13044891.08544 -10164844.22044  20610647.6854   20610650.3304
   1387292.41644   1081005.81944  23675710.1094   23675714.5624
 -16274004.95844 -12681018.05444  22499666.4374   22499669.6484
 -17625409.88244 -13734072.94344  22070792.0434   22070795.1334
 96  5 18  2 28  0.0000000  0  8G26G28G23G 3G17G22G21G 6
 -13298865.97544 -10362736.44744  22432885.7034   22432886.7654
 -16335033.884 4 -12728592.795 4  22194162.591    22194160.658
 -23128420.93644 -18022120.57044  20602166.9434   20602169.3164
  -2478362.01544  -1931190.17144  23934996.0474   23935000.0324
 -13044681.21944 -10164680.68344  20610687.6464   20610690.3384
   1424732.21344   1110179.66544  23682834.7424   23682838.4344
 -16341120.75744 -12733316.04444  22486894.6984   22486898.0664
 -17533581.71444 -13662518.56844  22088266.3444   22088269.3054
 96  5 18  2 28 30.0000000  0  8G26G28G23G 3G17G22G21G 6
 -13253311.16544 -10327239.18444  22441554.4664   22441556.2414
 -16416735.342 4 -12792256.259 4  22178615.313    22178613.419
 -23132837.92344 -18025562.37444  20601326.4574   20601328.8704
  -2579721.01344  -2010171.19544  23915707.9924   23915711.2464
 -13044388.41844 -10164452.52044  20610743.3904   20610745.8914
   1462411.13244   1139539.82244  23690004.8974   23690008.3784
 -16408107.75544 -12785513.67944  22474147.4424   22474150.7904
 -17441550.61744 -13590806.07244  22105779.2644   22105782.1564
 96  5 18  2 29  0.0000000  0  8G26G28G23G 3G17G22G21G 6
 -13207161.12544 -10291278.11944  22450336.5584   22450337.9784
 -16498052.580 4 -12855620.332 4  22163141.134    22163139.215
 -23136831.03744 -18028673.88644  20600566.5804   20600568.9924
  -2680861.48844  -2088981.91944  23896461.5934   23896466.0394
 -13043819.02444 -10164008.83344  20610851.7304   20610854.2954
   1500502.11644   1169221.08244  23697253.2704   23697257.2804
 -16474797.89744 -12837479.99644  22461456.8144   22461460.0024
 -17349121.95044 -13518783.76644  22123367.8614   22123371.0004
 96  5 18  2 29 30.0000000  0  8G26G28G23G 3G17G22G21G 6
 -13160447.08044 -10254877.56544  22459225.9574   22459227.7284
 -16579017.844 4 -12918710.134 4  22147733.919    22147731.981
 -23140451.90444 -18031495.33744  20599877.4834   20599879.8844
  -2781821.09544  -2167651.71044  23877249.7804   23877253.4724
 -13043002.84744 -10163372.84644  20611007.0574   20611009.7274
   1538958.12544   1199186.77844  23704571.2524   23704574.6574
 -16541233.28844 -12889247.80644  22448814.6194   22448817.7974
 -17256334.48144 -13446481.88444  22141024.8674   22141027.5694
 96  5 18  2 30  0.0000000  0  8G26G28G23G 3G17G22G21G 6
 -13113166.91244 -10218035.87644  22468223.1784   22468224.6364
 -16659624.555 4 -12981520.545 4  22132394.956    22132393.027
 -23143703.45944 -18034029.00544  20599258.7434   20599261.0074
  -2882601.69344  -2246182.02944  23858071.8474   23858075.4754
 -13041931.30144 -10162537.86644  20611210.9454   20611213.5364
   1577787.18644   1229443.15744  23711960.3564   23711963.5584
 -16607397.62044 -12940804.39844  22436224.0294   22436227.2154
 -17163188.30744 -13373900.49044  22158749.9754   22158753.1484
 96  5 18  2 30 30.0000000  0  8G26G28G23G 3G17G22G21G 6
 -13065360.86244 -10180784.41044  22477320.1944   22477321.6004
 -16739884.199 4 -13044060.514 4  22117122.051    22117120.120
 -23146592.61644 -18036280.28844  20598708.9654   20598711.3314
  -2983218.08644  -2324584.38644  23838925.2274   23838928.9724
 -13040622.95544 -10161518.37444  20611459.8894   20611462.4934
   1616991.44744   1259991.89644  23719420.6734   23719424.0084
 -16673291.44244 -12992150.20844  22423684.7194   22423687.9294
 -17069704.45144 -13301055.96244  22176539.3184   22176542.5884
 96  5 18  2 31  0.0000000  0  8G26G28G23G 3G17G22G21G 6
 -13017051.08044 -10143140.42544  22486513.1014   22486514.5004
 -16819796.902 4 -13106330.140 4  22101915.184    22101913.240
 -23149126.62244 -18038254.83344  20598226.7324   20598229.1354
  -3083661.65344  -2402852.05944  23819811.5924   23819814.7424
 -13039085.05044 -10160320.00244  20611752.4984   20611755.0364
   1656571.76044   1290833.68144  23726952.5514   23726955.8564
 -16738913.36244 -13043284.14944  22411197.3134   22411200.4684
 -16975901.46644 -13227962.76844  22194389.4004   22194392.4904
 96  5 18  2 31 30.0000000  0  8G26G28G23G 3G17G22G21G 6
 -12968239.82144 -10105105.68144  22495801.6504   22495803.4214
 -16899352.035 4 -13168321.141 4  22086776.324    22086774.405
 -23151308.55044 -18039955.03344  20597811.5134   20597813.9234
  -3183907.11644  -2480965.38644  23800735.4204   23800738.1984
 -13037317.37544 -10158942.59344  20612089.0294   20612091.5394
   1696553.08344   1321987.93644  23734560.7034   23734564.1784
 -16804237.04844 -13094185.70144  22398766.5714   22398769.7514
 -16881763.07644 -13154608.21744  22212303.4434   22212306.5104
 96  5 18  2 32  0.0000000  0  8G26G28G23G 3G17G22G21G 6
 -12918928.54044 -10066681.30344  22505185.3694   22505187.0464
 -16978540.594 4 -13230026.501 4  22071707.235    22071705.281
 -23153120.48544 -18041366.92144  20597466.7484   20597469.1044
  -3283934.62344  -2558908.86744  23781700.8194   23781705.1444
 -13035324.36544 -10157389.60044  20612468.1674   20612470.6484
   1736939.48044   1353457.82644  23742245.9964   23742249.1154
 -16869268.09244 -13144859.21944  22386391.6084   22386394.8024
 -16787276.97344 -13080982.72144  22230283.4964   22230286.7194
 96  5 18  2 32 30.0000000  0  8G26G28G23G 3G17G22G21G 6
 -12869185.12944 -10027920.21044  22514651.2004   22514652.7254
 -17057428.869 4 -13291497.871 4  22056695.287    22056693.305
 -23154633.75844 -18042546.08944  20597178.7534   20597181.2294
  -3383797.33444  -2636723.94644  23762697.6324   23762700.7874
 -13033175.67044 -10155715.28844  20612877.0834   20612879.6084
   1777643.87344   1385175.51444  23749991.5614   23749995.2464
 -16934102.85244 -13195379.78944  22374053.9254   22374057.1814
 -16692522.55344 -13007148.15344  22248314.8434   22248317.9954
 96  5 18  2 33  0.0000000  0  8G26G28G23G 3G17G22G21G 6
 -12818930.49144  -9988760.75744  22524214.3794   22524215.8354
 -17135957.339 4 -13352688.871 4  22041751.809    22041749.868
 -23155801.32544 -18043455.87244  20596956.5044   20596958.9374
  -3483429.41044  -2714359.32044  23743738.2404   23743740.6414
 -13030810.19344 -10153872.04944  20613327.1974   20613329.7744
   1818702.09944   1417168.90144  23757804.5904   23757808.1734
 -16998701.02044 -13245715.99644  22361761.2384   22361764.5394
 -16597434.69444 -12933053.76344  22266409.5564   22266412.7094
 96  5 18  2 33 30.0000000  0  8G26G28G23G 3G17G22G21G 6
 -12768145.26744  -9949187.86044  22533878.4894   22533880.2514
 -17214118.697 4 -13413593.810 4  22026878.181    22026876.268
 -23156604.82544 -18044081.96044  20596803.6004   20596806.0304
  -3582831.84144  -2791815.73744  23724822.5604   23724825.6864
 -13028223.61844 -10151856.53144  20613819.4154   20613822.0274
   1860112.90344   1449437.02944  23765684.7614   23765688.3654
 -17063063.44644 -13295868.51044  22349513.4544   22349516.6584
 -16502008.10444 -12858695.42744  22284568.6584   22284571.7774
 96  5 18  2 34  0.0000000  0  8G26G28G23G 3G17G22G21G 6
 -12716826.48344  -9909199.20244  22543644.0064   22543645.6894
 -17291912.191 4 -13474212.102 4  22012074.550    22012072.647
 -23157043.07144 -18044423.43744  20596720.2024   20596722.6684
  -3682008.63444  -2869096.33544  23705949.9344   23705952.0854
 -13025407.24344 -10149661.95244  20614355.3414   20614357.8734
   1901860.27044   1481967.43544  23773629.1874   23773633.4034
 -17127197.15844 -13345842.81044  22337309.1804   22337312.4154
 -16406271.20844 -12784095.29844  22302786.8574   22302789.8984
 96  5 18  2 34 30.0000000  0  8G26G28G23G 3G17G22G21G 6
 -12664984.44544  -9868802.81344  22553509.3044   22553510.8094
 -17369353.865 4 -13534556.250 4  21997337.857    21997335.959
 -23157139.85244 -18044498.83844  20596701.7364   20596704.0814
  -3780977.71844  -2946215.07944  23687116.5084   23687119.7044
 -13022365.23944 -10147291.55544  20614934.2694   20614936.8904
   1943928.42744   1514747.77844  23781634.5444   23781637.7504
 -17191107.32144 -13395642.90844  22325147.4184   22325150.6434
 -16310253.21044 -12709276.12444  22321058.4614   22321060.9514
 96  5 18  2 35  0.0000000  0  8G26G28G23G 3G17G22G21G 6
 -12612607.74944  -9827989.80744  22563476.3744   22563477.7714
 -17446432.357 4 -13594617.398 4  21982670.183    21982668.412
 -23156878.94644 -18044295.53244  20596751.4394   20596753.7814
  -3879730.38544  -3023165.18844  23668324.6014   23668327.2694
 -13019074.12644 -10144727.05444  20615560.5344   20615562.9494
   1986338.08144   1547794.24244  23789704.9764   23789708.0344
 -17254769.05444 -13445249.42944  22313033.0004   22313036.3594
 -16213947.02544 -12634232.38744  22339385.0284   22339388.1274
 96  5 18  2 35 30.0000000  0  8G26G28G23G 3G17G22G21G 6
 -12559350.69044  -9786490.80244  22573610.8944   22573612.4484
 -17522788.707 4 -13654115.841 4  21968140.003    21968138.310
 -23155913.36844 -18043543.13644  20596935.1814   20596937.3224
  -3977924.87244  -3099680.34544  23649638.7684   23649640.8154
 -13015163.82944 -10141680.06744  20616304.7084   20616307.0504
   2029461.35144   1581396.77344  23797911.1304   23797914.3344
 -17317821.40344 -13494381.10144  22301034.5694   22301037.6964
 -16117012.73944 -12558699.22544  22357831.0364   22357834.0614
 96  5 18  2 36  0.0000000  0  7G26G28G23G 3G17G21G 6
 -12505714.94844  -9744696.72444  22583817.4274   22583818.8844
 -17598913.257 4 -13713433.664 4  21953654.040    21953652.267
 -23154753.05344 -18042638.99644  20597156.0404   20597158.2554
  -4076062.93644  -3176151.55744  23630963.5944   23630966.2234
 -13011112.13844 -10138522.90444  20617075.6834   20617078.1314
 -17380757.23744 -13543421.99144  22289058.2484   22289061.4214
 -16019937.48544 -12483056.21844  22376303.8654   22376306.9624
 96  5 18  2 36 30.0000000  0  7G26G28G23G 3G17G21G 6
 -12452214.60744  -9703008.15244  22593998.1714   22593999.5034
 -17675314.859 4 -13772967.372 4  21939115.369    21939113.517
 -23153910.75944 -18041982.66044  20597316.2754   20597318.6154
  -4174653.52344  -3252975.37044  23612202.4524   23612204.8714
 -13007435.90844 -10135658.31144  20617775.1824   20617777.7234
 -17444082.74144 -13592766.51044  22277007.7694   22277010.9834
 -15923218.09444 -12407690.50944  22394708.9114   22394712.0774
 96  5 18  2 37  0.0000000  0  7G26G28G23G 3G17G21G 6
 -12398125.47544  -9660860.77944  22604291.0414   22604292.7014
 -17751252.711 4 -13832139.715 4  21924664.865    21924663.037
 -23152657.79144 -18041006.31444  20597554.6924   20597556.9874
  -4272957.76644  -3329576.06544  23593495.7814   23593498.9184
 -13003414.16844 -10132524.48544  20618540.5364   20618542.9934
 -17507058.09344 -13641838.19244  22265023.9994   22265027.2914
 -15826115.38144 -12332026.10244  22413186.9544   22413189.6914
 96  5 18  2 37 30.0000000  0  8G26G28G23G 3G17G 1G21G 6
 -12343259.42444  -9618108.02044  22614731.5544   22614733.2694
 -17826522.456 4 -13890791.455 4  21910341.480    21910339.699
 -23150792.32844 -18039552.69644  20597909.6594   20597912.0164
  -4370779.71844  -3405800.94644  23574880.7664   23574884.2894
 -12998873.79144 -10128986.53044  20619404.5374   20619407.1204
        -1.20654        -0.13254  25170131.2184   25170138.7924
 -17569480.49544 -13690478.99744  22253145.2774   22253148.4284
 -15728420.40144 -12255900.19944  22431777.7094   22431780.7894
 96  5 18  2 38  0.0000000  0  8G26G28G23G 3G17G 1G21G 6
 -12287780.07044  -9574877.36244  22625289.0554   22625290.6274
 -17901282.097 4 -13949045.711 4  21896115.199    21896113.389
 -23148453.87044 -18037730.51444  20598354.6134   20598356.9264
  -4468258.90144  -3481758.72044  23556331.0894   23556334.1584
 -12994004.07044 -10125191.94244  20620331.2404   20620333.6564
   -109915.26144    -85647.08044  25149214.9574   25149223.6444
 -17631495.83144 -13738802.61044  22241344.1954   22241347.3564
 -15630282.86944 -12179429.43844  22450452.7344   22450455.8314
 96  5 18  2 38 30.0000000  0  8G26G28G23G 3G17G 1G21G 6
 -12231783.28844  -9531243.50444  22635944.9014   22635946.0974
 -17975618.114 4 -14006969.870 4  21881969.533    21881967.696
 -23145731.28344 -18035609.01344  20598872.7354   20598875.1094
  -4565475.05044  -3557511.55044  23537831.5264   23537834.6234
 -12988917.93944 -10121228.72644  20621299.0844   20621301.5774
   -219864.35644   -171321.31344  25128291.9474   25128300.6354
 -17693194.04544 -13786879.11544  22229603.4504   22229606.6064
 -15531797.40644 -12102687.57344  22469193.8774   22469197.0364
 96  5 18  2 39  0.0000000  0  8G26G28G23G 3G17G 1G21G 6
 -12175310.37644  -9487238.64444  22646691.3444   22646692.5704
 -18049562.443 4 -14064588.819 4  21867898.396    21867896.549
 -23142654.63844 -18033211.62244  20599458.1944   20599460.6204
  -4662475.08444  -3633095.96644  23519372.9634   23519376.3864
 -12983637.92844 -10117114.43744  20622303.8434   20622306.3544
   -329889.56744   -257054.90344  25107354.4034   25107359.7994
 -17754620.72544 -13834744.03444  22217914.3254   22217917.4814
 -15432998.91744 -12025701.78144  22487994.6334   22487997.8334
 96  5 18  2 39 30.0000000  0  8G26G28G23G 3G17G 1G21G 6
 -12118362.94244  -9442864.02744  22657527.9494   22657529.5774
 -18123123.625 4 -14121909.215 4  21853900.172    21853898.314
 -23139228.75544 -18030542.09744  20600110.0744   20600112.4704
  -4759271.00144  -3708521.33344  23500953.1774   23500956.2294
 -12978156.12044 -10112842.90844  20623346.9714   20623349.4634
   -440001.30044   -342855.86944  25086400.6744   25086410.8514
 -17815791.61444 -13882409.63844  22206273.8004   22206277.0104
 -15333907.68344 -11948487.87944  22506851.0464   22506854.1454
 96  5 18  2 40  0.0000000  0  8G26G28G23G 3G17G 1G21G 6
 -12060941.80844  -9398120.28644  22668454.8444   22668456.4534
 -18196303.080 4 -14178932.160 4  21839974.563    21839972.702
 -23135473.65244 -18027616.03644  20600824.7004   20600827.0984
  -4855844.70244  -3783773.55744  23482575.9194   23482578.6264
 -12972450.36244 -10108396.86744  20624432.7534   20624435.2784
   -550205.02044   -428728.55044  25065429.3984   25065435.8614
 -17876718.73344 -13929885.29144  22194679.7044   22194682.9064
 -15234544.78344 -11871062.28744  22525759.2964   22525762.4974
 96  5 18  2 40 30.0000000  0  8G26G28G23G 3G17G 1G21G 6
 -12003042.54244  -9353003.98144  22679472.8694   22679474.3094
 -18269088.549 4 -14235648.104 4  21826123.939    21826122.065
 -23131397.99744 -18024440.19644  20601600.2624   20601602.5904
  -4952184.95844  -3858843.86144  23464242.9324   23464246.1434
 -12966486.83444 -10103749.96444  20625567.6134   20625570.1724
   -660491.90744   -514666.01744  25044442.2264   25044448.6344
 -17937413.49944 -13977179.89044  22183129.8174   22183133.0684
 -15134918.18444 -11793431.22344  22544717.6824   22544720.5624
 96  5 18  2 41  0.0000000  0  8G26G28G23G 3G17G 1G21G 6
 -11944645.66144  -9307499.92744  22690585.4214   22690587.6434
 -18341469.289 4 -14292048.674 4  21812350.338    21812348.479
 -23126984.35544 -18021000.98344  20602440.1944   20602442.5404
  -5048272.78044  -3933717.47744  23445958.0764   23445961.2504
 -12960244.67344 -10098885.94544  20626755.3764   20626757.8604
   -770847.08044   -600656.76244  25023442.0564   25023447.9144
 -17997866.62344 -14024286.19544  22171625.9924   22171629.1724
 -15035028.00744 -11715594.76044  22563726.1904   22563729.3624
 96  5 18  2 41 30.0000000  0  8G26G28G23G 3G17G 1G21G 6
 -11885732.31244  -9261593.41944  22701796.1414   22701797.9954
 -18413435.372 4 -14348126.134 4  21798655.632    21798653.785
 -23122233.87644 -18017299.29844  20603344.0694   20603346.4684
  -5144071.98644  -4008366.17844  23427728.1134   23427730.9324
 -12953731.93044 -10093811.08244  20627994.7944   20627997.2244
   -881252.81344   -686686.84344  25002432.4024   25002439.2044
 -18058068.95944 -14071197.08644  22160169.8774   22160173.1094
 -14934874.83144 -11637553.37544  22582784.7114   22582787.8594
 96  5 18  2 42  0.0000000  0  8G26G28G23G 3G17G 1G21G 6
 -11826344.44344  -9215317.16144  22713097.2884   22713098.8554
 -18485010.659 4 -14403899.078 4  21785035.303    21785033.457
 -23117172.77044 -18013355.56744  20604307.1604   20604309.4354
  -5239606.72244  -4082808.81544  23409548.4114   23409551.4264
 -12946983.13544 -10088552.27944  20629279.0534   20629281.5204
   -991732.62244   -772774.70244  24981408.6214   24981417.0614
 -18118047.46744 -14117933.56644  22148756.3934   22148759.7504
 -14834473.68944 -11559318.76544  22601890.5074   22601893.6154
 96  5 18  2 42 30.0000000  0  8G26G28G23G 3G17G 1G21G 6
 -11766467.79044  -9168660.03144  22724491.4144   22724492.5694
 -18556176.570 4 -14459353.027 4  21771492.879    21771491.024
 -23111771.70844 -18009146.95144  20605334.9794   20605337.2824
  -5334886.85744  -4157053.06644  23391417.1684   23391420.0424
 -12939986.36244 -10083100.24844  20630610.4954   20630612.9794
  -1102261.21144   -858900.54044  24960375.3214   24960384.2574
 -18177771.26744 -14164471.56744  22137391.3044   22137394.4924
 -14733790.12444 -11480864.08644  22621050.0854   22621052.9894
 96  5 18  2 43  0.0000000  0  8G26G28G23G 3G17G 1G21G 6
 -11706098.28744  -9121618.87044  22735979.4944   22735981.0734
 -18626936.197 4 -14514490.391 4  21758027.732    21758025.903
 -23106034.79544 -18004676.64044  20606426.7044   20606429.1164
  -5429923.24944  -4231107.38344  23373332.4814   23373335.6084
 -12932749.96644 -10077461.49944  20631987.5114   20631989.9834
  -1212837.69644   -945063.70844  24939333.2704   24939339.9824
 -18237224.04544 -14210798.38444  22126077.8414   22126081.0224
 -14632811.92044 -11402179.82044  22640265.7044   22640268.6744
 96  5 18  2 43 30.0000000  0  8G26G28G23G 3G17G 1G21G 6
 -11645258.51544  -9074211.25544  22747556.9124   22747558.6094
 -18697294.821 4 -14569315.287 4  21744638.928    21744637.088
 -23099985.75444 -17999963.10644  20607577.7654   20607580.1724
  -5524731.82144  -4304984.17744  23355290.8324   23355294.5874
 -12925283.74444 -10071643.66744  20633408.2704   20633410.8044
  -1323475.33244  -1031274.55144  24918279.3294   24918286.5084
 -18296399.90844 -14256909.42444  22114817.0364   22114820.2124
 -14531543.13944 -11323269.12344  22659536.5744   22659539.6164
 96  5 18  2 44  0.0000000  0  8G26G28G23G 3G17G 1G21G 6
 -11583951.77044  -9026439.77444  22759223.1704   22759224.6124
 -18767244.312 4 -14623821.376 4  21731327.936    21731326.116
 -23093621.04544 -17995003.58644  20608788.9214   20608791.2694
  -5619328.44044  -4378695.81744  23337289.7504   23337293.3734
 -12917581.13044 -10065641.63044  20634874.0754   20634876.5994
  -1434173.70344  -1117532.71844  24897213.9784   24897220.8924
 -18355290.29244 -14302798.01444  22103610.5844   22103613.7834
 -14429980.76844 -11244129.65744  22678863.2634   22678866.4514
 96  5 18  2 44 30.0000000  0  8G26G28G23G 3G17G 1G21G 6
 -11522157.05944  -8978288.05644  22770982.2764   22770983.6864
 -18836776.858 4 -14678002.572 4  21718096.321    21718094.461
 -23086939.23944 -17989796.97644  20610060.3904   20610062.7244
  -5713694.12044  -4452227.51444  23319332.6554   23319335.6474
 -12909640.60544 -10059454.20944  20636385.1314   20636387.5194
  -1544925.78444  -1203832.76244  24876138.3104   24876145.2784
 -18413894.36444 -14348463.50244  22092458.4914   22092461.6804
 -14328131.45344 -11164766.60544  22698244.4104   22698247.6924
 96  5 18  2 45  0.0000000  0  8G26G28G23G 3G17G 1G21G 6
 -11459882.97244  -8929762.79944  22782832.5894   22782834.1194
 -18905889.537 4 -14731856.599 4  21704944.612    21704942.716
 -23079939.90144 -17984342.94344  20611392.3584   20611394.6214
  -5807798.23344  -4525555.38244  23301425.1964   23301427.7224
 -12901468.73444 -10053086.51944  20637940.1504   20637942.6224
  -1655721.04844  -1290166.46144  24855054.5574   24855061.2514
 -18472214.33144 -14393907.61544  22081360.6064   22081363.7344
 -14226020.07444 -11085199.34044  22717675.7514   22717678.8504
 96  5 18  2 45 30.0000000  0  8G26G28G23G 3G17G 1G21G 6
 -11397158.31644  -8880886.44544  22794768.8094   22794770.3634
 -18974586.215 4 -14785386.471 4  21691872.080    21691870.153
 -23072633.77244 -17978649.84444  20612782.6854   20612784.9854
  -5901640.18144  -4598678.96044  23283567.6154   23283570.8754
 -12893078.70544 -10046548.83744  20639536.6914   20639539.2064
  -1766549.60244  -1376526.09544  24833964.4314   24833973.6154
 -18530281.35544 -14439154.62644  22070310.7494   22070313.8304
 -14123675.91944 -11005450.68544  22737151.2154   22737154.2504
 96  5 18  2 46  0.0000000  0  8G26G28G23G 3G17G 1G21G 6
 -11333777.93744  -8831499.14244  22806829.7504   22806830.7544
 -19042653.142 4 -14838425.627 4  21678919.203    21678917.556
 -23064794.19244 -17972541.07644  20614274.5834   20614276.5754
  -5995003.05344  -4671429.24044  23265801.3144   23265803.6474
 -12884246.21244 -10039666.37244  20641217.5264   20641219.6954
  -1877193.83244  -1462742.09044  24812909.4434   24812913.8634
 -18587901.74644 -14484053.61244  22059345.9884   22059349.1754
 -14020894.49344 -10925361.31144  22756710.0114   22756712.6474
 96  5 18  2 46 30.0000000  0  8G26G28G23G 3G17G 1G21G 6
 -11270013.25044  -8781812.37644  22818963.7474   22818965.1684
 -19110347.028 4 -14891174.107 4  21666037.628    21666035.908
 -23056684.54244 -17966221.87244  20615817.8474   20615820.0414
  -6088138.79444  -4744002.54444  23248078.1614   23248080.5634
 -12875211.16144 -10032626.07544  20642936.8524   20642939.2444
  -1987901.75344  -1549007.75444  24791842.1344   24791849.8234
 -18645322.40244 -14528796.96544  22048419.1964   22048422.3174
 -13917935.58844 -10845133.64144  22776302.4854   22776305.4434
 96  5 18  2 47  0.0000000  0  8G26G28G23G 3G17G 1G21G 6
 -11206183.83844  -8732075.17244  22831110.1064   22831111.6244
 -19177973.829 4 -14943870.310 4  21653168.664    21653166.986
 -23048620.16844 -17959937.94844  20617352.5244   20617354.6074
  -6181365.40044  -4816646.64144  23230337.7904   23230340.8964
 -12866274.76644 -10025662.65144  20644637.4934   20644639.7974
  -2098984.27144  -1635565.26744  24770703.6614   24770708.7814
 -18702851.61644 -14573624.90144  22037471.7944   22037474.8964
 -13815102.25044 -10765003.81144  22795871.1234   22795874.4734
 96  5 18  2 47 30.0000000  0  8G26G28G23G 3G17G 1G21G 6
 -11141748.93144  -8681866.16044  22843371.5834   22843372.7624
 -19245007.770 4 -14996104.544 4  21640412.546    21640410.826
 -23040086.51344 -17953288.34644  20618976.4504   20618978.4654
  -6274173.19244  -4888964.39244  23212677.0594   23212679.4644
 -12856908.16144 -10018364.00244  20646419.9084   20646422.1884
  -2209934.81444  -1722019.97344  24749590.2744   24749595.4044
 -18759984.74044 -14618144.19944  22026599.7874   22026602.5424
 -13711855.92544 -10684552.17044  22815518.2234   22815520.7154
 96  5 18  2 48  0.0000000  0  8G26G28G23G 3G17G 1G21G 6
 -11076778.90544  -8631240.16644  22855735.1324   22855736.4714
 -19311531.827 4 -15047941.464 4  21627753.432    21627751.680
 -23031167.41644 -17946338.39744  20620673.7374   20620675.8034
  -6366638.26544  -4961015.08744  23195081.5314   23195083.7234
 -12847189.99944 -10010791.41544  20648269.2754   20648271.4884
  -2320850.10144  -1808447.18244  24728483.6444   24728491.3814
 -18816786.85444 -14662405.56444  22015790.6174   22015793.4994
 -13608269.73444 -10603835.70944  22835229.9944   22835232.7894
 96  5 18  2 48 30.0000000  0  8G26G28G23G 3G17G 1G21G 6
 -11011320.10244  -8580233.30444  22868191.4504   22868192.9844
 -19377600.100 4 -15099423.228 4  21615181.040    21615179.320
 -23021925.02044 -17939136.52844  20622432.4554   20622434.4834
  -6458807.90344  -5032835.57244  23177542.2234   23177545.2924
 -12837187.23444 -10002997.06044  20650172.7384   20650175.0254
  -2431780.00444  -1894885.82944  24707374.2834   24707379.9664
 -18873313.01144 -14706451.89944  22005034.0354   22005037.0604
 -13504399.60644 -10522897.98644  22854995.8494   22854998.6534
 96  5 18  2 49  0.0000000  0  8G26G28G23G 3G17G 1G21G 6
 -10945377.34844  -8528849.34544  22880740.0474   22880741.0294
 -19443221.171 4 -15150556.521 4  21602693.773    21602692.080
 -23012365.03644 -17931687.18944  20624251.7224   20624253.8854
  -6550682.51744  -5104426.16644  23160059.0664   23160061.8774
 -12826928.84744  -9995003.51544  20652124.8844   20652127.1624
  -2542735.17244  -1981344.15644  24686259.9204   24686264.2514
 -18929585.79444 -14750300.79744  21994325.7114   21994328.7524
 -13400258.75044 -10441749.30844  22874813.1924   22874816.1684
 96  5 18  2 49 30.0000000  0  8G26G28G23G 3G17G 1G21G 6
 -10878958.85744  -8477094.67744  22893379.0684   22893380.3154
 -19508389.068 4 -15201336.692 4  21590292.699    21590291.044
 -23002475.45244 -17923981.02144  20626133.5744   20626135.7324
  -6642256.73344  -5175782.68544  23142633.1054   23142636.3174
 -12816410.91244  -9986807.72344  20654126.3734   20654128.6134
  -2653708.67844  -2067816.78344  24665142.2034   24665148.7964
 -18985590.85944 -14793941.08844  21983668.3474   21983671.4384
 -13295856.78844 -10360397.16944  22894680.2064   22894683.9354
 96  5 18  2 50  0.0000000  0  8G26G28G23G 3G17G 1G21G 6
 -10812088.55344  -8424987.95144  22906104.0034   22906105.6544
 -19573115.114 4 -15251772.565 4  21577975.729    21577974.101
 -22992259.83144 -17916020.79844  20628077.5134   20628079.6184
  -6733544.37544  -5246915.88944  23125261.6514   23125264.2574
 -12805653.50344  -9978425.33244  20656173.3994   20656175.6574
  -2764700.54544  -2154303.70344  24644021.0254   24644027.9194
 -19041314.56944 -14837362.14344  21973064.3794   21973067.4044
 -13191219.97244 -10278862.02744  22914591.8254   22914595.0214
 96  5 18  2 50 30.0000000  0  8G26G28G23G 3G17G 1G21G 6
 -10744518.16744  -8372335.70344  22918962.2794   22918963.2774
 -19637148.546 4 -15301668.739 4  21565790.478    21565788.989
 -22981468.86544 -17907612.25544  20630131.0624   20630132.9764
  -6824301.90744  -5317636.02444  23107991.1454   23107994.1254
 -12794414.04144  -9969667.31844  20658312.2724   20658314.3714
  -2875449.19444  -2240601.11244  24622946.0134   24622949.9084
 -19096513.05544 -14880373.92944  21962560.5764   21962563.2484
 -13086120.04744 -10196966.02844  22934591.9054   22934595.1444
 96  5 18  2 51  0.0000000  0  8G26G28G23G 3G17G 1G21G 6
 -10676689.64744  -8319482.31244  22931869.4194   22931871.2354
 -19700927.277 4 -15351366.448 4  21553653.944    21553652.237
 -22970552.00044 -17899105.61244  20632208.3934   20632210.6924
  -6914971.04444  -5388287.28844  23090737.3824   23090739.6034
 -12783136.43544  -9960879.58444  20660458.3134   20660460.5864
  -2986395.05644  -2327052.23344  24601833.5054   24601839.1054
 -19151622.42844 -14923316.28444  21952073.5514   21952076.4454
 -12981005.57144 -10115058.67844  22954594.4024   22954597.4594
 96  5 18  2 51 30.0000000  0  8G26G28G23G 3G17G 1G21G 6
 -10608746.42944  -8266539.55444  22944798.6114   22944800.2824
 -19764595.335 4 -15400977.918 4  21541538.318    21541536.598
 -22959661.20944 -17890619.28244  20634280.7844   20634282.9434
  -7005692.52844  -5458979.33144  23073473.7204   23073476.6024
 -12771955.05244  -9952166.82844  20662586.0414   20662588.3644
  -3097688.33844  -2413774.09144  24580655.0874   24580661.9334
 -19206792.56444 -14966305.98244  21941574.9754   21941577.9024
 -12876035.70944 -10033264.02144  22974569.5694   22974572.8494
 96  5 18  2 52  0.0000000  0  8G26G28G23G 3G17G 1G21G 6
 -10540146.53044  -8213085.08944  22957852.7604   22957854.4064
 -19827612.456 4 -15450082.163 4  21529546.558    21529544.819
 -22948274.78444 -17881746.74444  20636447.5824   20636449.8174
  -7095916.31544  -5529283.56344  23056304.7824   23056307.2914
 -12760326.80644  -9943105.86744  20664798.7954   20664801.1324
  -3208786.27044  -2500343.69344  24559513.6894   24559519.4534
 -19261503.69744 -15008938.01644  21931163.7934   21931166.8504
 -12770665.00644  -9951157.02644  22994621.0694   22994623.1634
 96  5 18  2 52 30.0000000  0  8G26G28G23G 3G17G 1G21G 6
 -10471009.39244  -8159211.99944  22971009.1734   22971010.8234
 -19890080.353 4 -15498758.442 4  21517659.290    21517657.586
 -22936511.68044 -17872580.69044  20638686.0194   20638688.1754
  -7185737.01744  -5599273.69544  23039212.5154   23039215.3074
 -12748341.85944  -9933766.95744  20667079.4944   20667081.7924
  -3319806.88144  -2586853.06544  24538386.9584   24538391.5584
 -19315883.96444 -15051312.23044  21920815.6244   21920818.5264
 -12664987.99444  -9868811.34544  23014730.7974   23014733.6494
 96  5 18  2 53  0.0000000  0  8G26G28G23G 3G17G 1G21G 6
 -10401413.13944  -8104981.16544  22984252.9874   22984254.2844
 -19952056.975 4 -15547051.908 4  21505865.504    21505863.879
 -22924440.47644 -17863174.56044  20640983.1524   20640985.3984
  -7275206.52644  -5668990.17844  23022186.8814   23022189.5464
 -12736048.21444  -9924187.50344  20669418.9094   20669421.0344
  -3430823.55144  -2673359.38744  24517261.1814   24517265.7834
 -19369995.52644 -15093477.06744  21910518.5324   21910521.5734
 -12559039.85644  -9786254.40544  23034892.0924   23034895.2684
 96  5 18  2 53 30.0000000  0  8G26G28G23G 3G17G 1G21G 6
 -10331402.87944  -8050427.71344  22997575.3874   22997576.9264
 -20013567.461 4 -15594982.151 4  21494160.432    21494158.826
 -22912080.24744 -17853543.21744  20643335.1624   20643337.2564
  -7364356.22844  -5738457.45644  23005222.0884   23005224.6864
 -12723462.14444  -9914380.18244  20671813.9694   20671816.2294
  -3541868.68144  -2759887.85944  24496129.8864   24496134.9564
 -19423864.91844 -15135453.20044  21900267.4924   21900270.3494
 -12452841.60744  -9703502.56644  23055101.0044   23055104.2194
 96  5 18  2 54  0.0000000  0  8G26G28G23G 3G17G 1G21G 6
 -10260979.66544  -7995552.48744  23010976.3294   23010978.2644
 -20074603.504 4 -15642542.700 4  21482545.644    21482544.002
 -22899420.31644 -17843678.33744  20645744.3274   20645746.4544
  -7453189.10744  -5807677.86044  22988317.7374   22988320.8424
 -12710590.63144  -9904350.43544  20674263.3574   20674265.6784
  -3652938.34644  -2846435.45544  24474993.8354   24474998.5604
 -19477472.12844 -15177225.03444  21890066.3414   21890069.3594
 -12346380.65544  -9620546.02344  23075359.8584   23075363.0044
 96  5 18  2 54 30.0000000  0  8G26G28G23G 3G17G 1G21G 6
 -10190154.41944  -7940363.98944  23024453.9784   23024455.6754
 -20135173.365 4 -15689739.991 4  21471019.579    21471017.883
 -22886462.17144 -17833581.08544  20648210.2204   20648212.3604
  -7541720.69244  -5876663.49344  22971470.7774   22971473.6674
 -12697452.38044  -9894112.83944  20676763.4774   20676765.6844
  -3764035.70344  -2933004.65644  24453852.6374   24453859.6874
 -19530809.94244 -15218786.94744  21879916.4334   21879919.2814
 -12239677.64944  -9537400.86144  23095664.8494   23095668.0724
 96  5 18  2 55  0.0000000  0  8G26G28G23G 3G17G 1G21G 6
 -10118928.39544  -7884863.20444  23038007.9164   23038009.6464
 -20195287.748 4 -15736582.366 4  21459580.171    21459578.517
 -22873205.67844 -17823251.35644  20650732.7754   20650734.8064
  -7629955.59544  -5945417.94144  22954680.1814   22954682.8414
 -12684066.54644  -9883682.31944  20679310.7624   20679312.9544
  -3875150.71144  -3019587.61244  24432708.1124   24432712.2104
 -19583876.86244 -15260137.77744  21869818.1254   21869821.1444
 -12132754.90344  -9454084.47744  23116011.5494   23116014.8774
 96  5 18  2 55 30.0000000  0  8G26G28G23G 3G17G 1G21G 6
 -10047253.84644  -7829012.90344  23051647.1694   23051648.1844
 -20254912.459 4 -15783043.178 4  21448233.969    21448232.385
 -22859614.63744 -17812660.98644  20653319.0914   20653321.0984
  -7717864.49044  -6013918.36644  22937951.6674   22937954.2664
 -12670418.09544  -9873047.10244  20681907.9844   20681910.0994
  -3986234.68444  -3106146.37844  24411569.2544   24411576.2304
 -19636643.00444 -15301254.23544  21859777.0994   21859780.2584
 -12025602.57544  -9370589.20644  23136402.0004   23136405.0994
 96  5 18  2 56  0.0000000  0  8G26G28G23G 3G17G 1G21G 6
  -9975114.18844  -7772800.19444  23065374.8584   23065375.5174
 -20314037.318 4 -15829114.495 4  21436982.888    21436981.305
 -22845693.56044 -17801813.30844  20655968.1834   20655970.3764
  -7805427.74244  -6082149.45044  22921288.9464   22921292.1024
 -12656512.27944  -9862211.50844  20684554.0794   20684556.3014
  -4097256.13344  -3192656.44744  24390442.5084   24390447.5244
 -19689108.64944 -15342136.54344  21849793.1664   21849796.1454
 -11918217.70044  -9286912.71844  23156836.6604   23156838.8694
 96  5 18  2 56 30.0000000  0  8G26G28G23G 3G17G 1G21G 6
  -9902482.62944  -7716204.17144  23079196.3724   23079196.9114
 -20372630.454 4 -15874771.480 4  21425832.872    21425831.434
 -22831413.72544 -17790686.18044  20658685.5994   20658687.6414
  -7892606.28144  -6150080.76044  22904699.5054   22904702.0284
 -12642314.60244  -9851148.36744  20687255.8704   20687257.8594
  -4208161.67144  -3279076.19944  24369337.8394   24369344.8324
 -19741257.04044 -15382771.63644  21839869.7764   21839872.2994
 -11810572.38744  -9203033.29444  23177320.9984   23177324.1234
 96  5 18  2 57  0.0000000  0  8G26G28G23G 3G17G 1G21G 6
  -9829180.99244  -7659086.01644  23093145.2524   23093146.2754
 -20430509.734 4 -15919872.219 4  21414818.822    21414817.347
 -22816598.94244 -17779142.19644  20661504.7444   20661506.7344
  -7979207.53144  -6217562.24744  22888219.7834   22888222.7214
 -12627643.56044  -9839716.38944  20690047.7964   20690049.8804
  -4318768.30144  -3365263.02144  24348289.9604   24348294.0124
 -19792918.45944 -15423027.27444  21830038.8554   21830041.7994
 -11702487.06144  -9118811.00844  23197888.9664   23197890.7444
 96  5 18  2 57 30.0000000  0  8G26G28G23G 3G17G 1G21G 6
  -9756012.28444  -7602071.44844  23107068.6804   23107070.0474
 -20488459.314 4 -15965027.737 4  21403791.475    21403789.875
 -22802048.37444 -17767804.09244  20664273.6464   20664275.8314
  -8066019.44544  -6285207.87844  22871700.0484   22871702.3964
 -12613291.87344  -9828533.25244  20692778.7564   20692780.9944
  -4429867.21744  -3451833.47644  24327148.3394   24327153.8064
 -19844891.48344 -15463525.72044  21820148.6654   21820151.5404
 -11594761.92944  -9034869.39044  23218388.3674   23218392.1134
 96  5 18  2 58  0.0000000  0  8G26G28G23G 3G17G 1G21G 6
  -9682462.31244  -7544759.79044  23121064.7864   23121066.5344
 -20545947.384 4 -16009823.637 4  21392851.861    21392850.258
 -22787231.17244 -17756258.21744  20667093.1944   20667095.3074
  -8152507.12744  -6352600.86344  22855241.9334   22855244.2814
 -12598711.48744  -9817171.90944  20695553.2924   20695555.5114
  -4540936.60244  -3538380.87744  24306012.4694   24306019.1094
 -19896643.42244 -15503851.88844  21810300.5444   21810303.5434
 -11486868.03544  -8950796.25644  23238919.8144   23238923.4654
 96  5 18  2 58 30.0000000  0  8G26G28G23G 3G17G 1G21G 6
  -9608304.69244  -7486974.64744  23135176.4164   23135178.4834
 -20602742.091 4 -16054079.253 4  21382044.197    21382042.593
 -22771919.83044 -17744327.29844  20670006.7834   20670009.0504
  -8238439.52644  -6419561.15644  22838889.4964   22838892.1654
 -12583655.42144  -9805439.90944  20698418.3454   20698420.5174
  -4651766.02244  -3624741.36044  24284922.2014   24284928.1804
 -19947942.10344 -15543824.86644  21800538.6854   21800541.7304
 -11378578.16144  -8866414.58744  23259526.7554   23259529.3274
 96  5 18  2 59  0.0000000  0  8G26G28G23G 3G17G 1G21G 6
  -9533696.82144  -7428838.65144  23149373.7974   23149374.8754
 -20658991.336 4 -16097909.834 4  21371340.312    21371338.729
 -22756269.87944 -17732132.52644  20672984.8834   20672987.0874
  -8323966.68444  -6486205.67544  22822614.1574   22822616.3934
 -12568262.39944  -9793445.34544  20701347.5144   20701349.7534
  -4762528.15644  -3711049.36944  24263844.5374   24263849.3834
 -19998936.30044 -15583560.58544  21790834.7424   21790837.7204
 -11270050.41744  -8781847.55044  23280179.0124   23280181.4724
 96  5 18  2 59 30.0000000  0  8G26G28G23G 3G17G 1G21G 6
  -9458677.80544  -7370382.28044  23163649.5224   23163651.0314
 -20714737.790 4 -16141348.632 4  21360732.129    21360730.510
 -22740323.38544 -17719706.67944  20676019.3864   20676021.5304
  -8409140.47444  -6552574.84644  22806406.0674   22806408.5604
 -12552569.83144  -9781217.37244  20704333.6584   20704335.9444
  -4873282.30344  -3797351.17444  24242768.8244   24242774.3474
 -20049664.19044 -15623088.79444  21781181.5584   21781184.5114
 -11161337.16944  -8697135.97044  23300866.5714   23300869.6544
 96  5 18  3  0  0.0000000  0  8G26G28G23G 3G17G 1G21G 6
  -9383262.39444  -7311617.04044  23178000.4434   23178002.0644
 -20770000.516 4 -16184410.499 4  21350215.998    21350214.366
 -22724100.00944 -17707065.09044  20679106.6404   20679108.7224
  -8493985.82444  -6618688.09144  22790260.5744   22790263.0874
 -12536585.39044  -9768761.96144  20707375.4224   20707377.6894
  -4984054.85244  -3883667.31944  24221689.2984   24221692.4524
 -20100133.25344 -15662415.31444  21771577.6414   21771580.5084
 -11052444.93044  -8612284.92044  23321588.1534   23321590.8344
 96  5 18  3  0 30.0000000  0  8G26G28G23G 3G17G 1G21G 6
  -9307464.01244  -7252553.37844  23192424.5184   23192425.4354
 -20824788.840 4 -16227102.702 4  21339790.117    21339788.492
 -22707604.44544 -17694211.41044  20682245.6714   20682247.7584
  -8578511.16644  -6684551.96944  22774175.8024   22774178.4154
 -12520325.97244  -9756092.28544  20710469.5054   20710471.8514
  -5094852.24644  -3970002.83844  24200605.1494   24200611.0424
 -20150354.00344 -15701548.34744  21762020.8894   21762023.8054
 -10943383.25044  -8527301.83244  23342342.0024   23342345.2154
 96  5 18  3  1  0.0000000  0  8G26G28G23G 3G17G 1G21G 6
  -9231263.61444  -7193176.45444  23206925.0074   23206926.6424
 -20879082.463 4 -16269409.422 4  21329458.382    21329456.771
 -22690813.72444 -17681127.72844  20685440.7674   20685442.8374
  -8662700.47444  -6750154.01044  22758155.0584   22758157.8874
 -12503782.11244  -9743200.96344  20713617.7094   20713619.9134
  -5205650.63344  -4056339.11644  24179520.7244   24179525.9754
 -20200301.69544 -15740468.60544  21752516.1734   21752519.0864
 -10834141.83644  -8442178.69144  23363129.9144   23363133.1814
 96  5 18  3  1 30.0000000  0  8G26G28G23G 3G17G 1G21G 6
  -9154643.89244  -7133472.78144  23221505.2904   23221507.3364
 -20932866.713 4 -16311319.230 4  21319223.570    21319221.973
 -22673718.08844 -17667806.44244  20688693.9704   20688696.1514
  -8746545.99944  -6815488.15944  22742199.8614   22742202.6434
 -12486950.80344  -9730085.65644  20716820.6924   20716822.8524
  -5316411.54544  -4142646.21044  24158443.6284   24158447.9854
 -20249958.54844 -15779162.24044  21743066.8664   21743069.8264
 -10724701.03644  -8356900.20744  23383955.6704   23383958.2684
 96  5 18  3  2  0.0000000  0  8G26G28G23G 3G17G 1G21G 6
  -9077604.25044  -7073441.89944  23236165.4204   23236166.8004
 -20986125.627 4 -16352819.687 4  21309088.750    21309087.136
 -22656311.74444 -17654243.04744  20692006.3844   20692008.4814
  -8830036.76744  -6880545.88344  22726312.0944   22726314.7754
 -12469821.17044  -9716737.88644  20720080.2494   20720082.4854
  -5427091.74444  -4228890.39444  24137381.8024   24137386.3924
 -20299316.22644 -15817622.75244  21733674.3754   21733677.1964
 -10615041.12944  -8271450.96244  23404823.3634   23404826.9194
 96  5 18  3  2 30.0000000  0  8G26G28G23G 3G17G 1G21G 6
  -9000145.82244  -7013084.69944  23250905.1864   23250906.5074
 -21038865.405 4 -16393915.620 4  21299052.728    21299051.054
 -22638606.28744 -17640446.58444  20695375.5724   20695377.6914
  -8913171.83044  -6945326.43344  22710491.9674   22710494.7944
 -12452406.48344  -9703167.99944  20723394.1994   20723396.4384
  -5537682.54944  -4315064.93844  24116336.9274   24116341.4474
 -20348383.06144 -15855856.63344  21724337.2164   21724340.0434
 -10505180.87844  -8185845.61544  23425729.1614   23425732.3334
 96  5 18  3  3  0.0000000  0  8G26G28G23G 3G17G 1G21G 6
  -8922280.65644  -6952410.55644  23265722.4744   23265724.8044
 -21091091.096 4 -16434610.965 4  21289114.503    21289112.873
 -22620628.52144 -17626437.94144  20698796.5514   20698798.6784
  -8995955.99844  -7009833.56044  22694738.5814   22694740.7334
 -12434723.11144  -9689388.74844  20726759.2464   20726761.4664
  -5648181.62944  -4401168.00944  24095309.5274   24095315.6324
 -20397175.60544 -15893876.77944  21715052.2814   21715055.2804
 -10395132.20944  -8100093.44744  23446670.8014   23446673.9764
 96  5 18  3  3 30.0000000  0  8G26G28G23G 3G17G 1G21G 6
  -8844013.53444  -6891423.19344  23280616.3634   23280619.0174
 -21142795.073 4 -16474899.779 4  21279275.566    21279273.959
 -22602381.49044 -17612219.47244  20702268.9214   20702271.0874
  -9078381.96044  -7074061.55944  22679053.4154   22679055.8484
 -12416763.19244  -9675394.00444  20730176.8994   20730179.1874
  -5758573.15544  -4487187.24644  24074302.5214   24074307.4094
 -20445688.57944 -15931679.07744  21705820.6114   21705823.3634
 -10284886.47744  -8014187.71744  23467649.8704   23467652.3324
 96  5 18  3  4  0.0000000  0  8G26G28G23G 3G17G 1G21G 6
  -8765358.59244  -6830133.64144  23295583.8244   23295585.1424
 -21193978.602 4 -16514783.050 4  21269535.663    21269534.064
 -22583867.27144 -17597792.80644  20705792.0344   20705794.3144
  -9160438.74444  -7138001.89344  22663438.5114   22663441.3934
 -12398536.56244  -9661191.43644  20733645.2584   20733647.5504
  -5868880.99844  -4573141.29544  24053311.7014   24053316.6554
 -20493926.60944 -15969267.13344  21696641.1784   21696643.8494
 -10174451.51444  -7928134.56244  23488664.8704   23488668.4964
 96  5 18  3  4 30.0000000  0  8G26G28G23G 3G17G 1G21G 6
  -8686344.07244  -6768563.90344  23310619.8884   23310621.9914
 -21244660.825 4 -16554275.692 4  21259891.148    21259889.540
 -22565107.94644 -17583175.14544  20709361.7184   20709363.9944
  -9242133.25044  -7201659.93144  22647892.5794   22647895.5594
 -12380074.10944  -9646805.10844  20737158.4944   20737160.6964
  -5979150.47444  -4659065.42944  24032327.9704   24032331.9444
 -20541917.25044 -16006662.42044  21687508.8154   21687511.6784
 -10063853.60844  -7841954.40344  23509711.0744   23509714.2574
 96  5 18  3  5  0.0000000  0  8G26G28G23G 3G17G 1G21G 6
  -8606964.16944  -6706709.44944  23325725.3864   23325727.0734
 -21294820.490 4 -16593361.146 4  21250346.071    21250344.461
 -22546089.33944 -17568355.44244  20712980.9324   20712983.0754
  -9323449.03144  -7265022.86044  22632418.6884   22632421.3504
 -12361357.71444  -9632220.89844  20740720.1814   20740722.4004
  -6089367.01944  -4744948.33444  24011354.3454   24011358.3734
 -20589654.32144 -16043860.12844  21678424.7354   21678427.6504
  -9953078.57044  -7755636.24144  23530790.8224   23530794.9174
 96  5 18  3  5 30.0000000  0  8G26G28G23G 3G17G 1G21G 6
  -8527223.95944  -6644574.22244  23340899.4784   23340901.6074
 -21344462.437 4 -16632043.185 4  21240899.533    21240897.889
 -22526807.02444 -17553330.25644  20716650.2574   20716652.3144
  -9404384.08244  -7328089.12444  22617017.2904   22617019.9024
 -12342383.85144  -9617436.06744  20744330.8384   20744333.0054
  -6199540.79744  -4830797.91344  23990388.6174   23990393.6234
 -20637143.23244 -16080864.46544  21669388.0224   21669390.7164
  -9842132.26144  -7669184.60644  23551903.1284   23551905.4704
 96  5 18  3  6  0.0000000  0  8G26G28G23G 3G17G 1G21G 6
  -8447136.79444  -6582168.65844  23356139.4574   23356140.6284
 -21393601.958 4 -16670333.723 4  21231548.565    21231546.970
 -22507270.70744 -17538107.14944  20720367.8124   20720370.0554
  -9484948.32844  -7390866.44744  22601686.4284   22601689.0104
 -12323169.62044  -9602463.94444  20747987.0904   20747989.2854
  -6309687.25944  -4916626.20644  23969428.6504   23969433.4184
 -20684411.62644 -16117696.96544  21660393.0364   21660396.0254
  -9731042.37644  -7582621.10144  23573042.8304   23573046.3284
 96  5 18  3  6 30.0000000  0  8G26G28G23G 3G17G 1G21G 6
  -8366680.00044  -6519475.06644  23371450.1284   23371451.7644
 -21442221.505 4 -16708219.085 4  21222296.577    21222294.972
 -22487464.20944 -17522673.51144  20724136.8134   20724139.0044
  -9565128.97644  -7453344.86644  22586428.5814   22586431.4384
 -12303686.91044  -9587282.61344  20751694.5924   20751696.8074
  -6419768.82744  -5002403.93844  23948480.6814   23948485.8884
 -20731445.30244 -16154346.56744  21651442.8254   21651445.6164
  -9619805.87244  -7495943.34344  23594210.5584   23594213.4234
 96  5 18  3  7  0.0000000  0  8G26G28G23G 3G17G 1G21G 6
  -8285850.94444  -6456491.40244  23386831.1874   23386833.2244
 -21490327.381 4 -16745704.186 4  21213142.324    21213140.714
 -22467384.90144 -17507027.29344  20727957.8454   20727960.0484
  -9644938.92644  -7515534.43544  22571241.0864   22571243.3024
 -12283928.58644  -9571886.51944  20755454.4634   20755456.6894
  -6529764.98444  -5088115.10544  23927549.0184   23927553.3584
 -20778240.91744 -16190810.66544  21642537.9304   21642540.8814
  -9508429.94544  -7409156.94044  23615404.5964   23615407.5874
 96  5 18  3  7 30.0000000  0  8G26G28G23G 3G17G 1G21G 6
  -8204635.42644  -6393206.59944  23402286.0174   23402287.7864
 -21537915.172 4 -16782785.584 4  21204086.665    21204085.037
 -22447017.71444 -17491156.75244  20731833.6094   20731835.7764
  -9724377.22144  -7577434.41144  22556124.5554   22556126.8344
 -12263884.82644  -9556268.01344  20759268.6784   20759270.8454
  -6639675.63044  -5173759.66744  23906633.6184   23906637.1284
 -20824782.78344 -16227077.04244  21633681.2744   21633683.9254
  -9396916.44444  -7322263.32844  23636625.0984   23636629.1264
 96  5 18  3  8  0.0000000  0  8G26G28G23G 3G17G 1G21G 6
  -8123023.55444  -6329612.94944  23417816.4064   23417817.5104
 -21584970.774 4 -16819452.288 4  21195132.298    21195130.675
 -22426349.98344 -17475052.02744  20735766.4834   20735768.6724
  -9803442.34344  -7639043.59744  22541079.0004   22541081.6784
 -12243539.93144  -9540414.85444  20763140.2204   20763142.4094
  -6749492.65244  -5259331.27644  23885736.0464   23885740.6604
 -20871047.92844 -16263127.78944  21624877.2064   21624880.0474
  -9285265.23444  -7235262.41644  23657871.7164   23657874.1634
 96  5 18  3  8 30.0000000  0  8G26G28G23G 3G17G 1G21G 6
  -8041044.16044  -6265732.91344  23433416.4944   23433417.9724
 -21631509.029 4 -16855715.865 4  21186276.351    21186274.763
 -22405411.55344 -17458736.36944  20739750.9864   20739753.1224
  -9882145.06644  -7700370.39344  22526102.3074   22526104.9564
 -12222907.06244  -9524337.29744  20767066.5194   20767068.7284
  -6859232.10944  -5344842.44044  23864853.3334   23864858.7794
 -20917046.57344 -16298970.87244  21616123.9524   21616126.7564
  -9173488.78944  -7148163.91644  23679141.9204   23679144.3104
 96  5 18  3  9  0.0000000  0  8G26G28G23G 3G17G 1G21G 6
  -7958715.88144  -6201581.02344  23449083.0184   23449084.0544
 -21677535.702 4 -16891580.805 4  21177517.749    21177516.152
 -22384219.54544 -17442223.11944  20743783.7014   20743785.8084
  -9960484.27744  -7761413.93544  22511194.9434   22511197.0254
 -12201994.75444  -9508041.99744  20771045.9914   20771048.2234
  -6968920.93344  -5430314.17044  23843980.2554   23843983.4444
 -20962791.98444 -16334616.61844  21607418.8554   21607421.6644
  -9061591.43844  -7060971.22944  23700435.4874   23700438.1524
 96  5 18  3  9 30.0000000  0  8G26G28G23G 3G17G 1G21G 6
  -7876024.36244  -6137146.09044  23464818.6494   23464820.8034
 -21723013.298 4 -16927017.895 4  21168863.657    21168862.044
 -22362761.39344 -17425502.48744  20747866.9814   20747869.1634
 -10038412.10444  -7822136.91544  22496365.8534   22496368.0234
 -12180773.12144  -9491505.67144  20775084.4224   20775086.7234
  -7078545.62744  -5515735.91844  23823119.2664   23823123.5774
 -21008258.05344 -16370044.71944  21598766.9644   21598770.0724
  -8949552.22544  -6973667.95844  23721755.8754   23721759.5184
 96  5 18  3 10  0.0000000  0  8G26G28G23G 3G17G 1G21G 6
  -7792997.11644  -6072449.55544  23480618.2114   23480619.9574
 -21767947.022 4 -16962031.189 4  21160313.054    21160311.455
 -22341065.90144 -17408596.91544  20751995.5294   20751997.6754
 -10115911.67844  -7882526.19044  22481618.1214   22481620.8404
 -12159261.94044  -9474743.72244  20779177.7994   20779179.9644
  -7188096.86544  -5601100.42044  23802272.2834   23802274.9184
 -21053461.87044 -16405268.47744  21590164.9414   21590168.0204
  -8837367.88444  -6886251.61744  23743103.7584   23743106.3954
 96  5 18  3 10 30.0000000  0  8G26G28G23G 3G17G 1G21G 6
  -7709628.13844  -6007486.71944  23496482.7854   23496484.0134
 -21812329.462 4 -16996614.913 4  21151867.368    21151865.776
 -22319142.40544 -17391513.67144  20756167.4504   20756169.4914
 -10192968.52144  -7942570.48244  22466954.6054   22466956.7094
 -12137470.46144  -9457763.36644  20783324.6104   20783326.6924
  -7297551.60144  -5686389.73544  23781443.6774   23781448.0734
 -21098405.60744 -16440289.56244  21581612.4244   21581615.4014
  -8725019.95644  -6798707.79044  23764482.9024   23764486.6734
 96  5 18  3 11  0.0000000  0  8G26G28G23G 3G17G 1G21G 6
  -7625898.86444  -5942243.13944  23512416.0874   23512417.9904
 -21856147.326 4 -17030758.706 4  21143529.113    21143527.467
 -22296975.02044 -17374240.37944  20760385.7564   20760387.8594
 -10269575.21344  -8002264.00244  22452376.9464   22452379.4654
 -12115387.90944  -9440556.19944  20787526.8564   20787529.0634
  -7406901.30044  -5771597.22244  23760635.0304   23760639.5544
 -21143075.99544 -16475097.64444  21573111.9124   21573114.9414
  -8612499.40644  -6711029.47144  23785894.7994   23785898.1524
 96  5 18  3 11 30.0000000  0  8G26G28G23G 3G17G 1G21G 6
  -7541819.73744  -5876726.94744  23528415.6474   23528417.2454
 -21899415.963 4 -17064474.531 4  21135295.380    21135293.716
 -22274575.75744 -17356786.39344  20764648.2054   20764650.3534
 -10345752.93044  -8061623.25444  22437880.7244   22437883.3024
 -12093029.47544  -9423134.06744  20791781.4514   20791783.7114
  -7516131.52644  -5856711.59244  23739849.1034   23739853.1174
 -21187479.91444 -16509698.08544  21564662.2054   21564665.0274
  -8499822.49144  -6623229.29944  23807336.7084   23807339.9034
 96  5 18  3 12  0.0000000  0  8G26G28G23G 3G17G 1G21G 6
  -7457384.05744  -5810932.92744  23544483.4454   23544485.2424
 -21942143.899 4 -17097769.030 4  21127164.515    21127162.874
 -22251934.92544 -17339144.22644  20768956.7404   20768958.8014
 -10421522.06244  -8120664.12344  22423462.3624   22423465.0344
 -12070402.14344  -9405502.33544  20796087.2514   20796089.3794
  -7625236.22544  -5941728.16744  23719087.1444   23719091.6814
 -21231618.28944 -16544091.60944  21556262.9094   21556265.8044
  -8386996.86344  -6535313.25244  23828806.6714   23828809.7844
 96  5 18  3 12 30.0000000  0  8G26G28G23G 3G17G 1G21G 6
  -7372364.68644  -5744684.06944  23560662.0304   23560663.0794
 -21984105.067 4 -17130466.045 4  21119179.411    21119177.993
 -22228809.34844 -17321124.29544  20773357.3574   20773359.3944
 -10496672.08144  -8179222.57144  22409161.9014   22409164.6114
 -12047254.65144  -9387465.33144  20800492.2054   20800494.3144
  -7734001.15744  -6026479.96444  23698389.8924   23698394.9384
 -21275260.17644 -16578098.25944  21547958.1914   21547960.7974
  -8273809.49044  -6447115.32144  23850345.6464   23850347.7824
 96  5 18  3 13  0.0000000  0  8G26G28G23G 3G17G 1G21G 6
  -7287093.21044  -5678238.77444  23576888.4624   23576889.9854
 -22025624.400 4 -17162818.775 4  21111278.655    21111277.091
 -22205513.29144 -17302971.51944  20777790.4104   20777792.4144
 -10571518.94644  -8237544.79144  22394919.0114   22394921.5334
 -12023892.54144  -9369261.10944  20804937.8494   20804939.9194
  -7842757.80544  -6111225.33344  23677694.0564   23677697.6214
 -21318733.29344 -16611973.39744  21539685.4364   21539687.9944
  -8160596.38044  -6358897.31944  23871889.3794   23871892.1494
 96  5 18  3 13 30.0000000  0  8G26G28G23G 3G17G 1G21G 6
  -7201645.06544  -5611655.82344  23593148.8754   23593150.5804
 -22066769.450 4 -17194879.854 4  21103448.936    21103447.440
 -22182113.24944 -17284737.71644  20782243.2644   20782245.1624
 -10646122.55844  -8295677.45744  22380722.4604   22380724.7144
 -12000389.48544  -9350947.04944  20809410.3304   20809412.3334
  -7951570.88344  -6196014.67444  23656987.6094   23656991.2024
 -21362115.97244 -16645778.06844  21531429.9614   21531432.6374
  -8047434.03044  -6270718.89644  23893423.4134   23893425.8264
 96  5 18  3 14  0.0000000  0  8G26G28G23G 3G17G 1G21G 6
  -7116227.96744  -5545097.05244  23609403.1374   23609405.6934
 -22107733.890 4 -17226800.201 4  21095653.809    21095652.129
 -22158809.85144 -17266579.22344  20786677.6364   20786679.7404
 -10720669.28644  -8353765.80744  22366536.5394   22366538.4484
 -11976946.97444  -9332680.17144  20813871.2474   20813873.4004
  -8060659.83144  -6281018.95844  23636228.5884   23636233.4334
 -21405613.07344 -16679671.89144  21523152.8024   21523155.6934
  -7934517.33644  -6182731.88044  23914910.7194   23914915.0994
 96  5 18  3 14 30.0000000  0  8G26G28G23G 3G17G 1G21G 6
  -7030357.01444  -5478184.63344  23625744.0134   23625745.6204
 -22148017.902 4 -17258190.341 4  21087987.835    21087986.419
 -22135123.67744 -17248122.45944  20791185.0644   20791187.0094
 -10794657.26544  -8411418.76944  22352457.1514   22352459.4414
 -11953070.78644  -9314075.35344  20818414.7704   20818416.7654
  -8169532.21044  -6365854.51644  23615510.9124   23615514.8124
 -21448737.65344 -16713275.43644  21514946.4454   21514948.7874
  -7821339.63844  -6094541.48744  23936447.7824   23936450.9304
 96  5 18  3 15  0.0000000  0  8G26G28G23G 3G17G 1G21G 6
  -6943907.03444  -5410821.02544  23642194.8124   23642197.1134
 -22187493.129 4 -17288950.261 4  21080476.035    21080474.529
 -22110936.00244 -17229274.91844  20795787.8394   20795789.7244
 -10867960.48344  -8468538.14944  22338507.9024   22338510.3644
 -11928660.68444  -9295054.50344  20823059.7934   20823061.9204
  -8278051.57744  -6450414.97544  23594860.1794   23594864.2584
 -21491376.94444 -16746500.83744  21506832.4574   21506834.8704
  -7707783.15244  -6006055.91944  23958056.7864   23958062.0954
 96  5 18  3 15 30.0000000  0  8G26G28G23G 3G17G 1G21G 6
  -6857076.08744  -5343160.54344  23658718.2484   23658718.2464
 -22226345.746 4 -17319225.030 4  21073082.552    21073081.149
 -22086439.97244 -17210187.10344  20800449.3154   20800451.1724
 -10940780.88744  -8525281.31144  22324650.6094   22324652.9194
 -11903920.00444  -9275776.05644  20827767.8754   20827769.9254
  -8386403.53944  -6534845.00044  23574241.5634   23574245.3634
 -21533714.52844 -16779491.13944  21498775.9284   21498778.3534
  -7594048.98744  -5917431.93644  23979699.7204   23979702.9494
 96  5 18  3 16  0.0000000  0  8G26G28G23G 3G17G 1G21G 6
  -6769944.59344  -5275265.89144  23675298.8104   23675300.0044
 -22264644.085 4 -17349067.895 4  21065794.726    21065793.170
 -22061710.42944 -17190917.33244  20805155.1634   20805157.3364
 -11013201.47744  -8581712.93244  22310869.5114   22310871.9914
 -11878910.76044  -9256288.34144  20832526.9144   20832529.1804
  -8494649.57744  -6619192.48644  23553642.8784   23553647.0414
 -21575807.18344 -16812290.59444  21490765.8264   21490768.4354
  -7480209.05344  -5828725.49744  24001362.5994   24001365.8224
 96  5 18  3 16 30.0000000  0  8G26G28G23G 3G17G 1G21G 6
  -6682923.04644  -5207456.90644  23691858.5654   23691859.1194
 -22302795.801 4 -17378796.506 4  21058534.767    21058533.116
 -22037147.87144 -17171777.67844  20809829.1924   20809831.3614
 -11085634.80544  -8638154.47744  22297085.8484   22297088.2014
 -11854041.13144  -9236909.41444  20837259.3984   20837261.6664
  -8603185.17644  -6703765.60344  23532989.0234   23532992.4824
 -21618050.57644 -16845207.51644  21482727.1074   21482729.8324
  -7366694.70944  -5740272.78144  24022963.7264   24022966.4214
 96  5 18  3 17  0.0000000  0  8G26G28G23G 3G17G 1G21G 6
  -6595378.05144  -5139240.02344  23708517.7664   23708518.5144
 -22340160.340 4 -17407911.735 4  21051424.535    21051422.884
 -22012111.50044 -17152268.81944  20814593.4904   20814595.5944
 -11157423.65544  -8694093.83744  22283424.9094   22283427.8734
 -11828675.46444  -9217143.96444  20842086.3764   20842088.4714
  -8711365.38144  -6788061.79144  23512402.9974   23512406.1924
 -21659787.49044 -16877729.77344  21474784.8924   21474787.6964
  -7252878.21344  -5651584.62644  24044622.2694   24044625.3844
 96  5 18  3 17 30.0000000  0  8G26G28G23G 3G17G 1G21G 6
  -6507400.10344  -5070685.77744  23725259.2624   23725260.3834
 -22376836.360 4 -17436490.455 4  21044445.317    21044443.668
 -21986706.68144 -17132472.85644  20819427.8654   20819430.0354
 -11228657.53044  -8749600.74744  22269869.3934   22269872.0124
 -11802896.48844  -9197056.45444  20846991.9204   20846994.1644
  -8819293.30544  -6872161.40244  23491865.1604   23491868.1004
 -21701100.46544 -16909921.69044  21466923.2184   21466925.9164
  -7138857.26744  -5562737.14344  24066319.7024   24066322.7604
 96  5 18  3 18  0.0000000  0  8G26G28G23G 3G17G 1G21G 6
  -6419049.67744  -5001841.30344  23742071.7814   23742073.3044
 -22412893.630 4 -17464587.034 4  21037583.845    21037582.160
 -21961000.03444 -17112441.70244  20824319.6934   20824321.8824
 -11299394.44544  -8804720.41644  22256408.7154   22256411.1364
 -11776766.01244  -9176695.05044  20851964.3454   20851966.5084
  -8927033.17244  -6956114.47344  23471362.8264   23471366.8854
 -21742065.90244 -16941842.80644  21459127.7814   21459130.5604
  -7024687.33144  -5473773.58844  24088045.3884   24088048.6434
 96  5 18  3 18 30.0000000  0  8G26G28G23G 3G17G 1G21G 6
  -6330349.22244  -4932724.07244  23758950.8544   23758953.0934
 -22448365.061 4 -17492227.116 4  21030833.868    21030832.128
 -21935026.80244 -17092202.82144  20829262.1854   20829264.2964
 -11369653.22144  -8859467.50744  22243038.8844   22243041.0074
 -11750317.85044  -9156086.10144  20856997.3164   20856999.6024
  -9034614.85344  -7039944.28644  23450890.5154   23450894.5664
 -21782735.65744 -16973533.50944  21451388.4874   21451391.5204
  -6910394.55444  -5384714.30344  24109794.6324   24109797.7174
 96  5 18  3 19  0.0000000  0  8G26G28G23G 3G17G 1G21G 6
  -6241307.66044  -4863341.03744  23775894.9114   23775896.9244
 -22483260.654 4 -17519418.491 4  21024193.440    21024191.705
 -21908802.64444 -17071768.41444  20834252.4824   20834254.7264
 -11439452.29044  -8913856.39544  22229756.4584   22229758.7214
 -11723553.37144  -9135230.66944  20862090.4214   20862092.7114
  -9142043.08444  -7123654.50344  23430447.5614   23430451.8504
 -21823140.04944 -17005017.43644  21443699.7754   21443702.6494
  -6795972.65744  -5295554.39744  24131568.4474   24131572.1224
 96  5 18  3 19 30.0000000  0  8G26G28G23G 3G17G 1G21G 6
  -6151938.96144  -4793703.08844  23792901.2514   23792903.6874
 -22517586.804 4 -17546166.145 4  21017661.415    21017659.675
 -21882320.67244 -17051133.11944  20839291.7674   20839293.8774
 -11508821.31644  -8967910.17744  22216555.9674   22216558.7874
 -11696478.99244  -9114133.76044  20867242.5014   20867244.8244
  -9249320.74144  -7207247.42344  23410033.2164   23410036.8714
 -21863305.41644 -17036315.10644  21436056.5344   21436059.4594
  -6681433.05944  -5206302.77844  24153364.7134   24153368.9524
 96  5 18  3 20  0.0000000  0  8G26G28G23G 3G17G 1G21G 6
  -6062278.39244  -4723837.71444  23809963.0114   23809964.3344
 -22551352.408 4 -17572477.010 4  21011236.041    21011234.326
 -21855596.10244 -17030308.78544  20844377.3894   20844379.6464
 -11577766.04244  -9021633.34344  22203436.2764   22203439.0604
 -11669119.72344  -9092814.85744  20872448.7654   20872451.0564
  -9356454.49644  -7290728.20344  23389646.1564   23389650.0984
 -21903258.74244 -17067447.55144  21428453.5804   21428456.4274
  -6566788.70444  -5116969.52744  24175180.7594   24175184.9844
 96  5 18  3 20 30.0000000  0  8G26G28G23G 3G17G 1G21G 6
  -5972344.59344  -4653759.42744  23827076.9234   23827078.3594
 -22584566.021 4 -17598357.753 4  21004915.686    21004913.977
 -21828651.60744 -17009313.07644  20849504.6124   20849506.7814
 -11646290.23644  -9075028.82344  22190396.5734   22190398.9474
 -11641487.77144  -9071283.47444  20877706.9884   20877709.3254
  -9463461.54844  -7374110.26244  23369283.4654   23369287.0524
 -21943008.02944 -17098421.00744  21420889.6124   21420892.6274
  -6452064.88244  -5027574.36144  24197011.8744   24197015.0944
 96  5 18  3 21  0.0000000  0  8G26G28G23G 3G17G 1G21G 6
  -5882129.36644  -4583461.84944  23844244.2864   23844247.5034
 -22617209.550 4 -17623794.276 4  20998703.832    20998702.091
 -21801473.82944 -16988135.58744  20854676.4384   20854678.7434
 -11714377.81444  -9128084.08444  22177439.9794   22177442.3274
 -11613570.67244  -9049529.89644  20883019.4194   20883021.7874
  -9570329.19144  -7457383.69144  23348947.1904   23348951.7954
 -21982527.12944 -17129215.09444  21413369.2664   21413372.1184
  -6337261.12244  -4938116.89944  24218858.3254   24218861.8444
 96  5 18  3 21 30.0000000  0  8G26G28G23G 3G17G 1G21G 6
  -5791628.91644  -4512942.02144  23861466.0114   23861467.0664
 -22649284.906 4 -17648788.065 4  20992600.096    20992598.349
 -21774076.36644 -16966786.91444  20859889.9364   20859892.1534
 -11782005.99944  -9180781.37744  22164570.7024   22164573.0464
 -11585373.27344  -9027557.90144  20888385.1734   20888387.5294
  -9677065.57144  -7540554.83644  23328635.8984   23328640.3184
 -22021813.42244 -17159827.78044  21405893.3574   21405896.2424
  -6222391.09144  -4848607.79344  24240717.5364   24240719.4584
 96  5 18  3 22  0.0000000  0  8G26G 3G 1G21G 6G28G23G17
  -5700818.65044  -4442180.77144  23878746.6214   23878747.9754
 -11849146.80444  -9233098.89544  22151794.2044   22151796.7784
  -9783662.56544  -7623617.36644  23308351.0314   23308354.8614
 -22060854.27744 -17190249.21044  21398464.1094   21398466.9894
  -6107443.89744  -4759038.56044  24262591.2394   24262595.5054
 -22680782.871 4 -17673331.938 4  20986606.216    20986604.512
 -21746469.47144 -16945275.04844  20865143.3704   20865145.5974
 -11556874.57044  -9005351.12544  20893808.3794   20893810.5654
 96  5 18  3 22 30.0000000  0  8G26G 3G 1G21G 6G28G23G17
  -5609680.67044  -4371164.16644  23896089.5954   23896092.1664
 -11915804.82244  -9285040.21544  22139109.5774   22139111.8884
  -9890114.66544  -7706566.99344  23288093.8334   23288097.1014
 -22099629.60044 -17220463.73944  21391085.4974   21391088.3874
  -5992413.64744  -4669404.62144  24284480.7964   24284484.0584
 -22711693.304 4 -17697417.994 4  20980724.028    20980722.466
 -21718643.74344 -16923592.66244  20870438.5164   20870440.5584
 -11528050.76644  -8982891.01844  20899293.4234   20899295.6014
 96  5 18  3 23  0.0000000  0  8G26G 3G 1G21G 6G28G23G17
  -5517895.76244  -4299643.46844  23913555.5984   23913557.4484
 -11981657.84244  -9336354.26144  22126578.2764   22126581.0464
  -9996085.43844  -7789141.56644  23267928.3014   23267932.3454
 -22137811.02544 -17250215.49244  21383819.8194   21383822.5684
  -5876976.25844  -4579453.40344  24306447.8874   24306448.8854
 -22741687.947 4 -17720790.451 4  20975016.225    20975014.652
 -21690270.88644 -16901483.94544  20875837.6864   20875839.8144
 -11498583.43044  -8959929.45944  20904900.7414   20904902.8984
 96  5 18  3 23 30.0000000  0  8G26G 3G 1G21G 6G28G23G17
  -5426319.22944  -4228285.12944  23930981.8994   23930984.0334
 -12047544.96144  -9387694.88144  22114040.2694   22114043.1074
 -10102414.94244  -7871995.65944  23247694.2784   23247698.5294
 -22176234.09644 -17280155.53544  21376508.1114   21376511.0494
  -5761975.85844  -4489842.70444  24328331.5794   24328334.7834
 -22771608.413 4 -17744105.108 4  20969322.673    20969320.929
 -21662197.95144 -16879608.93444  20881179.6594   20881181.9204
 -11469315.94544  -8937123.63044  20910470.0864   20910472.5534
 96  5 18  3 24  0.0000000  0  8G26G 3G 1G21G 6G28G23G17
  -5334743.39644  -4156927.33444  23948408.2534   23948409.5734
 -12113248.05844  -9438892.10444  22101537.4434   22101540.2774
 -10208858.42544  -7954938.58044  23227438.6984   23227442.1914
 -22214656.40644 -17310094.98344  21369196.5544   21369199.5854
  -5647175.31744  -4400387.75444  24350177.4554   24350179.9154
 -22801216.607 4 -17767176.432 4  20963688.422    20963686.663
 -21634189.65644 -16857784.28944  20886509.4904   20886511.9134
 -11440020.01544  -8914295.63244  20916044.9584   20916047.3794
 96  5 18  3 24 30.0000000  0  8G26G 3G 1G21G 6G28G23G17
  -5242868.32844  -4085336.37944  23965891.6144   23965893.6304
 -12178444.69444  -9489694.68444  22089130.9024   22089133.7084
 -10315085.32544  -8037712.72744  23207224.3484   23207228.5794
 -22252753.52644 -17339781.03044  21361946.8764   21361949.7804
  -5532251.65644  -4310836.84044  24372046.5604   24372052.7044
 -22830187.242 4 -17789750.959 4  20958175.521    20958173.736
 -21605919.56644 -16835755.64644  20891889.0474   20891891.4474
 -11410377.03344  -8891197.20944  20921685.8334   20921688.2554
 96  5 18  3 25  0.0000000  0  8G26G 3G 1G21G 6G28G23G17
  -5150636.12144  -4013467.11444  23983442.8164   23983444.3074
 -12243052.02044  -9540038.06044  22076836.5094   22076839.2734
 -10421021.60644  -8120260.42444  23187065.2964   23187069.8514
 -22290469.74144 -17369170.28544  21354769.7184   21354772.7244
  -5417138.43344  -4221138.22344  24393951.9544   24393956.2324
 -22858455.171 4 -17811777.920 4  20952796.341    20952794.528
 -21577324.04344 -16813473.41944  20897330.5664   20897332.9534
 -11380332.89144  -8867786.19744  20927403.0714   20927405.4104
 96  5 18  3 25 30.0000000  0  8G26G 3G 1G21G 6G28G23G17
  -5060394.77344  -3943149.18944  24000615.1384   24000617.1194
 -12309428.04344  -9591759.63844  22064205.4834   22064208.2474
 -10529030.80644  -8204423.37644  23166511.8104   23166515.3314
 -22330174.43444 -17400109.00944  21347214.1564   21347216.9514
  -5304185.05044  -4133122.59144  24415446.0654   24415449.2774
 -22888377.103 4 -17835093.716 4  20947102.388    20947100.561
 -21550760.55844 -16792774.59644  20902385.4874   20902387.8784
 -11352230.15944  -8845887.97144  20932750.8524   20932753.3244
 96  5 18  3 26  0.0000000  0  8G26G 3G 1G21G 6G28G23G17
  -4970541.40144  -3873133.57844  24017713.7224   24017714.7044
 -12375988.96644  -9643625.28944  22051539.2474   22051542.2334
 -10637530.74644  -8288968.72644  23145864.9154   23145868.9784
 -22370298.99144 -17431374.88444  21339578.7054   21339581.5674
  -5191804.78644  -4045553.56444  24436831.4134   24436834.5164
 -22918366.835 4 -17858462.340 4  20941395.530    20941393.711
 -21524641.67644 -16772422.21444  20907355.7634   20907358.1174
 -11324469.57644  -8824256.34944  20938033.5504   20938035.8064
 96  5 18  3 26 30.0000000  0  8G26G 3G 1G21G 6G28G23G17
  -4881031.85144  -3803385.87744  24034746.9604   24034749.0084
 -12442704.89444  -9695611.72944  22038843.6754   22038846.2664
 -10746493.21344  -8373874.48244  23125130.0944   23125134.3234
 -22410826.12444 -17462954.44244  21331866.6174   21331869.6174
  -5079983.91644  -3958420.41244  24458110.0144   24458116.4584
 -22948398.833 4 -17881863.898 4  20935680.634    20935678.834
 -21498931.61044 -16752388.39544  20912248.2094   20912250.3974
 -11297019.66344  -8802866.80844  20943257.0514   20943259.3294
 96  5 18  3 27  0.0000000  0  8G26G 3G 1G21G 6G28G23G17
  -4791098.77944  -3733308.17344  24051860.7724   24051861.9444
 -12508828.57744  -9747136.67744  22026260.8674   22026263.8284
 -10855155.58444  -8458546.40444  23104452.2954   23104455.5794
 -22450997.57144 -17494256.85444  21324222.2204   21324225.1894
  -4967984.36544  -3871148.01444  24479423.0234   24479427.9304
 -22977714.404 4 -17904707.202 4  20930102.065    20930100.271
 -21472865.88744 -16732077.43744  20917208.3784   20917210.5774
 -11269130.27444  -8781134.81944  20948564.2094   20948566.5864
 96  5 18  3 27 30.0000000  0  8G26G 3G 1G21G 6G28G23G17
  -4700323.15044  -3662573.93044  24069134.7134   24069136.1854
 -12573941.19644  -9797873.77844  22013870.3364   22013873.2154
 -10963084.29244  -8542646.63844  23083914.1734   23083918.4174
 -22490390.34944 -17524952.52144  21316726.0064   21316728.8894
  -4855395.18544  -3783416.19944  24500847.9764   24500853.9744
 -23005892.177 4 -17926663.909 4  20924740.004    20924738.190
 -21446025.64044 -16711162.95544  20922315.9734   20922318.2104
 -11240369.29644  -8758723.67244  20954037.2244   20954039.7354
 96  5 18  3 28  0.0000000  0  8G26G 3G 1G21G 6G28G23G17
  -4609026.66644  -3591433.82044  24086507.6824   24086509.9404
 -12638332.95844  -9848049.17444  22001616.9614   22001619.4514
 -11070568.54744  -8626400.54644  23063460.4594   23063464.5564
 -22529302.48244 -17555273.65744  21309321.2464   21309323.9574
  -4742542.69944  -3695479.15444  24522323.2764   24522328.5594
 -23033239.715 4 -17947973.682 4  20919535.950    20919534.132
 -21418719.33844 -16689885.30744  20927512.1434   20927514.3744
 -11211050.78444  -8735878.08244  20959616.3164   20959618.6924
 96  5 18  3 28 30.0000000  0  8G26G 3G 1G21G 6G28G23G17
  -4517138.41244  -3519832.58644  24103993.4504   24103995.3514
 -12701896.68744  -9897579.34444  21989521.2264   21989523.9504
 -11177495.02844  -8709719.81844  23043113.0104   23043116.9764
 -22567626.10744 -17585136.20944  21302028.4964   21302031.3834
  -4629335.26244  -3607265.55644  24543865.7774   24543869.1094
 -23059658.174 4 -17968559.499 4  20914508.684    20914506.871
 -21390853.24844 -16668171.46244  20932814.8744   20932817.1924
 -11181097.41944  -8712537.80144  20965316.2334   20965318.6504
 96  5 18  3 29  0.0000000  0  8G26G 3G 1G21G 6G28G23G17
  -4424595.64244  -3447721.34244  24121603.6934   24121606.0714
 -12764543.49244  -9946395.02744  21977599.9074   21977602.2264
 -11283798.29544  -8792553.47444  23022884.0564   23022888.0724
 -22605285.88244 -17614481.47344  21294862.1134   21294865.0934
  -4515695.50544  -3518715.10844  24565490.7034   24565493.7944
 -23085072.443 4 -17988362.830 4  20909672.521    20909670.694
 -21362368.83744 -16645975.81444  20938235.2674   20938237.5074
 -11150432.27744  -8688642.89044  20971151.7174   20971154.1034
 96  5 18  3 29 30.0000000  0  8G26G 3G 1G21G 6G28G23G17
  -4331506.26644  -3375184.18144  24139317.9844   24139319.5024
 -12826351.27644  -9994556.92744  21965838.2654   21965841.0184
 -11389596.08044  -8874993.24444  23002751.3974   23002754.6144
 -22642390.65244 -17643394.27444  21287801.2614   21287804.2824
  -4401712.49044  -3429897.17944  24587180.8014   24587187.0684
 -23109582.152 4 -18007461.313 4  20905008.483    20905006.680
 -21333371.30744 -16623380.33544  20943753.2944   20943755.5084
 -11119147.53744  -8664265.17744  20977104.9694   20977107.2724
 96  5 18  3 30  0.0000000  0  8G26G28G23G 3G17G 1G21G 6
  -4237440.66644  -3301886.32044  24157218.1094   24157220.9454
 -23132751.333 4 -18025515.229 4  20900599.550    20900597.763
 -21303417.05444 -16600039.35844  20949453.3804   20949455.6314
 -12886894.02844 -10041733.09144  21954317.3024   21954320.1344
 -11086822.96444  -8639077.20444  20983256.1294   20983258.5044
 -11494473.95044  -8956716.20844  22982793.8864   22982797.2044
 -22678491.76444 -17671525.00544  21280931.5194   21280934.5524
  -4286946.94444  -3340469.47844  24609020.0914   24609022.8184
 96  5 18  3 30 30.0000000  0  8G26G28G23G 3G17G 1G21G 6
  -4142182.98144  -3227659.56344  24175345.1484   24175347.3904
 -23154360.017 4 -18042353.173 4  20896487.562    20896485.797
 -21272283.78144 -16575779.66644  20955377.8564   20955380.1304
 -12945972.24944 -10087768.06244  21943075.0674   21943077.8794
 -11053241.34044  -8612909.71544  20989646.4914   20989648.8114
 -11598226.07344  -9037561.95944  22963050.3934   22963054.4654
 -22713371.77744 -17698704.22244  21274294.0484   21274296.8874
  -4171167.74044  -3250251.89044  24631052.0624   24631055.8944
 96  5 18  3 31  0.0000000  0  8G26G28G23G 3G17G 1G21G 6
  -4046412.19744  -3153032.98344  24193569.6234   24193572.5424
 -23175101.662 4 -18058515.500 4  20892540.587    20892538.797
 -21240662.14144 -16551139.42444  20961395.2654   20961397.6054
 -13004291.12644 -10133211.33344  21931977.5084   21931980.1504
 -11019086.99244  -8586295.94244  20996145.9244   20996148.3524
 -11701551.94544  -9118075.56244  22943388.1054   22943391.7544
 -22747730.23844 -17725477.02544  21267755.8124   21267758.7624
  -4055064.09944  -3159781.52744  24653145.6844   24653151.5384
 96  5 18  3 31 30.0000000  0  8G26G28G23G 3G17G 1G21G 6
  -3950413.77944  -3078229.03644  24211837.5754   24211840.0234
 -23195253.709 4 -18074218.401 4  20888705.811    20888703.972
 -21208829.07444 -16526334.43344  20967452.8634   20967455.1034
 -13062140.12044 -10178288.46644  21920969.2454   21920971.8444
 -10984645.18544  -8559458.17844  21002699.9564   21002702.1274
 -11804715.18944  -9198462.45344  22923756.7604   22923760.9434
 -22781840.80044 -17752056.65844  21261264.7724   21261267.6554
  -3938910.58144  -3069272.28944  24675249.1334   24675253.5364
 96  5 18  3 32  0.0000000  0  8G26G28G23G 3G17G 1G21G 6
  -3854263.32644  -3003306.62344  24230134.3714   24230136.6444
 -23214885.887 4 -18089516.210 4  20884969.915    20884968.108
 -21176871.54144 -16501432.45344  20973534.1524   20973536.4824
 -13119607.07644 -10223067.90244  21910033.6154   21910036.2184
 -10949994.46244  -8532457.61844  21009293.7754   21009296.0634
 -11907763.04944  -9278759.43444  22904147.2424   22904151.0574
 -22815774.36544 -17778498.37544  21254807.4734   21254810.3404
  -3822783.55744  -2978783.69744  24697347.3184   24697352.2844
 96  5 18  3 32 30.0000000  0  8G26G28G23G 3G17G 1G21G 6
  -3757652.35144  -2928025.36044  24248518.9054   24248519.6184
 -23233692.762 4 -18104170.924 4  20881391.098    20881389.288
 -21144499.21644 -16476207.25844  20979694.4244   20979696.6554
 -13176374.07844 -10267301.92244  21899231.1214   21899233.8244
 -10914820.95644  -8505049.69744  21015987.0804   21015989.3744
 -12010370.20344  -9358713.01144  22884621.7554   22884625.2194
 -22849251.92344 -17804584.76944  21248436.9104   21248439.9034
  -3706389.54444  -2888087.03844  24719496.4034   24719500.9674
 96  5 18  3 33  0.0000000  0  8G26G28G23G 3G17G 1G21G 6
  -3660487.90044  -2852312.81144  24267008.6864   24267009.6594
 -23251589.349 4 -18118116.324 4  20877985.485    20877983.672
 -21111635.65144 -16450599.28144  20985948.1714   20985950.5434
 -13232339.87744 -10310911.63044  21888581.1534   21888583.8144
 -10879037.93744  -8477166.83144  21022796.3034   21022798.6164
 -12112442.75344  -9438250.00944  22865197.9224   22865201.7534
 -22882191.22744 -17830251.74944  21242168.7474   21242171.6684
  -3589652.32244  -2797122.91844  24741710.6914   24741713.2354
 96  5 18  3 33 30.0000000  0  8G26G28G23G 3G17G 1G21G 6
  -3560828.68844  -2774656.29044  24285973.3194   24285973.6654
 -23266626.583 4 -18129833.654 4  20875123.991    20875122.214
 -21076331.76144 -16423089.75444  20992666.2634   20992668.6394
 -13285544.06844 -10352369.43544  21878456.8184   21878459.6854
 -10840690.22944  -8447285.50144  21030093.6934   21030095.9134
 -12212035.87344  -9515854.98744  22846246.0074   22846249.2654
 -22912637.92544 -17853976.43744  21236374.9124   21236377.7154
  -3470634.89044  -2704382.06644  24764358.9604   24764364.1834
 96  5 18  3 34  0.0000000  0  8G26G28G23G 3G17G 1G21G 6
  -3459295.99844  -2695539.92044  24305294.2554   24305296.3054
 -23279438.508 4 -18139816.976 4  20872685.972    20872684.182
 -21039219.02644 -16394170.73744  20999728.5204   20999730.8194
 -13336610.06544 -10392161.11544  21868739.2774   21868741.8064
 -10800404.40344  -8415893.95144  21037759.8284   21037762.2064
 -12309786.46844  -9592024.23644  22827644.5934   22827648.3024
 -22941228.03444 -17876254.42944  21230934.3854   21230937.3074
  -3349983.01644  -2610367.60244  24787318.2744   24787322.4864
 96  5 18  3 34 30.0000000  0  8G26G28G23G 3G17G 1G21G 6
  -3358093.32444  -2616680.71344  24324552.5274   24324552.8824
 -23292229.941 4 -18149784.331 4  20870251.841    20870250.060
 -21002490.14544 -16365550.83044  21006717.8094   21006720.1314
 -13387726.89444 -10431992.41044  21859012.0274   21859014.5404
 -10760371.17044  -8384699.23144  21045377.9784   21045380.1974
 -12407907.18544  -9668481.88644  22808972.8854   22808976.3974
 -22970160.95644 -17898799.55144  21225428.5584   21225431.3484
  -3229901.01444  -2516797.13144  24810168.9754   24810172.7184
 96  5 18  3 35  0.0000000  0  8G26G28G23G 3G17G 1G21G 6
  -3256268.43144  -2537336.66344  24343929.2064   24343929.7514
 -23304032.966 4 -18158981.497 4  20868005.812    20868004.032
 -20965175.69244 -16336474.63344  21013818.5704   21013820.9904
 -13437929.76644 -10471111.52744  21849458.8874   21849461.6834
 -10719615.91244  -8352941.89544  21053133.4244   21053135.7094
 -12505437.31244  -9744479.33944  22790413.4454   22790416.6114
 -22998461.94244 -17920852.25644  21220043.0744   21220045.9124
  -3109417.86044  -2422914.15044  24833096.2144   24833096.4414
 96  5 18  3 35 30.0000000  0  8G26G28G23G 3G17G 1G21G 6
  -3155192.28244  -2458576.01444  24363163.4494   24363165.7594
 -23316195.843 4 -18168459.068 4  20865691.276    20865689.478
 -20928631.25644 -16307998.44544  21020772.7804   21020775.1124
 -13488566.45144 -10510568.68444  21839822.9494   21839825.8344
 -10679485.57344  -8321671.51344  21060769.9204   21060772.2594
 -12603726.68744  -9821068.40944  22771709.5904   22771713.0704
 -23027482.56244 -17943465.70844  21214520.5464   21214523.5174
  -2989885.98944  -2329772.39844  24855842.2624   24855848.7074
 96  5 18  3 36  0.0000000  0  8G26G28G23G 3G17G 1G21G 6
  -3054487.29944  -2380104.61844  24382326.9184   24382328.5804
 -23328332.200 4 -18177915.976 4  20863381.802    20863379.994
 -20892471.40344 -16279821.93444  21027653.7664   21027655.9294
 -13539257.03844 -10550067.84444  21830176.8414   21830179.6504
 -10639612.39744  -8290601.51744  21068357.5484   21068359.8624
 -12702378.51644  -9897939.91944  22752936.7444   22752939.8254
 -23056846.00544 -17966346.29544  21208932.8154   21208935.5834
  -2870927.34844  -2237077.31544  24878479.3304   24878482.8224
 96  5 18  3 36 30.0000000  0  8G26G28G23G 3G17G 1G21G 6
  -2953039.97544  -2301054.75844  24401631.6334   24401634.3994
 -23339306.542 4 -18186467.417 4  20861293.452    20861291.654
 -20855557.67544 -16251057.98444  21034678.1314   21034680.3594
 -13588867.90344 -10588725.66044  21820736.1834   21820738.8904
 -10598868.79044  -8258853.26144  21076110.8604   21076113.1734
 -12800249.90844  -9974203.29144  22734312.3684   22734315.6564
 -23085415.01644 -17988607.85244  21203496.4034   21203499.2184
  -2751415.44344  -2143951.12344  24901221.6494   24901226.0914
 96  5 18  3 37  0.0000000  0  8G26G28G23G 3G17G 1G21G 6
  -2850759.86944  -2221355.98544  24421094.8064   24421098.4574
 -23349018.049 4 -18194034.833 4  20859445.423    20859443.631
 -20817797.15644 -16221634.20144  21041863.7344   21041866.0354
 -13637304.05244 -10626468.11244  21811519.1554   21811521.7974
 -10557169.21344  -8226360.09244  21084046.0094   21084048.3654
 -12897234.74644 -10049775.84044  22715856.5774   22715859.9804
 -23113083.37344 -18010167.59744  21198231.2714   21198234.1504
  -2631257.28744  -2050321.36944  24924087.0984   24924092.2944
 96  5 18  3 37 30.0000000  0  8G26G28G23G 3G17G 1G21G 6
  -2747938.47844  -2141235.44544  24440661.0064   24440662.2764
 -23357771.158 4 -18200855.445 4  20857779.777    20857777.985
 -20779497.86644 -16191790.60044  21049151.8474   21049154.0624
 -13684860.82644 -10663525.34544  21802469.3344   21802471.6654
 -10514839.14144  -8193375.62644  21092101.1494   21092103.5514
 -12993634.93744 -10124892.82044  22697512.2024   22697515.4304
 -23140141.37044 -18031251.74244  21193082.3034   21193085.1544
  -2510769.90344  -1956435.05744  24947014.9714   24947019.9114
 96  5 18  3 38  0.0000000  0  8G26G28G23G 3G17G 1G21G 6
  -2645117.96544  -2061115.57044  24460227.0714   24460228.8384
 -23366122.439 4 -18207362.944 4  20856190.582    20856188.782
 -20741211.96844 -16161957.43544  21056437.4244   21056439.6894
 -13732096.67144 -10700332.49344  21793480.6974   21793483.2654
 -10472444.22744  -8160340.63144  21100168.6724   21100170.9484
 -13089993.87744 -10199977.66744  22679175.7234   22679179.2104
 -23167143.33744 -18052292.23444  21187943.9274   21187946.7294
  -2390511.45244  -1862727.14144  24969899.5194   24969903.8374
 96  5 18  3 38 30.0000000  0  8G26G28G23G 3G17G 1G21G 6
  -2542514.78744  -1981165.06044  24479751.9574   24479753.8024
 -23374287.496 4 -18213725.340 4  20854636.848    20854635.048
 -20703171.87944 -16132315.81144  21063676.2674   21063678.5314
 -13779214.11344 -10737047.38244  21784514.3854   21784517.1974
 -10430172.65244  -8127401.74044  21108212.6774   21108215.0024
 -13186530.30244 -10275200.80344  22660805.3484   22660808.8354
 -23194303.54044 -18073456.01644  21182775.5004   21182778.4804
  -2270690.37344  -1769360.03844  24992700.6814   24992701.9804
 96  5 18  3 39  0.0000000  0  8G26G28G23G 3G17G 1G21G 6
  -2440256.49644  -1901483.29044  24499211.0374   24499213.4954
 -23382404.456 4 -18220050.256 4  20853092.250    20853090.434
 -20665521.93344 -16102978.19444  21070840.8074   21070842.9174
 -13826349.77144 -10773776.46744  21775544.8354   21775547.8844
 -10388157.69244  -8094662.81744  21116207.8324   21116210.0624
 -13283394.34544 -10350679.22944  22642372.7064   22642375.9184
 -23221777.28144 -18094864.10844  21177547.4324   21177550.3654
  -2151439.57044  -1676437.30644  25015393.2774   25015395.6874
 96  5 18  3 39 30.0000000  0  8G26G28G23G 3G17G 1G21G 6
  -2338160.94544  -1821928.32744  24518639.0344   24518641.9574
 -23390299.460 4 -18226202.211 4  20851589.888    20851588.056
 -20628081.22744 -16073803.61644  21077965.5424   21077967.6814
 -13873331.51344 -10810385.61944  21766604.5614   21766607.4244
 -10346214.26544  -8061979.63044  21124189.4674   21124191.7824
 -13380407.75244 -10426274.04844  22623911.6224   22623915.0494
 -23249400.40344 -18116388.60944  21172290.9394   21172293.8574
  -2032590.34244  -1583827.49544  25038009.6344   25038012.2224
 96  5 18  3 40  0.0000000  0  8G26G28G23G 3G17G 1G21G 6
  -2236388.15144  -1742624.85344  24538005.8254   24538006.5354
 -23398126.605 4 -18232301.292 4  20850100.440    20850098.604
 -20590997.10344 -16044906.89444  21085022.4014   21085024.6664
 -13920317.89544 -10846998.38644  21757663.2844   21757665.9794
 -10304470.39044  -8029451.94344  21132133.0694   21132135.2564
 -13477724.68344 -10502105.37444  22605392.7074   22605395.9244
 -23277342.66944 -18138161.79044  21166973.6454   21166976.5424
  -1914281.95744  -1491639.12244  25060522.9024   25060528.7464
 96  5 18  3 40 30.0000000  0  8G26G28G23G 3G17G 1G21G 6
  -2134646.32244  -1663345.52144  24557366.7414   24557367.1474
 -23405580.535 4 -18238109.558 4  20848681.998    20848680.145
 -20553968.46044 -16016053.41044  21092068.6974   21092070.8804
 -13967010.72844 -10883382.41244  21748778.0034   21748780.5524
 -10262620.95344  -7996841.99644  21140096.7464   21140099.1794
 -13575047.30144 -10577941.13044  22586872.9234   22586876.6804
 -23305304.43944 -18159950.16444  21161652.7394   21161655.6324
  -1796212.28544  -1399636.73144  25082990.8454   25082993.1314
 96  5 18  3 41  0.0000000  0  8G26G28G23G 3G17G 1G21G 6
  -2033455.40644  -1584495.47544  24576622.5384   24576625.1474
 -23413177.519 4 -18244029.296 4  20847236.318    20847234.493
 -20517504.31944 -15987639.80044  21099007.5754   21099009.6694
 -14013942.27844 -10919952.45544  21739847.1674   21739850.0024
 -10221200.46144  -7964566.29544  21147978.7424   21147981.2894
 -13672882.99344 -10654176.68744  22568255.4104   22568258.9784
 -23333789.47444 -18182146.28544  21156232.2194   21156235.0714
  -1678892.67844  -1308218.83144  25105315.9834   25105320.0584
 96  5 18  3 41 30.0000000  0  8G26G28G23G 3G17G 1G21G 6
  -1932468.37944  -1505804.28844  24595840.0464   24595840.1884
 -23420557.875 4 -18249780.236 4  20845831.907    20845830.070
 -20481254.15144 -15959392.92544  21105905.7854   21105907.9434
 -14060762.66744 -10956435.87544  21730937.4934   21730940.0774
 -10179856.95444  -7932350.58244  21155846.1964   21155848.5124
 -13770864.83844 -10730526.12844  22549609.9854   22549613.3864
 -23362425.30844 -18204459.90644  21150782.9654   21150785.7814
  -1561968.40744  -1217108.98144  25127565.7474   25127573.1614
 96  5 18  3 42  0.0000000  0  8G26G28G23G 3G17G 1G21G 6
  -1831670.95044  -1427260.83544  24615021.1604   24615022.6904
 -23427692.879 4 -18255339.991 4  20844474.175    20844472.325
 -20445205.42344 -15931303.01044  21112765.5774   21112767.9234
 -14107441.00644 -10992808.60744  21722055.0304   21722057.6534
 -10138571.16344  -7900179.83844  21163702.5444   21163704.7784
 -13868968.16644 -10806970.23144  22530941.4934   22530944.8174
 -23391194.03844 -18226877.08144  21145308.4654   21145311.3634
  -1445410.99544  -1126284.98944  25149745.8634
 96  5 18  3 42 30.0000000  0  8G26G28G23G 3G17G 1G21G 6
  -1730985.26444  -1348804.47044  24634181.1604   24634183.5824
 -23434486.187 4 -18260633.484 4  20843181.460    20843179.600
 -20409265.18444 -15903297.63144  21119604.7454   21119606.9204
 -14153876.92344 -11028992.44344  21713218.5534   21713221.1274
 -10097258.16044  -7867987.88944  21171564.2944   21171566.5574
 -13967083.16844 -10883423.43444  22512270.8204   22512274.1394
 -23420005.78044 -18249327.78544  21139825.7944   21139828.6384
  -1329145.17944  -1035688.22944  25171870.6774   25171875.9474
 96  5 18  3 43  0.0000000  0  8G26G28G23G 3G17G 1G21G 6
  -1630794.67044  -1270733.89544  24653246.8504   24653247.5484
 -23441325.829 4 -18265963.084 4  20841879.931    20841878.091
 -20373816.54644 -15875675.31844  21126350.4284   21126352.4744
 -14200443.43944 -11065278.03844  21704357.2524   21704359.6814
 -10056301.79244  -7836073.84144  21179358.0204   21179360.3974
 -14065598.43844 -10960188.52944  22493524.0404   22493527.0864
 -23449249.23644 -18272114.88644  21134260.8734   21134263.5514
  -1213573.59944   -945632.44344  25193862.8904   25193866.6524
 96  5 18  3 43 30.0000000  0  8G26G28G23G 3G17G 1G21G 6
  -1530825.54344  -1192835.88944  24672270.3624   24672273.0444
 -23447935.567 4 -18271113.541 4  20840622.159    20840620.353
 -20338581.19444 -15848219.20244  21133055.5334   21133057.8164
 -14246848.78144 -11101438.04644  21695526.6344   21695529.4134
 -10015434.84644  -7804229.47144  21187134.6694   21187137.0474
 -14164238.06444 -11037050.52844  22474753.5014   22474756.7394
 -23478672.41444 -18295042.02244  21128661.8384   21128664.6384
  -1098438.24744   -855916.58744  25215772.5554   25215776.1974
 96  5 18  3 44  0.0000000  0  8G26G28G23G 3G17G 1G21G 6
  -1431171.30144  -1115183.22644  24691233.7964   24691235.6394
 -23454406.507 4 -18276155.845 4  20839390.782    20839388.980
 -20303644.07644 -15820995.48044  21139703.8174   21139706.1004
 -14293158.19444 -11137523.30444  21686714.1114   21686716.9294
  -9974741.54444  -7772520.40944  21194878.2964   21194880.7084
 -14263077.82644 -11114068.47444  22455944.7704   22455947.9344
 -23508366.19144 -18318180.01344  21123011.3264   21123014.1074
   -983825.91044   -766608.23344  25237582.5634
 96  5 18  3 44 30.0000000  0  8G26G28G23G 3G17G 1G21G 6
  -1331963.44444  -1037878.41744  24710112.5204   24710113.5774
 -23460873.352 4 -18281194.958 4  20838160.175    20838158.374
 -20269131.48344 -15794102.55644  21146271.3754   21146273.5984
 -14339499.05044 -11173633.06544  21677895.7134   21677898.3874
  -9934352.60544  -7741048.51144  21202564.0654   21202566.3944
 -14362247.29644 -11191343.33444  22437073.4764   22437076.7004
 -23538446.45744 -18341619.16544  21117287.2264   21117290.0114
   -869862.82644   -677805.84544  25259268.9534   25259270.4984
 96  5 18  3 45  0.0000000  0  8G26G28G23G 3G17G 1G21G 6
  -1233254.65744   -960962.50044  24728896.0214   24728896.3854
 -23467404.826 4 -18286284.432 4  20836917.284    20836915.471
 -20235126.42144 -15767605.10944  21152742.3124   21152744.6174
 -14385951.21344 -11209829.55744  21669056.1264   21669059.0974
  -9894337.11144  -7709867.61144  21210178.7584   21210181.2564
 -14461833.56044 -11268942.96644  22418122.8014   22418125.9554
 -23568962.20144 -18365397.65544  21111480.2804   21111482.8624
   -756609.85944   -589556.72544  25280820.2774   25280823.3114
 96  5 18  3 45 30.0000000  0  8G26G28G23G 3G17G 1G21G 6
  -1134877.59144   -884305.05744  24747616.6574   24747617.7994
 -23473825.702 4 -18291287.726 4  20835695.437    20835693.664
 -20201470.19544 -15741379.48344  21159146.8424   21159149.1034
 -14432338.89644 -11245975.80544  21660228.9044   21660231.7094
  -9854505.05044  -7678829.64444  21217758.5364   21217760.8654
 -14561651.23744 -11346722.92544  22399128.1504   22399131.3354
 -23599731.00044 -18389373.33144  21105625.0384   21105627.8764
   -643874.15144   -501710.71644  25302273.1494
 96  5 18  3 46  0.0000000  0  8G26G28G23G 3G17G 1G21G 6
  -1036523.12144   -807665.20344  24766332.8284   24766334.0964
 -23479827.406 4 -18295964.390 4  20834553.379    20834551.597
 -20167865.23944 -15715193.81144  21165541.7094   21165543.8544
 -14478356.39344 -11281833.59844  21651472.1774   21651475.1094
  -9814512.27144  -7647666.44944  21225368.9174   21225371.3574
 -14661389.54644 -11424441.04644  22380148.5454   22380151.7544
 -23630436.30144 -18413299.52644  21099782.0894   21099784.8754
   -531350.98544   -414030.36344  25323685.5934
 96  5 18  3 46 30.0000000  0  8G26G28G23G 3G17G 1G21G 6
   -937994.71644   -730889.84744  24785082.3004   24785083.7114
 -23485217.447 4 -18300164.436 4  20833527.701    20833525.895
 -20134131.00744 -15688907.40644  21171961.1584   21171963.3424
 -14523832.07344 -11317269.19544  21642818.3734   21642820.8154
  -9774156.79744  -7616220.63444  21233048.2974   21233050.5204
 -14760865.66744 -11501954.85644  22361218.7284   22361221.9244
 -23660895.06344 -18437033.61344  21093985.9614   21093988.6184
   -418865.52944   -326379.30744  25345090.9614
 96  5 18  3 47  0.0000000  0  8G26G28G23G 3G17G 1G21G 6
   -838794.29444   -653590.83944  24803959.4124   24803960.8354
 -23489500.466 4 -18303501.864 4  20832712.691    20832710.874
 -20099780.88644 -15662141.08544  21178497.7984   21178500.0904
 -14568268.47344 -11351894.96444  21634362.4194   21634365.0484
  -9732941.94144  -7584105.16244  21240891.2464   21240893.5834
 -14859578.93244 -11578874.23744  22342434.0814   22342437.2594
 -23690626.94544 -18460201.30244  21088328.1424   21088330.8134
   -305938.45044                  25366580.2314
 96  5 18  3 47 30.0000000  0  8G26G28G23G 3G17G 1G21G 6
   -739047.99544   -575866.46044  24822940.3434   24822943.4784
 -23492783.848 4 -18306060.353 4  20832087.905    20832086.070
 -20064904.81744 -15634964.93244  21185134.4844   21185136.6174
 -14611755.53144 -11385780.98444  21626087.0004   21626089.7724
  -9690974.78544  -7551403.48444  21248877.3064   21248879.7434
 -14957615.50244 -11655266.32544  22323778.3454   22323781.5524
 -23719764.33844 -18482905.75144  21082783.4264   21082786.2324
   -192674.78844                  25388133.5624
 96  5 18  3 48  0.0000000  0  8G26G28G23G 3G17G 1G21G 6
   -638820.49744   -497767.10044  24842013.0674   24842016.2124
 -23495128.818 4 -18307887.611 4  20831641.676    20831639.857
 -20029546.57244 -15607413.05444  21191862.9574   21191865.1754
 -14654366.02944 -11418983.96644  21617978.5524   21617981.3094
  -9648337.74944  -7518179.82244  21256990.9134   21256993.1084
 -15055044.92844 -11731185.30744  22305238.1064   22305241.5044
 -23748370.24744 -18505196.05544  21077339.9024   21077342.6954
    -79147.23444    -61663.77044  25409737.2784
 96  5 18  3 48 30.0000000  0  8G26G28G23G 3G17G 1G21G 6
   -538037.96544   -419235.24444  24861191.1904   24861194.0244
 -23496458.269 4 -18308923.555 4  20831388.703    20831386.881
 -19993607.78744 -15579408.80744  21198701.8284   21198703.9714
 -14696024.38344 -11451445.02544  21610051.2574   21610053.8974
  -9604997.01944  -7484407.82844  21265238.4394   21265240.6774
 -15151805.86444 -11806583.39144  22286825.1154   22286828.4574
 -23776357.26644 -18527004.10744  21072014.1894   21072016.9944
     34730.39244                  25431407.1734
 96  5 18  3 49  0.0000000  0  8G26G28G23G 3G17G 1G21G 6
   -437081.39444   -340567.82844  24880402.4514   24880403.5634
 -23497134.981 4 -18309450.871 4  20831259.929    20831258.137
 -19957431.76144 -15551219.70244  21205585.8954   21205588.1194
 -14737083.99344 -11483439.52344  21602237.8744   21602240.6784
  -9561338.74244  -7450388.39644  21273546.3514   21273548.6334
 -15248262.45144 -11881744.33144  22268470.0654   22268473.3294
 -23804085.57344 -18548610.56144  21066737.6144   21066740.4954
    148608.36544    115808.14344  25453077.7244
 96  5 18  3 49 30.0000000  0  7G26G28G23G 3G17G 1G21
   -335858.37444   -261692.75544  24899664.5624   24899665.9794
 -23497055.950 4 -18309389.296 4  20831274.928    20831273.169
 -19920900.28844 -15522753.62344  21212537.6224   21212539.8404
 -14777450.36544 -11514893.84144  21594556.4974   21594559.2194
  -9517258.98044  -7416040.53644  21281934.3874   21281936.7284
 -15344311.97144 -11956588.07144  22250192.4584   22250195.8824
 -23831440.30844 -18569925.92544  21061532.2474   21061534.9494
 96  5 18  3 50  0.0000000  0  7G26G28G23G 3G17G 1G21
   -233672.74644   -182067.54144  24919109.8924   24919113.2714
 -23495535.808 4 -18308204.774 4  20831564.200    20831562.450
 -19883337.45444 -15493483.88844  21219685.6044   21219687.7674
 -14816441.46944 -11545276.52044  21587136.6884   21587139.4644
  -9472071.47044  -7380829.49544  21290533.3034   21290535.7034
 -15439270.41344 -12030581.62044  22232122.3744   22232125.4934
 -23857718.98244 -18590402.79944  21056531.5684   21056534.3064
 96  5 18  3 50 30.0000000  0  7G26G28G23G 3G17G 1G21
   -130590.75344   -101743.93644  24938725.7484   24938726.2924
 -23492649.079 4 -18305955.378 4  20832113.530    20832111.786
 -19844834.62944 -15463481.68944  21227012.4874   21227014.6044
 -14854119.35844 -11574635.91744  21579966.8554   21579969.5184
  -9425830.48944  -7344797.56644  21299332.6634   21299335.0464
 -15533196.31144 -12103770.59744  22214248.8824   22214252.0824
 -23883004.15544 -18610105.51944  21051719.9704   21051722.6344
 96  5 18  3 51  0.0000000  0  8G26G28G23G 3G17G 1G21G31
    -26615.08644    -20723.94244  24958511.7944   24958513.5934
 -23488399.837 4 -18302644.279 4  20832922.152    20832920.395
 -19805420.71744 -15432769.55344  21234512.6414   21234514.8934
 -14890484.66444 -11602972.51844  21573046.7624   21573049.1474
  -9378510.55544  -7307924.89144  21308337.2844   21308339.4564
 -15626063.76544 -12176134.81044  22196576.8654   22196580.0514
 -23907317.82544 -18629051.22644  21047093.2244   21047095.9364
        -0.00154         0.93254  23830698.4464   23830701.7034
 96  5 18  3 51 30.0000000  0  8G26G28G23G 3G17G 1G21G31
     77736.23944     60588.79044  24978369.1024   24978370.8714
 -23483311.545 4 -18298679.376 4  20833890.423    20833888.630
 -19765630.67644 -15401764.33144  21242084.4604   21242086.6674
 -14926056.97544 -11630691.20244  21566277.5984   21566280.0584
  -9330614.92344  -7270603.62744  21317451.5864   21317453.8984
 -15718385.93144 -12248074.12644  22179008.5314   22179011.7014
 -23931179.05444 -18647644.38044  21042552.5684   21042555.2824
    -83059.93044    -64721.07744  23814892.4414   23814895.6584
 96  5 18  3 52  0.0000000  0  8G26G28G23G 3G17G 1G21G31
    181892.83544    141749.76944  24998189.6754   24998190.8014
 -23477955.552 4 -18294505.874 4  20834909.629    20834907.829
 -19726048.71044 -15370921.24244  21249616.6264   21249618.8474
 -14961398.10944 -11658229.74544  21559552.4204   21559555.2114
  -9282721.03844  -7233283.72444  21326565.6114   21326567.8934
 -15810731.82144 -12320031.92744  22161435.6364   22161438.7504
 -23955169.83944 -18666338.48344  21037987.1664   21037989.9014
   -166125.48044   -129447.47344  23799085.6884   23799088.7294
 96  5 18  3 52 30.0000000  0  8G26G28G23G 3G17G 1G21G31
    286032.08844    222897.26144  25018006.6694   25018006.6094
 -23472137.960 4 -18289972.690 4  20836016.694    20836014.903
 -19686483.39044 -15340091.12544  21257145.7124   21257147.9054
 -14996319.37044 -11685441.12244  21552907.0574   21552909.9724
  -9234650.97744  -7195826.54044  21335712.9774   21335715.5354
 -15902909.86444 -12391858.94044  22143894.6634   22143897.7644
 -23979102.49244 -18684987.29444  21033432.9374   21033435.6804
   -249013.48244   -194035.53944  23783312.5614   23783316.1104
 96  5 18  3 53  0.0000000  0  8G26G28G23G 3G17G 1G21G31
    390182.72444    304053.61244  25037825.7974   25037826.9754
 -23465805.794 4 -18285038.544 4  20837221.670    20837219.882
 -19646869.69744 -15309223.31444  21264683.9644   21264686.1874
 -15030776.06344 -11712290.48444  21546350.1834   21546352.9294
  -9186371.61144  -7158206.26944  21344900.2494   21344902.6094
 -15994875.44544 -12463520.39844  22126394.1234   22126397.2344
 -24002912.94144 -18703540.88244  21028902.0154   21028904.8744
   -331664.73244   -258439.08944  23767584.4614   23767587.6484
 96  5 18  3 53 30.0000000  0  8G26G28G23G 3G17G 1G21G31
    494288.16444    385174.74844  25057636.3624   25057639.3854
 -23459011.975 4 -18279744.672 4  20838514.513    20838512.669
 -19607259.11444 -15278357.92644  21272221.5644   21272223.8334
 -15064824.19944 -11738821.49744  21539871.0494   21539873.6854
  -9137947.51144  -7120473.21844  21354115.0474   21354117.4834
 -16086694.48544 -12535067.67044  22108921.5754   22108924.6734
 -24026642.14644 -18722031.16244  21024386.5034   21024389.2554
   -414126.97244   -322695.36544  23751892.3344   23751894.9254
 96  5 18  3 54  0.0000000  0  8G26G28G23G 3G17G 1G21G31
    598522.45844    466396.30044  25077471.7394   25077474.1654
 -23451588.642 4 -18273960.271 4  20839927.148    20839925.301
 -19567500.09344 -15247376.87244  21279787.4254   21279789.6314
 -15098300.97444 -11764907.29544  21533500.6214   21533503.4024
  -9089214.37744  -7082499.35744  21363388.6404   21363391.0724
 -16178201.19344 -12606371.56144  22091508.3684   22091511.4504
 -24050127.12944 -18740331.13944  21019917.3594   21019920.1304
   -496221.79044   -386665.35344  23736270.0674   23736273.8184
 96  5 18  3 54 30.0000000  0  8G26G28G23G 3G17G 1G21G31
    702861.63744    547699.56644  25097326.7744   25097329.0154
 -23443556.932 4 -18267701.804 4  20841455.550    20841453.707
 -19527623.79544 -15216304.43644  21287375.6184   21287377.8134
 -15131227.49044 -11790564.32144  21527234.9544   21527237.5394
  -9040184.28944  -7044294.10444  21372718.7394   21372720.8974
 -16269416.81844 -12677448.63844  22074150.5554   22074153.7884
 -24073386.07244 -18758454.97844  21015491.3774   21015494.1114
   -577965.61644   -450361.82544  23720714.8784   23720718.6264
 96  5 18  3 55  0.0000000  0  8G26G28G23G 3G17G 1G21G31
    807265.75944    629053.44044  25117194.2394   25117195.0034
 -23434964.970 4 -18261006.771 4  20843090.546    20843088.707
 -19487684.35844 -15185182.79544  21294975.8914   21294978.1484
 -15163630.98044 -11815813.79744  21521068.8134   21521071.3124
  -8990878.85244  -7005874.28944  21382101.3364   21382103.8844
 -16360391.61844 -12748338.06344  22056838.6474   22056841.7514
 -24096481.33444 -18776451.27644  21011096.4224   21011099.1174
   -659393.27444   -513811.92644  23705219.7154   23705223.1624
 96  5 18  3 55 30.0000000  0  8G26G28G23G 3G17G 1G21G31
    911755.97944    710474.39844  25137077.8824   25137081.0874
 -23425804.769 4 -18253868.957 4  20844833.670    20844831.826
 -19447682.01144 -15154012.13244  21302588.1084   21302590.3824
 -15195484.01644 -11840634.34644  21515007.3194   21515009.8694
  -8941284.47844  -6967229.32944  21391538.8104   21391541.1694
 -16451111.11544 -12819028.55044  22039575.2854   22039578.4784
 -24119420.01244 -18794325.56444  21006731.3884   21006734.1144
   -740478.71044   -576995.36244  23689789.6424   23689794.9344
 96  5 18  3 56  0.0000000  0  8G26G28G23G 3G17G 1G21G31
   1016327.00744    791958.35044  25156977.0954   25156978.1564
 -23416070.930 4 -18246284.150 4  20846685.957    20846684.083
 -19407603.09544 -15122781.80644  21310214.8564   21310217.0934
 -15226764.13244 -11865008.46344  21509054.9474   21509057.6074
  -8891387.92044  -6928348.90444  21401033.7884   21401036.1944
 -16541564.75444 -12889511.87244  22022362.4794   22022365.6184
 -24142199.92844 -18812076.13444  21002396.4844   21002399.3584
   -821209.84344   -639902.73644  23674427.2004   23674430.4184
 96  5 18  3 56 30.0000000  0  8G26G28G23G 3G17G 1G21G31
   1120977.61344    873504.27844  25176891.4004   25176894.2274
 -23405751.629 4 -18238243.141 4  20848649.660    20848647.805
 -19367406.42244 -15091459.72544  21317863.9964   21317866.1034
 -15257443.78244 -11888914.68244  21503216.7894   21503219.4224
  -8841176.54844  -6889223.17144  21410588.8104   21410591.1004
 -16631734.69344 -12959774.13044  22005203.7144   22005206.6634
 -24164808.63744 -18829693.29644  20998094.2064   20998096.9724
   -901581.88044   -702530.29044  23659133.0204   23659135.9704
 96  5 18  3 57  0.0000000  0  8G26G28G23G 3G17G 1G21G31
   1225694.92844    955102.18944  25196818.4464   25196820.5924
 -23394848.168 4 -18229746.944 4  20850724.528    20850722.680
 -19327068.50644 -15060027.58344  21325540.0864   21325542.3314
 -15287525.46844 -11912354.95044  21497492.4764   21497494.9314
  -8790656.24444  -6849856.71144  21420202.4064   21420204.9044
 -16721614.13144 -13029810.02544  21988100.1624   21988103.2664
 -24187243.74344 -18847175.18344  20993824.9564   20993827.6934
   -981586.65444   -764871.65244  23643908.4114   23643911.2564
 96  5 18  3 57 30.0000000  0  8G26G28G23G 3G17G 1G21G31
   1330481.26644   1036753.89544  25216758.4424   25216758.4794
 -23383352.609 4 -18220789.377 4  20852912.078    20852910.213
 -19286571.33244 -15028471.34344  21333246.5024   21333248.8344
 -15317024.81444 -11935341.45044  21491878.8724   21491881.3484
  -8739828.58344  -6810250.75244  21429874.5804   21429876.9334
 -16811172.02744 -13099595.37044  21971057.8554   21971061.1944
 -24209466.12144 -18864491.31344  20989596.2014   20989599.0724
  -1061217.72644   -826921.82344  23628755.2134   23628758.3344
 96  5 18  3 58  0.0000000  0  8G26G28G23G 3G17G 1G21G31
   1435350.73444   1118470.39944  25236714.5184   25236716.9244
 -23371254.142 4 -18211362.012 4  20855214.340    20855212.492
 -19245900.76144 -14996779.98544  21340985.8764   21340988.0104
 -15345955.18844 -11957884.59444  21486373.5984   21486376.2554
  -8688675.24844  -6770391.01644  21439608.7954   21439611.1944
 -16900385.93844 -13169112.67444  21954081.0284   21954084.0684
 -24231453.26744 -18881624.14144  20985412.1244   20985414.6274
  -1140482.04244   -888686.21144  23613671.5754   23613674.7294
 96  5 18  3 58 30.0000000  0  8G26G28G23G 3G17G 1G21G31
   1540341.89144   1200281.73644  25256693.5224   25256693.5894
 -23358514.950 4 -18201435.378 4  20857638.527    20857636.680
 -19205029.64944 -14964932.36544  21348763.3104   21348765.4824
 -15374296.61144 -11979968.81344  21480980.3694   21480982.9934
  -8637164.93244  -6730253.11244  21449410.8704   21449413.3254
 -16989218.70744 -13238332.98544  21937176.6564   21937179.8194
 -24253167.78944 -18898544.53744  20981280.0054   20981282.7704
  -1219339.27944   -950133.40444  23598665.6624   23598668.8114
 96  5 18  3 59  0.0000000  0  8G26G28G23G 3G17G 1G21G31
   1645429.60144   1282168.26044  25276691.1304   25276692.5804
 -23345168.589 4 -18191035.623 4  20860178.265    20860176.400
 -19164015.25044 -14932973.09544  21356568.0174   21356570.1514
 -15402090.24244 -12001626.18644  21475691.3694   21475693.9914
  -8585336.30344  -6689867.17644  21459273.4304   21459275.6424
 -17077708.15344 -13307285.76444  21920337.5554   21920340.7064
 -24274638.23344 -18915274.74744  20977194.2634   20977196.7784
  -1297814.59544  -1011283.00144  23583732.2954   23583735.1134
 96  5 18  3 59 30.0000000  0  8G26G28G23G 3G17G 1G21G31
   1750621.04544   1364135.68144  25296708.4134   25296712.2524
 -23331231.650 4 -18180175.678 4  20862830.406    20862828.512
 -19122898.21544 -14900933.84544  21364392.3824   21364394.7364
 -15429341.74644 -12022861.12944  21470505.6284   21470508.2614
  -8533201.24844  -6649242.46644  21469194.4844   21469196.8984
 -17165878.93444 -13375990.23844  21903559.2774   21903562.4774
 -24295888.99044 -18931833.77344  20973150.4164   20973153.1174
  -1375939.43844  -1072159.50344  23568865.4944   23568868.9284
 96  5 18  4  0  0.0000000  0  8G26G28G23G 3G17G 1G21G31
   1855957.36344   1446215.93744  25316753.2404   25316753.0434
 -23316656.382 4 -18168818.337 4  20865603.989    20865602.059
 -19081635.17744 -14868780.82344  21372244.4504   21372246.6954
 -15455980.98544 -12043618.98144  21465436.4064   21465438.7464
  -8480702.99244  -6608334.73944  21479184.6084   21479186.8184
 -17253711.14344 -13444430.88644  21886845.3404   21886848.4244
 -24316899.53044 -18948205.61944  20969152.2514   20969154.8374
  -1453664.15244  -1132724.20844  23554075.0074   23554077.1224
 96  5 18  4  0 30.0000000  0  8G26G28G23G 3G17G 1G21G31
   1961415.48644   1528391.11644  25336821.0924   25336821.9324
 -23301455.457 4 -18156973.469 4  20868496.653    20868494.726
 -19040236.92244 -14836522.43544  21380122.2774   21380124.5144
 -15481997.93244 -12063891.92744  21460485.5554   21460487.9694
  -8427858.18844  -6567156.97744  21489240.7144   21489242.9764
 -17341229.30944 -13512626.82744  21870191.1834   21870194.3154
 -24337686.62944 -18964403.34844  20965196.6174   20965199.3044
  -1531000.58544  -1192986.36544  23539358.4554   23539362.4744
 96  5 18  4  1  0.0000000  0  8G26G28G23G 3G17G 1G21G31
   2066984.90144   1610653.04944  25356910.2144   25356913.3994
 -23285643.474 4 -18144652.451 4  20871505.557    20871503.664
 -18998711.18244 -14804164.70844  21388024.3274   21388026.7124
 -15507403.47044 -12083688.45244  21455651.0134   21455653.6594
  -8374677.11144  -6525717.18744  21499360.7314   21499362.8334
 -17428432.46744 -13580577.30844  21853596.9654   21853600.0854
 -24358259.47244 -18980434.12344  20961281.7334   20961284.2234
  -1607973.31644  -1252965.12244  23524711.2024   23524715.3904
 96  5 18  4  1 30.0000000  0  8G26G28G23G 3G17G 1G21G31
   2172649.57244   1692989.18844  25377017.6634   25377019.1804
 -23269225.938 4 -18131859.579 4  20874629.709    20874627.850
 -18957051.07744 -14771702.28344  21395952.0634   21395954.2824
 -15532203.09044 -12103012.83144  21450931.7704   21450934.3934
  -8321165.70644  -6484019.99744  21509543.5954   21509545.8714
 -17515305.26844 -13648270.36744  21837065.5294   21837068.7074
 -24378629.11944 -18996306.56844  20957405.5024   20957408.1764
  -1684581.56444  -1312659.84744  23510133.1204   23510135.5224
 96  5 18  4  2  0.0000000  0  8G26G28G23G 3G17G 1G21G31
   2278409.88144   1775399.89444  25397143.1794   25397145.1114
 -23252182.426 4 -18118578.936 4  20877872.967    20877871.184
 -18915228.03344 -14739112.89144  21403910.6594   21403912.9864
 -15556387.82844 -12121858.08744  21446329.6624   21446332.3914
  -8267307.57744  -6442052.62944  21519792.4514   21519794.7944
 -17601806.17944 -13715673.64544  21820604.9544   21820607.8984
 -24398768.47144 -19011999.56444  20953573.1104   20953575.6534
  -1760779.12644  -1372034.56444  23495633.1884   23495635.4454
 96  5 18  4  2 30.0000000  0  8G26G28G23G 3G17G 1G21G31
   2384468.71244   1858043.12444  25417325.4384   25417326.1174
 -23234323.156 4 -18104662.636 4  20881271.359    20881269.742
 -18873057.18744 -14706252.48444  21411935.5464   21411937.5434
 -15579782.21944 -12140087.48944  21441877.9254   21441880.1214
  -8212934.03744  -6399683.64044  21530139.5124   21530141.7084
 -17687713.75044 -13782614.57344  21804257.3404   21804260.1814
 -24418470.77944 -19027352.00344  20949823.9304   20949826.3094
  -1836364.06244  -1430931.91844  23481249.9034   23481252.1794
 96  5 18  4  3  0.0000000  0  8G26G28G23G 3G17G 1G21G31
   2490487.47344   1940655.16244  25437499.9234   25437501.4304
 -23215978.803 4 -18090368.340 4  20884762.224    20884760.562
 -18830873.93044 -14673382.40444  21419962.7724   21419964.8974
 -15602717.60544 -12157959.22344  21437513.3984   21437515.7504
  -8158376.58644  -6357171.34944  21540521.3774   21540523.4824
 -17773339.68444 -13849336.05044  21787963.2114   21787966.2564
 -24438068.73244 -19042623.13044  20946094.5124   20946096.9304
  -1911646.61444  -1489593.64344  23466924.3254   23466927.5064
 96  5 18  4  3 30.0000000  0  8G26G28G23G 3G17G 1G21G31
   2596497.55544   2023260.47944  25457673.0484   25457678.0944
 -23197108.938 4 -18075664.557 4  20888353.075    20888351.357
 -18788636.07544 -14640469.78444  21428000.4364   21428002.4924
 -15625146.88844 -12175436.58744  21433245.2594   21433247.7024
  -8103594.79244  -6314484.24444  21550945.9734   21550948.1254
 -17858646.12544 -13915808.57244  21771729.8794   21771733.0644
 -24457528.57644 -19057786.63944  20942391.2964   20942393.9504
  -1986571.35644  -1547976.54844  23452666.3384   23452668.9484
 96  5 18  4  4  0.0000000  0  8G26G28G23G 3G17G 1G21G31
   2702305.10844   2105708.01244  25477807.5474   25477807.6054
 -23177910.420 4 -18060704.681 4  20892006.515    20892004.717
 -18746544.33944 -14607671.02144  21436010.1344   21436012.3374
 -15647267.72644 -12192673.60444  21429035.8334   21429038.4324
  -8048774.70444  -6271767.30344  21561377.8774   21561380.2034
 -17943839.47744 -13982192.96944  21755518.0664   21755521.0874
 -24477041.04644 -19072991.15544  20938678.2504   20938681.0584
  -2061350.77044  -1606246.21444  23438436.3244   23438439.4774
 96  5 18  4  4 30.0000000  0  8G26G28G23G 3G17G 1G21G31
   2808318.86444   2188316.18344  25497981.3634   25497982.5394
 -23157973.122 4 -18045169.140 4  20895800.458    20895798.655
 -18704180.76044 -14574660.43144  21444071.6584   21444073.8234
 -15668664.64444 -12209346.52644  21424964.1674   21424966.6614
  -7993502.40544  -6228697.97944  21571895.7954   21571898.1954
 -18028521.45744 -14048178.90044  21739403.5724   21739406.6264
 -24496200.18244 -19087920.34744  20935032.3674   20935034.9194
  -2135596.35344  -1664099.91744  23424307.8624   23424309.5164
 96  5 18  4  5  0.0000000  0  8G26G28G23G 3G17G 1G21G31
   2914475.05644   2271035.26744  25518182.0984
 -23137347.128 4 -18029096.954 4  20899725.394    20899723.697
 -18661588.47544 -14541471.62844  21452176.7214   21452178.7404
 -15689372.96144 -12225482.87444  21421023.4284   21421025.9654
  -7937807.07144  -6185299.02644  21582494.3374   21582496.3734
 -18112752.84344 -14113813.71944  21723374.8674   21723377.8074
 -24515070.08644 -19102624.16344  20931441.5394   20931443.9474
  -2209367.45944  -1721583.87944  23410269.7564   23410271.6114
 96  5 18  4  5 30.0000000  0  8G26G28G23G 3G17G 1G21G31
   3020969.39344                  25538447.1364
 -23115848.312 4 -18012344.637 4  20903816.417    20903814.846
 -18618585.03644 -14507962.44444  21460359.9684   21460361.7924
 -15709221.67644 -12240949.40944  21417246.3304   21417248.5334
  -7881502.92244  -6141425.66244  21593208.6474   21593210.7924
 -18196368.56244 -14178968.79744  21707463.3444   21707466.2894
 -24533467.47044 -19116959.78044  20927940.5964   20927942.8564
  -2282484.97044  -1778558.54844  23396355.9554   23396359.0514
 96  5 18  4  6  0.0000000  0  8G26G28G23G 3G17G 1G21G31
   3127358.51644   2436918.65544  25558692.2544   25558695.7764
 -23093923.233 4 -17995260.176 4  20907988.720    20907987.002
 -18575619.07244 -14474482.46644  21468536.1244   21468538.2654
 -15728652.97844 -12256090.69344  21413548.5994   21413551.1654
  -7825034.95144  -6097424.64844  21603954.1624   21603956.3674
 -18279827.29444 -14244001.54944  21691581.6264   21691584.6664
 -24551841.10944 -19131276.89044  20924444.2594   20924446.7384
  -2355386.71144  -1835365.08844  23382483.2934   23382485.4634
 96  5 18  4  6 30.0000000  0  8G26G28G23G 3G17G 1G21G31
   3233420.11644   2519564.05944  25578875.3184   25578879.7504
 -23071782.407 4 -17978007.598 4  20912202.060    20912200.180
 -18532904.20844 -14441198.15044  21476664.4094   21476666.6164
 -15747863.97144 -12271060.30344  21409892.8964   21409895.6324
  -7768624.51144  -6053468.46144  21614688.6324   21614691.0754
 -18363334.79744 -14309072.30844  21675690.6674   21675693.6734
 -24570407.00844 -19145743.82244  20920911.2704   20920913.8684
  -2428252.58744  -1892143.69844  23368617.2734   23368620.2814
 96  5 18  4  7  0.0000000  0  8G26G28G23G 3G17G 1G21G31
   3339619.18244   2602316.62444  25599084.3114
 -23048963.613 4 -17960226.713 4  20916544.294    20916542.452
 -18489986.13044 -14407755.48644  21484831.5264   21484833.6814
 -15766395.31444 -12285500.30744  21406366.5464   21406369.1234
  -7711815.53044  -6009201.72844  21625499.0644   21625501.4194
 -18446423.78644 -14373816.95344  21659879.3074   21659882.3784
 -24588693.15544 -19159992.76644  20917431.5414   20917434.3304
  -2500595.95244  -1948515.12544  23354850.7434   23354854.0344
 96  5 18  4  7 30.0000000  0  7G23G 3G17G 1G31G28G21
 -18446606.24744 -14373952.97144  21493086.4734   21493088.4754
 -15783989.32544 -12299209.92044  21403018.6284   21403020.8394
  -7654352.19744  -5964425.11444  21636434.0464   21636436.0234
 -18528835.29044 -14438033.68744  21644196.9944   21644199.9234
  -2572141.79544  -2004265.12744  23341236.0584   23341238.7124
 -23025202.743 4 -17941711.751 4  20921065.689    20921064.057
 -24606417.05144 -19173803.58844  20914058.8274   20914061.1954
 96  5 18  4  8  0.0000000  0  7G23G 3G17G 1G31G28G21
 -18402920.96444 -14339912.48644  21501399.5014   21501401.3554
 -15800789.56844 -12312301.02644  21399821.4764   21399824.1424
  -7596389.62444  -5919259.48444  21647463.9664   21647466.0534
 -18610707.62844 -14501830.29344  21628617.1534   21628620.2274
  -2643048.44644  -2059517.05044  23327742.9464   23327746.1064
 -23000661.568 4 -17922588.779 4  20925735.844    20925734.154
 -24623726.20944 -19187291.24144  20910765.1064   20910767.5904
 96  5 18  4  8 30.0000000  0  7G28G23G 3G17G 1G21G31
 -22976021.127 4 -17903388.456 4  20930424.878    20930423.078
 -18359623.27144 -14306174.01744  21509638.7464   21509640.9254
 -15817480.86344 -12325307.24044  21396645.2794   21396647.8664
  -7538607.77444  -5874234.67444  21658459.4964   21658461.7954
 -18692709.66344 -14565727.96244  21613012.7274   21613015.6054
 -24641295.99144 -19200981.97644  20907421.6014   20907424.1894
  -2714013.13744  -2114814.20544  23314238.7584   23314241.8974
 96  5 18  4  9  0.0000000  0  8G 9G28G23G 3G17G 1G21G31
        -0.61354        -0.18754  23906005.2704   23906010.0264
 -22950764.340 4 -17883707.854 4  20935231.087    20935229.229
 -18316208.83244 -14272344.57744  21517900.2244   21517902.3984
 -15833543.64944 -12337823.70144  21393588.5314   21393591.1004
  -7480475.63044  -5828936.90344  21669521.6924   21669523.8964
 -18774330.16744 -14629328.33044  21597480.8404   21597483.6844
 -24658610.32944 -19214473.66444  20904126.7964   20904129.4224
  -2784532.55344  -2169764.38344  23300819.2944   23300822.1184
 96  5 18  4  9 30.0000000  0  8G 9G28G23G 3G17G 1G21G31
    -18278.47544    -14242.69144  23902526.9854   23902530.1814
 -22924773.745 4 -17863455.451 4  20940176.955    20940175.034
 -18272558.11544 -14238331.03044  21526206.6844   21526208.7424
 -15848843.44244 -12349745.62244  21390677.1174   21390679.7064
  -7421860.72644  -5783262.95544  21680675.5324   21680677.9994
 -18855438.83844 -14692529.87144  21582046.2374   21582049.2764
 -24675558.37244 -19227679.92944  20900901.6304   20900904.3134
  -2854494.41944  -2224280.11244  23287505.8634   23287508.0094
 96  5 18  4 10  0.0000000  0  8G 9G28G23G 3G17G 1G21G31
    -35973.17244    -28030.77944  23899159.8934   23899160.2824
 -22898103.921 4 -17842673.785 4  20945252.088    20945250.102
 -18228722.76344 -14204173.61244  21534548.1944   21534550.4284
 -15863429.28844 -12361111.21544  21387901.5584   21387904.3094
  -7362819.69844  -5737256.96744  21691910.6534   21691913.0154
 -18936066.11644 -14755356.29744  21566703.3954   21566706.3894
 -24692218.44044 -19240661.79544  20897731.3464   20897733.8824
  -2923950.70544  -2278401.87144  23274288.7804   23274291.9364
 96  5 18  4 10 30.0000000  0  8G 9G28G23G 3G17G 1G21G31
    -53146.06244    -41412.81544  23895891.9804   23895893.0224
 -22870806.603 4 -17821403.162 4  20950446.609    20950444.639
 -18184751.97744 -14169910.65844  21542915.5134   21542917.8094
 -15877361.47044 -12371967.45944  21385250.3804   21385253.1884
  -7303411.54944  -5690964.91244  21703215.7464   21703218.2254
 -19016264.90544 -14817848.83844  21551442.0304   21551445.1784
 -24708658.46544 -19253472.19844  20894602.8844   20894605.2314
  -2992942.34844  -2332161.57344  23261159.9494   23261162.7554
 96  5 18  4 11  0.0000000  0  8G 9G28G23G 3G17G 1G21G31
    -69829.42144    -54414.51944  23892717.1794   23892719.8654
 -22842907.495 4 -17799663.608 4  20955755.644    20955753.739
 -18140646.11344 -14135542.44744  21551308.5754   21551310.6154
 -15890669.91744 -12382337.67944  21382717.8444   21382720.5284
  -7243672.29944  -5644414.85544  21714583.7474   21714586.2344
 -19096042.28144 -14880013.00444  21536260.8954   21536263.8674
 -24724902.14844 -19266129.60744  20891511.7694   20891514.2384
  -3061467.62244  -2385557.87044  23248119.9544   23248122.4344
 96  5 18  4 11 30.0000000  0  8G 9G28G23G 3G17G 1G21G31
    -86038.65744    -67051.90444  23889632.7894   23889635.3254
 -22814422.873 4 -17777467.799 4  20961176.065    20961174.172
 -18096391.86644 -14101058.61844  21559729.8534   21559732.0294
 -15903391.05444 -12392250.25244  21380297.0874   21380299.4654
  -7183626.11244  -5597625.62344  21726010.1854   21726012.5884
 -19175399.57144 -14941849.82944  21521159.6544   21521162.7224
 -24740966.23844 -19278647.07944  20888454.9494   20888457.4484
  -3129535.23544  -2438597.55044  23235167.1744   23235169.5084
 96  5 18  4 12  0.0000000  0  8G 9G28G23G 3G17G 1G21G31
   -101791.36944    -79319.10144  23886635.2554   23886637.6374
 -22785370.142 4 -17754829.310 4  20966704.612    20966702.740
 -18052010.24144 -14066475.52844  21568175.4014   21568177.5664
 -15915556.23744 -12401729.61544  21377982.1804   21377984.7744
  -7123290.61944  -5550610.95344  21737491.6604   21737494.1084
 -19254366.09244 -15003382.16344  21506132.7834   21506135.8794
 -24756859.92244 -19291031.76244  20885430.4444   20885433.0484
  -3197167.17444  -2491297.73844  23222297.3664   23222300.5344
 96  5 18  4 12 30.0000000  0  8G 9G28G23G 3G17G 1G21G31
   -117102.38844                  23883721.5324
 -22755758.322 4 -17731755.175 4  20972339.544    20972337.668
 -18007517.13344 -14031805.57044  21576642.2114   21576644.5354
 -15927172.36544 -12410781.14944  21375771.6454   21375774.3674
  -7062661.12744  -5503367.20244  21749029.0784   21749031.6124
 -19332967.82144 -15064630.23544  21491175.3814   21491178.4914
 -24772564.43044 -19303269.03944  20882442.0234   20882444.4674
  -3264370.71344  -2543664.10944  23209508.6874   23209511.6684
 96  5 18  4 13  0.0000000  0  8G 9G28G23G 3G17G 1G21G31
   -131938.74844   -102808.91744  23880898.1964
 -22725556.689 4 -17708221.455 4  20978086.716    20978084.871
 -17962884.62844 -13997026.98944  21585135.4744   21585137.7144
 -15938201.81544 -12419375.53844  21373672.8704   21373675.3184
  -7001696.22444  -5455862.09344  21760630.3504   21760632.7184
 -19411182.47144 -15125576.68744  21476291.6784   21476294.6734
 -24788037.15044 -19315325.69144  20879497.6454   20879499.9894
  -3331127.27644  -2595682.18844  23196805.4214   23196807.1874
 96  5 18  4 13 30.0000000  0  8G 9G28G23G 3G17G 1G21G31
   -146139.94844   -113874.81844  23878196.0784   23878197.2734
 -22694620.754 4 -17684115.541 4  20983973.541    20983971.839
 -17917990.37944 -13962044.45444  21593678.6084   21593680.6574
 -15948480.70644 -12427385.07844  21371716.9614   21371719.0494
  -6940237.11144  -5407971.88344  21772325.6834   21772327.7174
 -19488880.61044 -15186120.66044  21461506.1794   21461508.9194
 -24803133.65944 -19327089.19144  20876624.9394   20876627.1894
  -3397311.53144  -2647254.30244  23184210.9424   23184214.0574
 96  5 18  4 14  0.0000000  0  8G 9G28G23G 3G17G 1G21G31
   -159922.76544   -124614.68044  23875573.0994   23875574.5754
 -22663151.004 4 -17659593.665 4  20989962.061    20989960.361
 -17873050.52744 -13927026.38344  21602230.3564   21602232.3194
 -15958188.36144 -12434949.49944  21369869.5664   21369871.9024
  -6878480.60044  -5359849.93944  21784077.4974   21784079.8664
 -19566250.51344 -15246408.86544  21446783.1154   21446786.1584
 -24818058.56544 -19338718.98044  20873784.8064   20873787.1854
  -3463118.71744  -2698532.61544  23171688.4404   23171691.6354
 96  5 18  4 14 30.0000000  0  8G 9G28G23G 3G17G 1G21G31
   -173475.92144   -135175.57544  23872993.9244   23872994.1034
 -22631334.554 4 -17634801.636 4  20996016.507    20996014.889
 -17828239.34844 -13892108.57244  21610757.6374   21610759.6364
 -15967502.28144 -12442207.11144  21368097.1234   21368099.6094
  -6816626.09444  -5311651.63044  21795848.0664   21795850.2084
 -19643462.85544 -15306574.29344  21432090.0934   21432092.8524
 -24833009.54844 -19350369.09244  20870939.7094   20870942.0074
  -3528721.56644  -2749651.67844  23159204.6014   23159207.3594
 96  5 18  4 15  0.0000000  0  8G 9G28G23G 3G17G 1G21G31
   -186458.58344   -145291.90944  23870523.4544   23870526.6164
 -22598841.357 4 -17609482.285 4  21002199.762    21002198.137
 -17783220.45944 -13857028.90744  21619324.4454   21619326.4564
 -15976098.70644 -12448905.63044  21366461.3404   21366463.5894
  -6754358.07644  -5263131.10944  21807697.1964   21807699.2654
 -19720174.21144 -15366349.34644  21417492.4274   21417495.4194
 -24847667.35744 -19361790.74744  20868150.4084   20868152.6424
  -3593794.13044  -2800357.55144  23146821.6534   23146823.9544
 96  5 18  4 15 30.0000000  0  8G 9G28G23G 3G17G 1G21G31
   -199039.21444   -155094.99244  23868129.5274   23868130.0394
 -22565852.429 4 -17583776.650 4  21008477.340    21008475.737
 -17738172.95844 -13821926.94644  21627896.7494   21627898.8024
 -15984161.27244 -12455188.15144  21364927.1804   21364929.2954
  -6691856.99244  -5214428.98044  21819590.8164   21819592.9944
 -19796553.33344 -15425865.51744  21402957.8824   21402960.5064
 -24862217.10444 -19373128.20144  20865381.6434   20865383.9994
  -3658498.07344  -2850776.18444  23134508.8674   23134511.3094
 96  5 18  4 16  0.0000000  0  8G 9G28G23G 3G17G 1G21G31
   -211129.45744   -164515.93244  23865828.7094   23865830.9254
 -22532273.503 4 -17557611.264 4  21014867.213    21014865.603
 -17692987.76744 -13786717.69144  21636495.1624   21636496.8354
 -15991604.58544 -12460988.13844  21363510.7704   21363513.0654
  -6629032.44144  -5165474.79744  21831545.9024   21831548.2364
 -19872510.92044 -15485053.21344  21388503.6374   21388506.3464
 -24876552.84544 -19384298.88644  20862653.6264   20862655.9854
  -3722719.92844  -2900819.16544  23122287.9884   23122290.1734
 96  5 18  4 16 30.0000000  0  8G 9G28G23G 3G17G 1G21G31
   -222731.70744   -173556.61644  23863620.8964   23863622.0174
 -22498128.138 4 -17531004.498 4  21021364.901    21021363.270
 -17647688.16544 -13751419.29244  21645115.5144   21645117.5494
 -15998457.85144 -12466328.34544  21362206.6064   21362208.9774
  -6565909.06744  -5116287.76544  21843557.9894   21843560.4054
 -19948097.79544 -15543952.05044  21374119.9304   21374122.5544
 -24890679.21844 -19395306.43644  20859965.4704   20859967.8144
  -3786485.25144  -2950506.41444  23110153.8924   23110156.2174
 96  5 18  4 17  0.0000000  0  8G 9G28G23G 3G17G 1G21G31
   -233888.98644   -182250.54744  23861497.7164   23861499.3494
 -22463455.902 4 -17503987.186 4  21027962.804    21027961.224
 -17602315.98044 -13716064.33244  21653749.4884   21653751.0344
 -16004757.53644 -12471237.19444  21361007.8464   21361010.0174
  -6502512.89144  -5066888.15744  21855621.8684   21855623.9484
 -20023355.65144 -15602594.50344  21359798.8084   21359801.4384
 -24904632.90744 -19406179.43544  20857310.1844   20857312.4394
  -3849833.77744  -2999868.87344  23098099.0254   23098101.4354
 96  5 18  4 17 30.0000000  0  8G 9G28G23G 3G17G 1G21G31
   -244473.96244   -190498.54644  23859483.4134   23859485.3594
 -22428129.665 4 -17476460.265 4  21034685.182    21034683.598
 -17556747.76144 -13680556.62144  21662420.7814   21662422.4274
 -16010371.18844 -12475611.47544  21359939.5764   21359941.9354
  -6438703.52844  -5017166.58744  21867764.4794   21867766.5514
 -20098149.37344 -15660875.29744  21345566.0674   21345568.6644
 -24918298.73544 -19416828.12944  20854709.6274   20854711.9614
  -3912620.00444  -3048793.17944  23086151.1284   23086154.2004
 96  5 18  4 18  0.0000000  0  8G 9G28G23G 3G17G 1G21G31
   -254487.99144   -198301.66144  23857577.8384   23857579.9344
 -22392142.921 4 -17448418.667 4  21041533.258    21041531.653
 -17510990.20844 -13644901.38144  21671128.1554   21671129.8564
 -16015282.15744 -12479438.20844  21359005.0134   21359007.3584
  -6374475.76944  -4967118.99044  21879986.6504   21879989.0044
 -20172464.22944 -15718782.94644  21331424.3884   21331426.9044
 -24931671.49844 -19427248.45444  20852164.8674   20852167.0424
  -3974845.27544  -3097280.37944  23074309.9984   23074311.8054
 96  5 18  4 18 30.0000000  0  8G 9G28G23G 3G17G 1G21G31
   -264049.64744   -205752.28744  23855758.3464   23855760.2344
 -22355621.333 4 -17419960.312 4  21048483.265    21048481.452
 -17465174.91444 -13609201.14744  21679846.4544   21679848.5034
 -16019617.95744 -12482816.76644  21358179.8334   21358182.7314
  -6309945.84044  -4916835.94144  21892266.1384   21892268.4404
 -20246400.85244 -15776395.87244  21317354.6954   21317357.5474
 -24944888.40444 -19437547.33044  20849649.7444   20849652.1944
  -4036629.10144  -3145423.59844  23062552.8864   23062555.2014
 96  5 18  4 19  0.0000000  0  8G 9G28G23G 3G17G 1G21G31
   -273471.96144   -213094.33344  23853965.2904   23853968.4764
 -22318872.498 4 -17391324.870 4  21055476.388    21055474.503
 -17419614.60544 -13573699.60044  21688516.3204   21688518.5354
 -16023689.59544 -12485989.48444  21357405.0384   21357407.9214
  -6245419.07744  -4866555.36144  21904545.2744   21904547.6304
 -20320235.37644 -15833929.23944  21303304.4144   21303307.1334
 -24958274.29044 -19447977.88444  20847102.4514   20847104.8874
  -4098269.07244  -3193454.72644  23050823.2914   23050825.3774
 96  5 18  4 19 30.0000000  0  8G 9G28G23G 3G17G 1G21G31
   -285312.88744   -222321.01544  23851711.8314   23851713.0004
 -22284465.259 4 -17364514.047 4  21062023.844    21062021.975
 -17376882.62944 -13540401.94944  21696647.8544   21696649.9464
 -16030066.65944 -12490958.63244  21356191.5954   21356194.4914
  -6183465.19944  -4818279.62044  21916334.6234   21916337.0424
 -20396535.68944 -15893384.00044  21288784.9274   21288787.7534
 -24974387.24144 -19460533.42244  20844036.2464   20844038.8564
  -4162327.88044  -3243370.65144  23038633.0354   23038635.8224
 96  5 18  4 20  0.0000000  0  8G 9G28G23G 3G17G 1G21G31
   -296625.03944   -231135.66044  23849559.0624   23849560.5044
 -22249453.081 4 -17337231.843 4  21068686.346    21068684.611
 -17334012.70644 -13506996.80644  21704805.7834   21704807.6984
 -16035793.40144 -12495421.03344  21355101.8984   21355104.5664
  -6121142.98144  -4769716.86244  21928194.1824   21928196.3804
 -20472357.95144 -15952466.25044  21274356.4394   21274358.8994
 -24990260.83944 -19472902.44944  20841015.6674   20841018.0364
  -4225864.23044  -3292879.47544  23026542.5424   23026544.5184
 96  5 18  4 20 30.0000000  0  8G 9G28G23G 3G17G 1G21G31
   -307209.13744   -239383.00244  23847544.9104   23847546.1334
 -22213648.386 4 -17309332.098 4  21075499.761    21075498.010
 -17290799.77844 -13473324.38744  21713029.0034   21713030.7484
 -16040695.93044 -12499241.19644  21354169.0084   21354171.7664
  -6058273.75244  -4720727.86244  21940157.7564   21940159.8894
 -20547514.11044 -16011029.45844  21260054.7234   21260057.2014
 -25005704.47944 -19484936.44344  20838076.8594   20838079.1404
  -4288686.09844  -3341831.55244  23014587.9924   23014590.1224
 96  5 18  4 21  0.0000000  0  8G 9G28G23G 3G17G 1G21G31
   -317167.68044   -247142.88544  23845649.9444   23845653.1124
 -22177156.084 4 -17280896.551 4  21082444.093    21082442.235
 -17247348.25944 -13439466.06044  21721297.5114   21721299.5344
 -16044866.05544 -12502490.65044  21353375.4464   21353378.0164
  -5994973.44244  -4671402.95444  21952203.3974   21952205.8264
 -20622115.68744 -16069160.52644  21245858.3784   21245861.1914
 -25020819.16844 -19496714.11644  20835200.5944   20835202.9604
  -4350912.08844  -3390319.31944  23002746.8794   23002749.4764
 96  5 18  4 21 30.0000000  0  8G 9G28G23G 3G17G 1G21G31
   -326313.99244   -254269.85244  23843909.4434   23843910.2244
 -22139805.982 4 -17251792.584 4  21089551.550    21089549.761
 -17203477.81844 -13405281.30244  21729645.7624   21729647.7584
 -16048132.93544 -12505036.27844  21352753.7744   21352755.9844
  -5931071.30344  -4621609.09144  21964363.6174   21964365.9044
 -20696003.33444 -16126735.28344  21231797.9584   21231800.8514
 -25035419.94544 -19508091.33444  20832422.1754   20832424.4824
  -4412372.77244  -3438210.73544  22991050.9314   22991053.3304
 96  5 18  4 22  0.0000000  0  8G 9G28G23G 3G17G 1G21G31
   -334676.10144   -260785.76644  23842318.2254   23842320.1404
 -22101630.231 4 -17222045.251 4  21096816.094    21096814.394
 -17159221.60044 -13370795.93844  21738067.5124   21738069.4284
 -16050525.25544 -12506900.42944  21352298.5034   21352300.9774
  -5866605.61244  -4571376.08444  21976631.1214   21976633.4154
 -20769204.26644 -16183774.94044  21217868.3264   21217870.8374
 -25049544.62444 -19519097.56644  20829734.3154   20829736.4834
  -4473096.46244  -3485527.88044  22979495.6844   22979498.2504
 96  5 18  4 22 30.0000000  0  8G 9G28G23G 3G17G 1G21G31
   -342182.70644   -266635.05944  23840889.7464   23840891.3794
 -22062557.312 4 -17191598.836 4  21104251.616    21104249.663
 -17114519.54144 -13335963.16844  21746573.9434   21746576.2544
 -16051973.06344 -12508028.59544  21352022.9234   21352025.7334
  -5801499.44544  -4520644.02444  21989020.3464   21989022.7614
 -20841653.92144 -16240229.18744  21204081.5404   21204084.3394
 -25063126.55144 -19529680.87944  20827149.6964   20827152.1514
  -4533000.39844  -3532206.24444  22968096.4644   22968099.4644
 96  5 18  4 23  0.0000000  0  8G 9G28G23G 3G17G 1G21G31
   -348860.97444   -271838.87044  23839618.9144   23839620.4854
 -22022610.404 4 -17160471.396 4  21111853.247    21111851.304
 -17069397.11444 -13300802.83844  21755160.3814   21755162.6174
 -16052485.28444 -12508427.73144  21351925.4954   21351928.2904
  -5735760.88944  -4469419.19744  22001529.9704   22001532.6394
 -20913383.90744 -16296122.65144  21190431.7564   21190434.5794
 -25076187.99144 -19539858.61444  20824664.1894   20824666.5944
  -4592100.37644  -3578258.16044  22956850.0774   22956852.4244
 96  5 18  4 23 30.0000000  0  8G 9G28G23G 3G17G 1G21G31
   -354259.23044   -276045.28644  23838591.6264   23838592.8694
 -21981340.359 4 -17128312.938 4  21119706.542    21119704.751
 -17023396.78844 -13264958.43144  21763914.0694   21763915.9044
 -16051613.08544 -12507748.09644  21352091.5394   21352094.3204
  -5668931.67644  -4417344.48444  22014247.1784   22014249.5384
 -20983940.76844 -16351101.99044  21177005.2504   21177007.8774
 -25088280.70644 -19549281.49844  20822363.0394   20822365.3444
  -4649924.69144  -3623316.03944  22945846.3814   22945848.1644
